GFSGBSN_sfc_temp_000.txt.gz
Temp
66 65 65 64 64 64 64 63 63 63 63 63 63 63 63 63 63 63 63 63 63 63 63 64 63 62 56 49 49 63 68 67 68 65 62 60 56 55 51 53 54 50 54 58 60 60 58
66 66 65 65 64 64 63 63 63 63 63 63 63 63 62 62 62 62 62 62 63 63 63 64 63 61 51 42 60 64 63 62 62 61 61 61 58 59 56 55 55 56 57 58 58 60 58
65 65 65 64 64 64 63 63 63 62 62 63 63 62 62 62 62 62 62 63 63 62 62 62 62 57 50 49 60 61 63 62 62 62 59 61 62 63 61 56 58 56 51 55 56 57 58
65 65 65 64 64 63 63 62 62 62 63 63 63 62 61 61 61 61 62 62 62 62 61 62 62 52 45 60 63 61 60 61 61 63 62 63 64 63 61 61 57 51 48 43 52 54 57
66 65 64 64 64 64 63 62 62 62 62 62 62 62 61 60 60 60 60 61 61 61 62 61 54 50 45 63 55 58 60 55 57 60 62 66 61 59 60 53 50 51 45 42 48 55 53
65 65 64 64 64 63 63 63 62 62 62 62 62 61 61 60 60 59 59 60 60 59 57 58 56 45 48 48 55 58 59 59 56 55 56 56 55 52 49 45 41 44 45 41 43 50 49
65 64 64 63 63 63 63 62 62 62 62 62 61 61 60 59 59 59 57 53 46 44 49 45 46 46 51 55 59 55 59 57 55 51 47 53 48 45 47 53 48 47 43 43 46 51 47
64 64 64 63 63 63 62 62 62 61 61 61 61 60 59 58 58 58 55 48 50 52 41 49 51 49 55 55 48 53 61 50 49 42 51 49 45 53 52 51 51 49 48 42 48 50 47
64 64 64 63 62 62 62 61 61 61 61 61 60 60 58 57 58 56 51 52 56 57 43 44 49 49 51 54 47 48 56 52 46 44 47 47 50 57 54 48 49 47 46 42 44 48 48
63 63 63 63 62 61 61 61 60 60 60 60 60 59 57 57 53 53 50 55 56 56 35 38 42 47 52 51 45 57 60 55 48 44 49 48 53 53 52 47 49 42 49 51 47 43 37
62 63 63 62 62 61 60 60 60 60 60 59 59 59 58 57 53 50 54 55 55 50 22 41 44 56 52 46 48 49 60 56 44 45 50 46 48 47 49 51 51 46 53 51 49 41 35
63 62 62 62 61 61 60 60 60 60 59 58 58 59 58 54 54 54 56 55 51 34 24 36 45 43 43 46 48 51 52 55 55 49 48 47 53 52 50 53 54 54 50 48 44 39 32
62 62 61 61 61 61 60 60 60 59 59 58 58 58 56 57 51 56 55 49 33 28 40 36 38 44 44 41 45 47 45 43 43 38 40 44 47 52 55 49 52 51 47 36 34 31 31
61 61 61 61 61 61 60 60 60 60 59 58 57 57 56 57 57 56 51 40 30 36 36 45 42 43 39 44 44 45 44 42 47 43 44 38 37 46 52 49 45 46 44 34 29 29 32
61 61 60 60 61 61 60 60 59 59 58 57 57 54 53 55 57 54 44 33 34 41 44 43 43 38 38 44 44 44 43 43 48 49 42 40 39 46 53 51 52 42 42 44 37 31 31
60 60 60 60 61 60 60 59 59 59 58 57 51 47 49 57 57 51 40 36 41 50 48 46 37 42 37 40 41 41 42 49 49 53 50 43 36 47 47 54 51 47 50 39 36 30 28
60 60 60 60 60 59 59 58 59 59 58 56 49 43 53 57 55 47 37 38 47 53 51 47 42 40 43 39 42 40 41 47 53 49 49 45 41 41 47 44 44 43 40 39 40 35 31
60 60 60 60 59 58 58 58 58 58 57 51 44 41 54 56 45 46 41 47 51 51 51 50 51 49 45 42 43 42 42 46 54 51 46 47 40 37 42 43 46 43 43 42 36 32 31
60 60 59 59 58 58 58 58 58 58 56 45 42 48 55 52 42 42 47 48 51 49 49 49 46 50 51 44 41 45 45 50 51 51 48 48 39 33 38 40 41 40 41 41 39 37 31
60 59 59 58 58 57 57 57 57 57 56 46 44 43 47 49 47 45 44 45 45 49 48 52 49 50 50 45 46 41 42 48 51 51 52 53 42 39 35 37 42 37 40 40 41 34 33
59 59 59 58 58 57 57 57 57 56 56 47 42 46 48 40 43 45 48 46 44 44 49 52 47 50 46 41 41 40 44 46 50 51 49 51 42 40 40 42 43 42 43 41 40 42 39
59 59 58 58 58 57 57 57 57 56 55 45 42 42 45 41 46 47 45 44 44 46 48 48 45 47 48 45 44 41 45 44 44 46 46 48 40 41 37 41 41 39 41 41 40 40 38
59 58 58 58 57 57 56 56 56 56 53 44 42 46 49 45 44 45 45 46 47 49 49 49 49 48 46 47 47 48 47 47 48 49 45 45 42 40 35 38 37 36 41 39 40 41 43
58 58 58 57 57 56 56 56 56 56 53 46 44 44 43 42 44 45 47 47 46 47 46 47 50 49 48 52 52 52 50 48 47 44 46 43 40 38 32 33 28 39 41 44 42 41 43
58 58 58 57 57 56 56 56 56 56 55 45 44 44 42 38 40 42 43 42 43 43 44 45 45 46 50 49 44 42 43 44 42 43 43 45 41 34 34 31 37 39 41 42 42 39 44
58 58 57 57 56 56 56 55 55 56 55 46 44 45 43 41 40 44 42 40 39 38 39 42 45 46 48 45 44 36 35 39 37 38 43 42 42 39 27 28 30 39 44 48 47 37 45
58 58 57 56 56 55 55 55 55 55 55 48 45 46 44 40 40 41 42 42 41 38 37 39 41 42 43 38 36 34 35 38 35 35 36 36 35 34 33 32 35 44 47 48 37 38 43
56 57 56 56 56 55 55 55 55 55 55 50 46 46 46 40 40 44 45 42 41 41 40 41 43 43 39 38 36 33 34 36 35 35 35 36 31 31 31 30 31 44 44 41 42 42 44
55 56 56 55 55 55 54 54 55 55 55 53 46 48 48 44 43 45 46 46 46 46 42 39 41 40 42 36 35 34 33 32 35 34 37 36 39 36 37 36 43 41 43 43 45 44 43

GFSGBSN_sfc_temp_003.txt.gz
Temp
67 66 66 65 65 64 64 63 63 63 63 63 63 63 63 63 63 63 63 63 63 64 64 64 64 62 57 49 51 64 69 67 66 66 60 58 57 56 54 57 57 55 59 60 62 62 61
67 66 65 65 65 64 64 63 63 63 63 63 63 63 63 63 62 62 62 63 63 63 63 63 63 61 53 43 61 66 63 62 63 62 59 60 59 61 57 57 58 59 60 62 61 62 61
66 66 65 65 65 64 64 63 63 63 63 63 63 63 63 62 62 62 62 63 63 63 62 62 62 57 51 49 61 61 62 60 62 63 57 62 62 63 61 57 60 59 56 58 59 61 61
66 67 65 65 65 64 64 63 62 62 63 63 63 63 62 62 61 61 62 62 63 62 62 61 61 54 46 61 63 60 61 59 62 63 62 64 64 61 61 63 59 56 55 49 58 60 60
66 66 66 65 64 64 64 63 62 62 62 62 63 62 62 62 61 61 60 61 62 61 61 61 53 50 45 62 54 59 60 55 59 59 61 65 61 58 59 53 50 51 44 47 51 59 58
65 65 65 64 64 64 64 63 63 62 62 62 62 62 62 62 61 60 60 59 60 59 58 58 55 45 49 49 55 57 58 59 54 56 55 56 54 51 53 49 41 43 47 49 48 56 54
65 65 65 64 64 63 63 63 63 62 62 62 61 61 61 61 59 58 57 54 47 46 50 45 45 46 51 56 59 55 57 56 55 52 45 51 48 45 50 53 53 50 51 50 51 55 53
64 65 64 64 64 63 63 62 62 62 61 61 61 61 61 60 58 58 56 47 50 52 41 49 50 50 54 55 48 53 59 49 47 43 49 48 44 53 53 52 52 49 48 47 51 54 53
64 64 64 64 63 63 62 62 61 61 61 60 60 60 59 58 57 56 52 52 57 56 42 45 49 48 49 53 47 49 54 51 47 45 45 45 49 57 53 49 49 48 47 46 48 51 52
63 64 64 63 63 62 61 61 61 60 60 59 59 60 59 57 53 53 50 54 54 53 34 38 41 47 51 51 44 55 57 53 48 44 47 47 53 53 51 48 50 44 51 52 49 47 42
63 63 63 63 62 62 61 61 60 60 60 59 59 59 59 56 52 50 52 54 53 48 23 41 42 56 51 47 48 47 58 54 45 46 48 44 48 49 47 50 52 47 53 51 50 47 43
63 63 62 62 62 61 61 60 60 60 59 58 58 58 58 54 53 54 54 54 50 32 23 36 44 41 42 45 47 50 50 54 55 49 50 47 54 54 53 53 54 52 49 47 46 44 37
62 62 62 61 61 61 61 60 60 60 59 58 58 58 55 56 51 55 54 48 32 27 38 35 37 41 41 39 42 45 43 42 40 36 38 44 47 50 52 49 51 51 46 35 32 34 36
62 62 61 61 61 61 60 60 60 60 59 58 57 57 56 56 56 55 51 39 28 37 34 44 41 41 38 41 41 43 41 37 45 43 40 37 36 46 50 48 45 46 46 38 32 33 37
62 61 61 61 61 60 60 60 59 59 58 57 57 54 52 55 56 54 42 31 34 38 40 40 40 35 38 42 42 41 40 40 44 44 41 38 39 47 51 52 52 42 41 48 39 37 36
62 61 60 60 61 60 60 60 59 58 58 57 51 49 50 57 56 49 37 35 38 43 47 44 35 39 33 38 35 40 40 48 45 48 48 44 37 46 50 53 51 48 51 40 40 34 32
62 61 60 60 60 59 59 59 58 58 58 56 49 41 53 57 54 45 35 36 42 49 50 44 41 37 41 37 37 39 39 47 50 49 47 45 42 40 48 46 43 44 40 42 43 39 35
61 61 60 60 59 58 58 58 58 58 56 52 43 41 54 55 42 43 39 42 47 49 51 47 46 46 41 41 38 41 40 45 54 53 45 47 41 36 40 45 49 49 46 46 39 35 35
58 62 60 59 58 58 58 58 58 58 56 44 40 47 54 52 40 40 45 45 48 48 49 47 45 48 46 42 39 44 46 51 53 53 46 49 40 34 40 44 44 43 45 44 42 40 34
57 60 60 59 58 57 57 57 57 57 56 46 42 42 47 48 47 44 44 44 45 51 50 51 47 51 46 43 44 41 44 49 52 55 54 53 42 39 36 39 42 38 40 41 44 37 36
56 59 60 59 58 57 57 57 57 57 56 48 40 40 45 40 43 43 45 45 44 44 48 50 47 46 48 40 40 40 44 47 51 51 51 52 42 41 40 43 44 43 43 41 41 46 43
55 57 59 59 58 57 57 56 56 56 55 47 39 39 40 43 43 42 43 43 44 43 45 46 46 47 49 45 43 39 44 45 46 47 46 48 41 41 38 42 43 41 42 44 43 41 42
54 55 59 59 58 57 56 56 56 56 54 43 42 42 43 45 44 44 44 43 43 45 46 47 49 49 47 47 47 49 49 49 50 47 44 45 42 40 38 40 41 37 41 40 43 42 47
54 55 56 58 57 57 56 55 55 56 53 44 43 43 41 43 44 45 47 45 44 47 45 45 49 49 48 49 49 52 50 49 53 45 48 42 41 40 34 38 29 42 43 45 43 43 45
53 55 55 58 57 56 56 56 56 56 55 45 43 43 40 41 43 44 45 42 43 45 43 44 44 45 49 49 44 41 43 44 43 43 44 45 43 36 34 32 38 40 41 41 42 41 44
53 54 54 57 57 56 56 55 55 55 55 46 43 44 41 41 41 43 42 42 41 40 43 42 46 47 49 46 42 36 34 38 37 39 43 43 44 43 30 30 33 42 45 48 47 39 45
52 53 54 57 56 56 55 55 55 55 55 48 44 45 42 41 40 40 41 42 43 40 40 42 43 45 46 42 38 34 36 39 37 36 37 38 37 36 35 33 37 45 47 48 37 41 45
51 52 53 56 56 56 55 55 55 55 54 50 46 46 44 41 40 42 43 41 41 41 41 41 45 45 40 40 39 36 37 36 35 37 37 38 34 33 33 32 33 46 46 42 44 43 44
51 52 52 55 55 55 55 55 54 54 54 52 44 47 46 43 43 44 45 44 44 45 41 38 42 40 42 37 34 33 34 34 35 35 37 37 41 37 38 37 42 42 43 43 45 44 43

GFSGBSN_sfc_temp_006.txt.gz
Temp
67 67 66 66 66 65 65 64 64 64 64 64 64 64 63 63 63 63 63 63 63 64 64 64 64 63 61 51 56 71 68 69 72 69 64 63 58 62 59 64 67 63 69 70 72 71 70
67 67 66 66 65 65 65 64 64 63 64 64 64 63 63 63 63 62 63 63 63 63 63 63 63 62 58 46 69 72 72 70 68 68 62 65 63 69 66 66 64 68 68 69 72 70 71
66 67 67 66 65 65 65 64 64 63 63 63 63 63 63 63 63 63 62 63 63 63 63 63 63 63 54 54 69 70 67 67 69 68 63 67 68 63 68 63 70 69 62 67 69 69 69
66 66 67 66 65 65 64 64 63 63 63 63 63 63 63 62 62 62 62 62 62 62 63 62 63 60 50 66 71 67 69 65 69 70 67 70 67 58 58 70 66 61 63 56 68 69 70
66 66 66 66 66 65 64 64 63 63 63 63 63 63 63 62 62 61 61 61 60 62 62 62 59 56 49 65 59 66 68 62 63 67 68 68 62 54 61 53 53 59 53 55 61 69 68
65 65 65 65 65 65 64 64 63 63 62 62 62 62 62 62 62 61 60 60 60 60 60 60 59 49 55 52 61 63 66 65 60 61 58 56 52 49 52 50 44 49 53 58 58 65 64
65 65 65 65 65 64 64 64 63 63 62 62 62 61 61 61 61 59 57 55 47 46 50 47 50 51 54 61 63 59 64 60 59 54 45 54 43 42 52 53 59 61 59 56 62 65 61
64 65 65 65 64 64 64 63 63 62 62 61 61 60 60 61 61 59 55 49 51 54 42 51 52 54 57 60 51 57 63 53 50 42 48 48 40 53 53 57 57 60 56 55 64 62 61
64 64 64 64 64 64 63 62 62 62 62 61 60 60 60 60 59 55 53 52 55 54 41 45 49 50 53 56 51 52 57 55 48 42 43 43 47 55 51 54 54 57 54 57 57 59 60
64 64 64 64 64 63 62 62 61 61 61 60 60 59 60 58 52 55 51 52 53 54 33 38 42 47 52 54 47 60 61 56 50 41 44 48 54 50 51 51 57 52 61 59 55 51 50
63 63 63 63 63 62 62 62 61 61 60 59 59 59 59 58 55 51 52 53 52 49 25 44 43 58 54 49 53 52 61 56 47 44 43 42 46 44 47 52 60 55 60 58 55 52 53
63 63 63 62 62 62 61 61 61 61 60 59 58 58 58 57 57 55 54 53 50 33 25 37 43 42 43 48 51 53 51 58 54 47 48 50 51 49 57 58 60 59 57 55 55 52 45
62 62 62 62 62 61 61 61 60 60 60 59 58 58 57 61 54 56 54 47 33 28 39 35 36 40 42 42 46 46 45 43 37 36 35 40 40 50 60 49 52 58 52 37 37 38 44
59 62 62 62 62 61 61 61 60 60 59 58 57 57 57 58 61 55 50 39 29 36 35 41 41 40 37 45 45 44 44 41 44 43 41 34 35 46 57 54 45 50 54 48 38 41 47
56 61 61 61 61 61 61 60 60 59 58 58 56 55 53 56 59 54 42 32 35 38 40 37 42 36 39 44 45 42 45 43 44 44 39 35 35 49 54 55 55 44 43 58 48 48 48
55 57 61 61 61 61 60 60 59 59 58 57 53 51 52 58 57 49 37 35 38 44 42 47 39 44 39 42 38 41 44 50 46 50 53 47 36 47 49 54 50 52 58 43 50 40 39
55 57 59 61 61 60 59 59 59 58 58 56 53 45 55 57 53 43 34 36 41 48 48 47 45 43 45 43 39 43 45 50 52 53 54 53 51 40 51 45 45 50 44 49 53 50 47
55 56 58 61 60 59 58 58 59 58 56 55 51 43 53 54 41 41 37 40 45 46 50 52 53 50 48 47 40 38 46 49 58 56 48 54 55 40 43 52 58 57 53 53 47 43 49
55 55 57 59 59 58 58 58 58 58 56 52 50 48 53 52 38 38 44 43 45 46 49 51 50 53 53 48 39 43 48 56 57 54 53 57 52 42 41 47 50 49 54 56 57 53 48
55 54 55 57 59 58 57 57 57 57 57 54 50 43 47 48 48 44 42 42 43 52 53 55 53 55 50 47 51 46 49 54 56 56 54 56 53 52 45 49 54 48 51 55 54 48 50
54 54 55 55 59 58 57 57 57 57 56 53 49 48 50 41 42 43 44 45 42 44 51 51 51 52 52 45 45 47 51 50 55 55 55 55 49 53 52 53 55 53 51 51 51 54 50
54 54 55 56 57 58 57 56 56 56 55 50 49 48 50 51 49 46 43 43 42 45 46 44 44 52 54 50 50 47 49 51 49 53 54 57 49 50 48 49 53 50 53 53 54 55 56
53 53 54 55 55 58 57 56 56 56 54 48 52 51 51 51 49 46 43 45 44 46 46 47 51 52 51 53 60 59 59 59 58 53 52 52 51 49 45 48 49 44 51 52 54 57 57
53 53 54 54 55 57 56 56 55 55 54 52 54 53 49 48 50 47 47 46 44 46 45 46 52 54 55 57 60 61 58 56 58 55 60 52 50 48 42 45 35 53 53 59 56 59 60
53 52 53 54 55 57 56 56 55 56 54 51 51 52 49 47 52 48 45 43 44 44 44 48 47 49 58 55 53 47 46 44 46 47 50 57 45 41 41 38 49 50 49 51 51 54 57
53 52 52 52 53 55 56 56 55 56 55 51 49 53 50 47 51 49 46 45 42 42 45 45 48 52 51 51 51 39 37 42 37 40 47 47 46 42 37 38 40 50 52 56 57 50 55
52 52 51 52 53 54 56 55 55 55 54 51 50 53 51 47 51 50 50 46 45 42 43 47 45 48 48 46 43 41 43 49 41 40 38 41 44 39 43 41 49 53 55 56 47 50 53
51 52 51 51 52 53 55 55 55 55 54 51 50 52 52 49 50 49 50 48 46 47 44 48 49 47 42 43 45 42 43 46 46 49 47 45 43 43 42 37 35 52 51 50 53 53 54
51 52 50 51 52 52 55 55 55 55 54 53 48 52 52 49 49 50 51 52 50 52 46 42 48 49 46 42 45 44 43 43 47 43 46 45 52 49 50 49 48 50 52 52 57 54 53

GFSGBSN_sfc_temp_009.txt.gz
Temp
67 67 67 67 67 66 66 65 64 64 64 64 64 64 64 64 64 63 63 63 63 63 64 64 64 63 63 54 58 73 69 71 75 71 66 66 64 63 58 65 65 64 70 74 75 75 74
67 67 66 66 66 66 66 65 64 64 64 64 64 64 64 63 63 63 63 63 63 63 63 63 63 63 60 48 74 76 74 73 71 71 65 67 66 69 65 63 64 69 70 71 74 73 74
66 66 66 66 66 66 65 65 64 64 64 64 64 63 63 63 63 63 63 63 63 63 63 63 63 64 57 57 73 75 73 71 73 71 67 69 71 67 67 59 69 68 62 68 70 72 71
66 66 66 66 66 65 65 64 64 64 64 63 63 63 63 63 63 62 63 63 62 62 63 62 63 62 49 71 74 70 71 69 72 72 70 72 71 66 60 64 60 61 60 52 66 70 72
65 65 66 65 66 66 65 64 63 63 63 63 63 63 63 62 62 62 62 61 61 61 62 62 61 58 50 67 62 70 71 65 69 69 70 71 66 58 58 48 48 54 50 53 60 72 70
65 65 65 65 65 65 65 65 64 63 63 63 62 62 62 62 62 61 61 60 61 60 61 62 62 51 58 55 64 66 70 67 63 63 61 60 55 49 50 46 39 49 49 56 55 67 68
64 65 64 64 65 65 65 65 64 64 63 62 62 61 61 61 61 61 58 54 50 46 50 47 51 54 58 65 67 61 67 62 62 58 47 54 44 41 49 54 52 57 54 57 62 68 67
64 64 64 64 64 64 64 64 63 63 62 62 61 61 61 61 61 61 57 49 53 55 43 52 56 56 61 62 53 58 66 54 52 46 51 46 39 52 57 54 52 54 55 58 63 66 64
63 64 64 64 64 64 64 64 63 63 62 62 61 60 60 60 60 59 54 53 56 56 42 44 50 51 55 56 52 55 60 56 52 46 47 42 46 55 55 47 49 53 51 56 56 63 64
62 63 63 64 64 63 63 62 62 62 61 61 60 60 60 59 55 60 53 58 55 54 33 39 42 46 50 50 43 59 63 57 51 46 48 45 50 48 52 46 48 47 57 61 58 56 50
58 59 63 63 63 63 63 62 62 61 60 60 60 59 59 59 61 53 52 54 53 49 26 46 42 56 52 43 53 53 64 57 47 47 41 39 44 44 47 48 51 50 61 61 58 57 53
57 57 59 62 62 62 62 62 61 61 60 59 59 59 58 58 59 60 55 54 50 33 27 38 43 40 42 43 49 55 55 60 57 48 43 45 53 50 50 53 52 57 57 55 57 54 44
56 56 57 60 62 61 61 61 61 61 60 59 58 58 57 64 56 58 53 48 32 29 41 35 36 40 40 39 44 48 46 43 38 32 33 39 38 45 51 43 47 52 47 39 38 40 44
55 54 55 56 60 62 62 61 61 61 60 59 58 57 57 61 61 56 50 38 29 40 37 40 39 38 35 40 44 47 43 40 45 41 35 34 32 40 47 46 43 46 48 46 37 40 47
55 55 55 55 56 61 61 61 60 60 59 58 57 54 53 56 59 54 43 31 35 40 40 38 39 35 35 38 47 45 44 43 47 43 35 35 36 47 47 54 54 45 46 58 52 56 52
55 55 54 55 57 60 61 60 60 59 58 56 53 49 51 62 59 49 38 35 38 45 41 41 39 44 38 40 43 43 42 48 48 49 45 39 34 41 46 52 49 51 61 48 54 42 42
55 54 54 55 56 59 60 60 60 59 58 56 51 45 60 59 54 43 33 36 41 47 45 42 46 45 47 45 45 43 45 52 53 52 46 42 37 36 43 45 43 44 48 53 58 54 48
55 55 55 55 55 54 59 59 59 59 57 53 50 42 54 55 40 41 36 38 44 44 46 49 54 52 51 50 46 45 46 51 59 54 40 47 40 34 42 53 58 54 51 56 51 46 53
55 54 54 54 55 55 58 58 58 58 56 52 47 51 52 51 37 37 43 40 43 42 45 50 51 55 56 51 44 47 49 58 58 55 48 54 45 35 38 47 50 46 55 58 58 58 52
54 54 54 54 55 55 56 58 57 57 57 52 50 42 44 46 48 43 39 40 40 48 49 53 53 57 53 51 54 47 49 56 58 57 54 57 52 49 46 50 51 45 50 56 55 50 52
54 54 53 53 54 55 56 57 57 57 56 51 49 46 50 39 41 43 44 44 40 41 49 53 50 54 51 47 49 48 51 54 57 57 57 55 50 55 57 58 56 54 52 52 52 55 52
54 54 53 53 54 54 55 56 56 56 56 48 47 51 51 48 48 46 43 41 40 43 49 46 45 54 56 52 52 48 53 54 51 55 54 55 48 54 51 54 57 54 56 56 55 57 57
53 53 53 52 53 54 54 56 56 56 54 48 51 57 54 53 53 48 47 44 44 46 47 54 50 52 54 57 62 63 63 61 60 55 52 50 49 50 46 52 52 46 55 56 57 59 59
53 53 53 52 52 53 53 56 56 56 55 53 53 56 51 47 54 53 49 47 44 45 44 49 48 46 60 65 66 64 59 53 58 59 60 51 51 51 44 49 36 55 59 62 59 60 63
53 53 53 52 52 53 53 55 56 56 55 51 51 51 53 48 55 55 50 47 43 45 44 44 48 53 61 61 52 44 43 42 45 46 55 55 50 45 41 42 50 56 54 56 56 56 64
52 53 53 52 52 52 52 54 56 56 55 52 50 52 54 49 54 55 51 47 41 41 40 43 50 58 58 50 48 39 35 38 37 39 45 51 52 45 42 39 38 52 56 61 63 50 66
52 52 52 52 51 52 52 52 55 55 55 52 50 53 51 49 57 55 52 47 45 45 46 47 50 51 50 43 44 45 43 50 38 37 35 38 40 37 37 38 50 57 58 61 47 52 58
52 52 52 52 51 52 52 52 55 55 55 52 50 52 54 52 55 53 54 48 43 44 49 46 50 50 45 44 46 46 48 51 50 49 42 40 37 37 38 37 37 59 55 52 55 58 60
52 51 52 51 51 52 52 52 55 55 54 54 48 52 57 51 51 54 55 54 50 49 46 52 47 50 51 43 49 48 46 50 52 44 53 45 54 51 52 50 53 58 55 57 60 58 59

GFSGBSN_sfc_temp_012.txt.gz
Temp
67 67 66 67 67 66 66 66 65 64 64 64 64 64 64 64 64 64 63 63 63 64 64 64 64 64 62 54 57 70 70 71 71 69 63 63 60 59 54 61 63 60 65 69 71 71 71
67 66 66 66 66 66 66 66 65 64 64 64 64 64 64 64 63 63 63 63 63 64 63 63 64 63 57 47 72 74 71 71 71 69 64 63 62 65 60 59 58 64 65 65 69 70 70
66 66 66 66 66 66 66 66 65 64 64 64 64 64 63 63 63 63 63 63 63 63 63 63 63 62 55 54 73 74 73 70 71 69 64 66 65 60 63 57 65 64 56 63 64 68 68
66 65 66 66 66 65 65 65 64 64 64 64 64 63 63 63 63 63 63 63 63 62 62 63 63 61 49 69 71 70 71 68 70 71 68 69 68 62 58 61 57 54 56 46 61 66 67
65 65 65 65 65 65 65 65 64 64 64 64 64 63 63 63 62 62 62 62 62 62 61 62 59 56 49 68 61 68 69 63 67 68 68 70 64 56 56 49 44 49 43 46 52 65 64
63 65 65 64 65 65 65 65 64 64 64 63 63 62 62 62 62 61 61 60 60 59 60 63 61 50 56 55 63 65 68 67 62 62 59 58 54 47 48 44 35 41 43 49 49 59 62
62 62 64 64 64 64 65 65 64 64 64 62 62 62 61 61 61 61 59 57 50 47 51 48 51 53 58 64 67 62 66 62 60 56 45 53 43 39 44 47 48 50 49 48 55 62 59
61 61 62 63 64 64 64 64 64 64 63 62 62 61 61 61 61 60 59 50 53 52 43 51 54 55 61 62 53 58 65 53 50 43 48 45 38 48 52 51 48 48 45 46 56 61 60
60 61 60 61 63 63 64 64 64 63 63 62 61 60 60 60 60 58 55 54 59 57 42 45 50 51 55 58 51 54 59 54 48 43 44 39 44 51 50 48 46 46 45 46 48 58 57
60 60 60 58 58 62 62 63 63 63 62 61 61 60 60 59 54 58 53 61 59 55 35 38 42 48 53 50 43 59 62 55 49 43 45 44 50 48 46 45 48 42 53 51 49 46 43
58 59 59 57 57 57 62 62 62 62 61 60 60 60 59 59 57 54 54 55 54 50 25 42 42 55 52 44 48 49 59 52 45 45 46 39 43 44 43 43 50 44 53 49 50 46 43
58 58 58 57 56 56 57 62 62 62 61 60 59 59 59 56 56 56 56 55 51 33 25 38 42 41 41 43 44 49 50 54 54 46 47 43 51 48 46 49 48 53 47 46 48 47 38
57 57 57 57 55 54 56 60 61 61 61 60 59 58 57 60 52 57 55 48 32 28 43 36 37 41 41 39 39 41 41 41 38 32 33 38 39 46 45 42 48 48 42 35 33 35 35
56 57 57 57 54 54 56 58 62 61 60 59 58 58 56 58 56 55 52 39 28 41 38 41 39 39 36 39 39 39 38 37 44 40 35 31 30 39 43 41 42 43 41 33 30 32 39
56 56 56 56 53 53 56 59 61 60 59 58 57 55 52 54 56 54 44 30 35 41 41 38 38 34 34 38 39 37 39 38 43 45 32 33 32 43 48 48 48 41 34 43 40 49 42
55 56 55 56 54 53 55 57 61 59 58 57 51 50 50 56 54 49 39 34 40 45 42 40 35 39 35 36 35 38 39 46 45 49 47 36 32 43 44 49 48 45 50 38 41 37 32
55 55 55 54 54 53 55 56 59 58 58 57 49 45 53 55 52 43 34 36 42 47 44 39 39 41 43 40 40 41 42 48 50 49 43 38 34 36 42 42 41 41 41 45 47 46 38
56 55 54 54 53 53 55 55 56 59 57 55 48 41 54 54 41 41 36 41 43 43 46 43 43 41 46 47 42 41 41 46 55 50 39 40 37 33 36 45 51 49 45 50 44 40 42
56 55 53 53 53 54 54 55 56 59 56 51 45 46 52 51 36 37 41 41 41 41 44 42 44 51 53 49 42 46 46 55 51 47 42 40 35 32 33 41 45 44 47 51 49 48 41
55 55 53 53 53 53 53 54 57 58 58 53 46 41 45 45 46 42 39 39 38 45 43 46 49 52 50 48 51 45 47 53 54 51 51 49 43 35 34 41 44 41 47 50 47 40 42
54 55 54 53 53 52 53 54 55 57 57 51 46 44 46 37 39 41 43 41 39 38 45 48 48 49 49 44 47 47 48 52 54 54 50 43 40 42 48 49 49 48 47 48 47 48 41
54 54 54 54 53 52 53 53 53 57 56 49 43 44 47 46 46 43 41 40 40 40 43 44 44 50 49 47 49 45 49 49 48 52 50 51 41 46 47 51 51 47 50 50 50 50 49
54 54 54 54 53 53 52 53 53 56 54 48 49 52 49 48 47 42 43 43 43 44 44 47 49 48 48 53 58 59 57 57 56 51 48 46 44 43 38 47 47 41 48 50 50 52 52
54 54 54 53 53 52 52 52 52 56 56 52 51 50 45 41 48 48 51 50 46 45 43 48 51 48 53 61 61 58 54 51 50 52 54 45 43 44 37 40 29 45 51 54 53 54 55
53 54 54 53 53 52 52 52 53 55 56 51 51 48 45 42 49 50 52 49 44 44 44 45 49 51 53 53 48 43 41 43 43 45 46 53 47 40 36 35 44 47 48 48 49 49 56
53 53 53 53 53 52 52 52 53 54 56 52 50 51 46 43 46 52 49 49 43 40 40 42 47 49 49 48 44 36 35 37 36 39 46 49 46 41 34 32 30 43 50 55 54 41 52
53 53 53 52 53 52 52 52 52 53 55 52 50 53 48 43 50 50 46 46 47 42 40 42 43 44 47 43 41 37 39 43 36 36 36 39 40 37 37 34 39 50 52 54 40 42 51
52 53 53 52 52 52 52 51 52 54 55 52 49 52 49 45 49 51 52 47 44 43 41 44 43 45 43 40 41 41 41 44 40 42 40 40 37 36 37 34 33 54 50 44 48 49 52
52 52 52 52 52 51 52 52 52 53 55 54 48 52 51 46 48 53 53 53 50 47 45 46 45 48 48 43 43 43 41 44 43 37 46 39 43 42 42 41 50 50 48 51 53 51 51

GFSGBSN_sfc_temp_015.txt.gz
Temp
67 67 66 66 66 66 66 66 66 65 65 65 65 64 64 64 64 63 63 63 63 64 64 63 63 64 59 51 51 66 71 71 68 66 61 58 54 52 48 52 54 53 58 63 66 66 66
66 66 66 66 66 66 66 66 66 65 65 65 64 64 64 64 63 63 63 63 63 63 63 63 63 62 54 43 65 68 67 67 68 64 59 59 56 58 53 52 53 56 58 61 65 65 65
65 64 66 66 66 65 65 65 65 65 65 65 65 64 63 63 63 63 63 63 63 63 63 63 63 60 52 50 66 66 68 65 66 65 62 63 61 57 56 51 58 58 51 57 58 62 62
64 64 64 66 65 65 65 64 64 65 65 65 64 63 63 63 63 63 63 63 62 62 62 62 63 56 46 65 65 65 65 64 65 65 64 65 66 59 55 56 52 48 52 43 54 58 62
63 64 64 62 65 65 65 64 64 64 64 64 64 63 63 62 62 62 62 62 62 61 62 62 55 51 45 66 58 63 63 61 62 63 63 68 60 54 52 46 42 42 39 41 47 58 59
62 63 62 62 62 64 65 64 64 64 64 64 63 63 62 62 62 61 61 61 60 59 60 61 60 48 53 52 60 62 63 63 58 57 56 54 49 42 41 42 34 38 40 43 42 52 56
61 61 62 62 62 63 63 64 64 64 64 63 63 62 61 61 61 61 57 52 48 46 51 46 48 50 58 60 64 59 62 58 58 51 43 48 39 37 40 44 44 43 41 42 47 55 53
60 60 61 61 61 60 60 63 63 63 63 63 62 61 61 61 61 60 55 49 48 50 43 51 52 53 59 62 52 56 62 51 49 41 43 40 37 44 47 46 44 42 39 39 46 53 52
59 60 60 60 60 60 59 61 62 63 63 62 62 60 60 60 60 55 51 53 54 56 41 47 50 49 52 56 50 52 57 52 45 40 40 36 42 49 46 44 41 41 38 39 42 49 52
59 59 59 60 59 60 58 57 59 62 62 62 61 60 60 59 53 52 49 57 55 55 35 40 42 48 52 52 45 58 60 53 47 39 42 39 47 45 43 41 43 36 47 46 45 43 38
58 58 58 59 59 59 58 56 57 58 61 61 61 60 59 59 52 49 52 54 55 50 23 41 43 55 52 45 47 48 59 53 43 43 42 37 41 40 39 42 46 40 49 47 46 42 42
57 57 57 57 58 58 58 55 56 57 60 61 60 59 58 56 54 54 54 54 49 34 22 37 43 41 41 44 46 49 50 53 50 42 43 41 48 45 44 48 48 47 44 43 43 42 33
57 57 56 57 56 57 57 56 55 56 59 60 59 58 57 59 48 55 54 47 32 27 42 35 37 41 41 40 41 42 40 39 36 31 32 37 38 43 46 40 44 42 36 30 29 30 31
57 56 56 56 55 56 55 55 54 55 59 60 58 58 57 58 55 54 50 39 25 37 36 42 41 41 36 41 40 40 37 34 40 36 32 28 23 37 43 41 38 37 37 31 24 28 36
56 56 55 56 55 56 56 55 53 54 58 58 57 55 52 53 55 54 43 30 29 38 42 38 38 34 35 38 38 37 36 35 39 38 29 28 29 44 45 46 45 38 33 43 35 38 33
56 56 56 55 54 53 53 53 53 54 58 57 53 50 49 55 55 49 38 33 36 45 43 41 34 37 33 36 34 35 34 40 40 45 45 37 29 42 43 45 45 42 47 33 33 30 29
56 56 57 55 52 53 53 53 54 55 58 57 50 45 51 55 52 43 33 36 41 47 45 39 37 36 36 34 34 33 36 43 45 45 46 41 34 34 35 37 36 38 38 41 39 37 34
56 56 56 55 53 53 53 53 54 55 56 54 48 41 51 52 41 40 36 41 46 43 46 43 41 40 38 40 35 35 36 44 50 47 41 40 36 31 35 43 48 46 42 43 34 33 38
56 56 56 55 53 52 53 54 55 55 56 51 45 45 51 51 35 36 41 42 44 42 42 41 40 43 45 44 36 40 42 51 47 45 39 40 34 29 32 39 44 42 45 47 45 40 39
55 55 55 55 53 52 53 53 54 54 56 52 46 40 45 46 45 40 39 39 39 44 42 44 44 46 43 41 45 42 43 49 50 48 47 42 37 34 32 37 44 40 43 44 40 36 39
54 55 55 55 54 53 53 53 53 53 57 51 45 42 45 37 39 42 43 41 39 37 42 44 42 42 42 39 43 41 46 48 49 49 45 40 34 36 37 40 44 45 43 40 37 45 42
54 55 55 55 54 53 53 52 52 53 57 49 42 43 46 42 44 40 41 40 40 40 41 42 40 47 45 41 43 41 45 45 45 45 40 42 35 39 40 46 46 43 44 47 48 49 49
54 54 54 55 54 53 52 51 52 53 55 48 48 50 49 45 43 40 40 41 42 45 44 45 45 45 43 46 50 48 53 52 53 47 44 43 41 39 37 45 44 39 45 46 47 48 49
54 54 54 54 54 53 53 52 52 52 52 51 50 49 44 40 43 43 44 44 43 45 43 46 45 42 49 54 53 52 51 47 50 51 50 41 40 43 35 38 29 45 49 51 49 50 50
54 54 54 54 54 53 53 53 52 52 53 51 50 49 45 40 45 45 44 44 43 45 45 45 48 47 50 49 45 41 40 41 40 43 48 48 43 39 34 32 40 43 46 46 46 46 51
53 53 54 53 53 53 53 53 52 52 53 51 50 51 47 42 43 50 45 42 40 41 40 43 45 48 49 46 41 35 32 37 36 38 44 47 44 40 29 28 29 42 48 50 49 39 48
52 53 53 53 53 53 53 52 52 52 53 52 49 53 48 42 48 48 42 40 45 42 40 40 42 44 47 42 39 36 35 39 36 37 37 40 40 33 34 32 36 47 49 50 38 41 47
52 52 53 53 53 52 53 52 52 52 53 52 49 52 49 44 48 51 49 43 43 43 39 41 42 43 42 39 39 40 37 38 36 38 41 39 37 36 37 34 31 49 47 44 46 46 46
52 52 52 52 52 52 53 53 52 52 53 53 47 52 52 46 46 52 53 51 51 49 46 43 43 45 46 42 40 42 40 40 37 36 43 38 42 39 40 41 48 48 46 49 50 48 44

GFSGBSN_sfc_temp_018.txt.gz
Temp
65 65 64 65 66 66 66 66 65 66 66 66 65 65 64 64 64 63 63 63 63 63 63 63 63 63 58 48 50 65 71 71 67 65 59 56 51 50 46 49 51 48 52 58 61 61 62
65 65 65 65 63 66 66 66 65 65 66 66 65 64 64 64 64 63 63 63 63 63 63 63 63 62 53 42 62 65 65 64 65 62 57 57 54 55 50 49 48 52 54 55 59 60 61
63 64 64 64 64 63 65 65 65 65 65 66 65 64 63 63 63 63 63 63 63 63 63 63 63 60 50 48 63 62 64 62 64 63 58 59 58 53 53 49 54 53 47 51 54 56 56
62 62 62 63 63 63 62 64 64 64 65 65 65 64 63 63 63 63 63 63 62 62 62 62 63 55 44 62 63 61 62 60 63 64 62 63 64 56 55 56 50 45 44 39 51 55 57
61 61 61 61 62 62 62 62 63 64 64 65 64 64 63 62 62 62 62 62 61 61 62 62 54 49 43 64 56 61 61 58 60 60 61 67 61 53 51 46 41 40 33 38 44 55 55
62 61 60 61 61 62 62 61 61 63 63 64 64 63 63 62 61 61 61 61 61 59 59 61 59 47 51 51 58 60 61 61 56 55 54 53 50 41 41 42 34 38 35 38 39 48 52
60 60 60 60 60 60 61 60 61 61 63 63 63 62 62 61 61 60 58 52 46 45 49 46 49 48 54 58 61 57 60 57 54 48 39 45 38 36 39 42 42 40 38 37 42 50 47
59 59 59 59 60 60 61 61 60 59 61 62 62 62 62 61 61 60 53 46 48 50 41 50 51 52 57 59 51 55 60 48 46 39 42 41 36 44 45 44 42 40 37 37 43 49 49
60 60 58 58 58 59 59 60 60 59 59 61 62 62 61 60 60 55 50 50 54 52 40 46 49 49 51 55 49 51 55 50 43 40 42 38 41 47 44 41 39 38 36 37 37 45 48
59 59 59 58 58 58 58 59 59 59 57 58 61 61 61 59 53 50 50 54 53 55 34 38 42 49 51 53 45 58 59 53 46 39 41 40 45 43 42 40 40 34 44 43 41 38 32
58 59 58 57 57 57 57 58 58 59 56 57 60 61 59 59 49 48 52 53 53 51 14 41 43 55 52 47 48 48 60 53 41 40 40 36 38 39 37 40 44 38 46 43 42 38 35
58 58 57 56 57 55 56 57 56 57 55 56 57 60 58 56 53 54 54 54 50 28 17 36 43 41 41 44 46 49 49 54 49 42 43 41 48 44 43 46 46 45 42 41 39 39 29
57 57 57 56 56 56 55 56 54 56 55 55 57 59 57 58 50 55 54 48 29 17 40 35 37 40 41 40 42 43 41 39 36 32 30 36 37 43 46 41 45 43 36 26 23 24 25
57 57 57 57 57 56 55 54 54 55 55 54 55 57 57 57 55 55 50 39 21 34 34 43 41 41 36 41 39 41 38 35 40 36 33 30 27 36 44 42 38 38 37 27 18 18 26
57 57 56 57 57 55 53 52 55 56 55 53 53 54 52 53 55 53 43 31 30 35 40 39 39 34 34 38 39 38 37 36 41 39 31 29 29 42 43 46 46 35 32 41 32 33 31
56 56 56 57 57 54 52 53 54 55 54 55 52 51 50 55 55 49 38 33 36 43 42 42 34 36 33 36 35 35 35 39 40 41 41 35 25 39 41 44 44 39 43 30 29 23 21
56 55 56 56 56 55 53 53 53 54 54 54 49 46 51 55 53 43 33 35 41 45 45 40 37 36 37 33 35 34 34 40 41 40 41 38 33 33 37 34 36 36 33 37 36 33 30
56 56 56 56 56 55 53 54 53 54 53 52 49 37 51 52 40 39 35 41 46 43 45 43 42 40 38 37 33 31 33 40 46 45 35 41 35 28 33 44 45 41 38 38 31 30 35
55 55 56 55 55 55 53 53 53 53 54 50 46 44 51 51 34 35 41 42 44 42 43 41 40 42 43 38 34 36 39 49 48 46 42 42 34 28 30 35 39 36 39 42 42 37 34
54 55 55 55 55 55 54 52 52 53 54 51 45 39 43 45 45 40 39 39 39 46 44 44 42 44 41 38 41 39 41 47 48 48 47 43 36 32 29 34 39 35 38 42 41 35 36
54 55 55 55 55 55 54 52 53 53 53 50 46 41 44 36 39 42 42 42 39 38 43 44 39 40 40 35 38 37 43 45 47 47 44 39 32 34 36 37 38 42 41 42 40 40 35
53 54 55 55 55 54 54 53 52 53 53 49 43 42 45 42 44 42 41 39 40 42 42 39 38 43 41 37 40 37 43 44 41 43 41 40 32 35 36 41 39 40 44 44 43 39 37
53 54 54 55 54 54 53 53 52 52 51 48 47 47 47 43 42 39 39 41 41 45 44 46 44 42 40 42 47 47 49 50 48 43 39 38 35 34 34 41 41 37 42 43 43 42 39
53 53 54 54 54 54 53 53 52 53 51 48 50 46 44 39 41 41 44 43 41 43 42 45 45 42 48 49 49 47 47 46 48 46 48 40 38 41 35 38 29 44 50 48 44 44 46
53 53 54 54 54 54 53 53 52 52 53 50 49 47 43 40 44 44 44 43 43 43 43 45 47 49 49 48 41 40 38 40 38 43 47 47 43 34 31 30 38 43 46 45 44 45 50
53 53 53 53 54 53 53 53 53 52 52 50 48 50 46 43 43 49 45 45 40 40 41 43 46 47 47 46 42 35 33 35 35 39 41 42 43 37 28 27 29 41 45 48 48 38 46
53 52 53 53 53 53 53 53 53 52 52 51 48 52 48 43 48 49 44 43 42 40 40 41 42 43 47 42 39 35 35 38 34 34 37 38 37 32 32 33 35 45 47 47 36 40 45
52 52 52 53 53 53 53 53 53 52 52 50 49 52 49 44 47 50 50 45 43 43 40 42 41 42 42 39 39 39 38 36 35 36 36 38 36 36 36 30 27 46 47 41 45 43 42
52 52 52 52 52 52 52 53 53 52 52 52 47 51 52 47 46 50 52 52 52 50 46 43 43 44 46 42 41 41 39 37 37 35 39 36 41 37 38 38 45 44 44 46 47 45 41

GFSGBSN_sfc_temp_021.txt.gz
Temp
64 63 64 64 65 65 63 64 65 65 66 66 65 65 64 64 64 64 63 63 63 63 63 63 63 63 57 48 49 63 70 68 67 64 58 55 50 48 44 46 48 45 49 55 57 58 58
62 62 62 63 63 63 64 63 63 65 65 66 65 64 64 64 64 63 63 63 63 63 62 62 63 62 52 41 61 63 63 63 63 60 56 56 52 53 48 47 46 49 50 51 55 55 57
62 62 62 62 62 62 63 63 61 62 64 65 65 65 63 63 63 63 63 63 63 63 62 63 63 59 49 48 61 61 64 59 61 60 56 57 57 53 53 47 52 50 44 48 50 53 53
62 62 61 61 61 61 61 62 61 60 62 64 64 64 63 63 63 63 63 63 62 62 62 62 62 54 44 61 60 60 60 59 61 61 60 61 61 54 53 55 50 43 41 36 47 52 54
61 61 60 60 60 60 61 61 62 61 61 62 63 64 64 63 62 62 62 62 61 61 61 62 53 48 43 63 55 59 60 57 58 59 59 66 60 52 53 45 43 43 35 36 42 53 52
61 61 61 60 59 59 60 60 61 61 61 60 62 63 63 62 61 61 61 61 60 59 58 60 59 47 50 50 56 58 58 59 54 54 53 53 51 44 44 42 33 34 32 34 37 45 48
60 61 60 60 59 59 59 60 60 61 61 61 59 61 62 61 61 60 58 53 48 46 48 46 49 48 53 57 60 56 59 56 53 48 39 44 39 36 41 39 39 37 37 37 40 47 43
60 60 59 60 60 58 59 59 59 59 60 60 57 59 62 62 61 60 54 48 47 50 41 49 50 51 56 58 50 54 59 48 45 38 40 38 33 41 43 41 40 38 37 37 41 46 44
59 59 59 59 59 59 58 58 58 59 59 59 58 57 60 61 60 56 52 50 53 51 39 45 48 48 49 54 49 50 54 48 41 37 37 35 39 46 43 39 37 36 34 37 37 42 44
59 59 59 59 58 57 57 55 56 58 58 57 58 56 58 61 53 53 50 53 53 53 26 37 41 47 50 52 44 56 58 52 45 39 40 39 46 42 40 37 39 33 41 41 39 35 29
58 58 58 58 57 57 57 55 56 57 56 56 56 56 57 58 51 48 51 52 52 48 14 40 43 55 52 46 48 46 57 53 43 40 39 36 36 38 37 39 42 38 44 40 39 35 32
58 57 57 57 57 58 57 56 55 56 56 55 55 55 55 53 52 53 54 54 51 29 16 36 42 41 42 45 46 48 48 54 50 43 43 39 44 42 40 44 44 45 40 38 39 35 27
57 57 56 57 57 56 57 55 54 54 55 54 55 55 53 57 49 54 55 49 31 20 38 35 37 40 39 39 41 43 40 40 37 32 31 36 37 42 43 39 44 42 36 27 25 25 24
57 56 56 56 56 56 56 54 53 53 55 56 55 54 54 56 54 56 52 38 18 33 32 42 39 39 34 39 40 41 39 35 41 37 33 29 26 37 42 39 36 36 35 27 20 19 23
56 55 56 56 56 57 55 54 53 54 55 55 54 51 51 52 55 55 44 30 28 34 39 38 41 35 35 40 40 38 37 37 40 39 31 29 27 39 41 44 42 35 31 39 31 32 27
55 55 55 56 57 56 56 54 53 53 53 53 47 47 49 54 56 50 39 31 34 42 42 41 32 37 34 36 35 35 35 37 38 41 44 37 24 36 39 44 42 37 42 30 30 21 19
55 55 55 56 56 56 56 54 53 53 53 52 46 41 50 55 54 43 33 35 38 44 44 39 36 36 38 35 36 34 34 38 40 39 43 40 34 29 36 34 33 35 33 34 34 29 22
55 55 55 55 55 55 55 55 53 53 53 51 45 35 50 53 40 39 35 38 45 41 44 42 42 42 38 38 35 32 31 37 43 40 36 40 34 28 32 41 44 41 37 36 28 24 29
54 54 54 55 55 55 55 54 53 53 54 47 42 43 50 50 32 34 40 41 42 41 42 42 40 42 44 39 34 34 36 45 45 41 36 40 33 26 30 34 38 34 38 40 38 35 29
54 54 54 54 55 55 55 54 54 54 54 48 43 34 43 45 44 40 38 39 38 45 43 44 42 44 41 38 40 35 37 46 46 46 49 45 35 31 27 31 35 31 35 37 36 29 32
54 54 54 54 55 55 54 54 54 53 53 50 43 39 41 35 38 41 42 42 39 38 44 45 40 40 39 36 37 34 39 43 45 48 45 39 31 33 34 35 35 35 37 37 33 36 32
53 54 54 54 55 55 54 53 53 52 52 48 42 41 44 41 42 41 41 38 40 41 41 38 38 41 41 38 39 34 39 40 41 43 41 40 30 33 32 37 36 34 36 37 38 40 40
53 54 54 54 54 55 54 53 53 52 51 44 48 48 44 43 41 40 40 41 41 45 45 47 42 40 41 43 45 46 43 45 48 43 39 36 34 34 32 38 36 32 39 39 41 43 43
53 53 53 54 54 54 53 53 53 52 52 47 48 46 43 38 41 42 43 44 41 43 41 44 46 42 48 50 47 45 43 43 43 44 45 38 36 36 33 35 29 40 47 48 45 46 45
53 53 53 53 54 54 53 53 53 53 53 48 49 46 43 40 44 43 43 43 43 43 42 43 47 49 50 46 39 37 35 36 38 41 41 44 41 35 32 31 38 42 42 43 41 40 46
53 53 53 53 53 53 53 53 53 53 52 49 49 47 46 42 42 49 44 44 40 39 41 43 46 47 46 44 39 34 30 35 35 34 40 40 42 38 34 29 29 39 44 48 49 37 49
53 53 53 52 53 53 53 53 53 52 52 49 49 50 46 41 46 46 41 41 45 41 38 40 43 42 46 40 37 35 32 37 34 35 35 34 38 35 34 33 33 42 44 48 34 39 44
53 52 52 52 52 52 53 52 53 52 52 49 48 51 49 44 47 50 50 43 44 43 40 42 41 42 42 38 38 38 36 38 32 34 35 37 37 35 36 29 26 44 44 39 43 41 41
53 52 52 52 52 52 52 52 53 53 51 51 47 51 52 47 46 50 52 52 52 51 46 43 43 43 45 41 40 39 39 37 34 30 36 34 39 35 37 36 44 43 42 44 45 43 39

GFSGBSN_sfc_temp_024.txt.gz
Temp
63 63 63 62 62 62 62 63 63 62 62 65 65 65 65 65 64 64 64 63 63 63 63 62 62 62 56 47 49 61 68 66 64 63 60 55 49 48 43 44 46 44 47 52 54 54 54
63 62 61 61 61 61 61 62 62 63 62 61 64 64 64 63 64 63 63 63 63 63 62 62 62 61 51 40 59 61 61 61 62 62 59 55 52 51 46 45 44 47 48 49 52 53 53
62 62 62 62 60 60 61 61 61 62 62 61 61 64 64 63 63 63 63 63 63 62 62 62 62 58 48 48 59 59 62 57 59 60 55 55 56 51 50 44 50 48 42 46 48 50 50
62 61 61 61 61 61 59 60 60 60 62 62 60 61 63 63 63 63 63 63 62 62 62 62 62 53 43 60 58 59 58 57 59 59 59 59 58 52 51 51 50 45 46 36 45 48 51
61 61 61 61 61 61 60 59 59 60 60 61 61 59 61 63 62 62 62 62 61 61 61 61 52 48 42 62 54 57 59 56 56 56 58 65 58 48 48 41 40 44 35 38 41 49 49
61 61 61 60 60 60 60 59 59 59 60 60 60 60 58 61 62 61 61 61 61 59 57 59 58 45 49 49 55 57 57 59 53 53 52 51 50 44 42 38 29 33 36 39 40 43 44
60 61 60 59 60 60 60 59 59 59 58 59 60 59 57 59 62 61 59 53 47 46 49 44 47 47 52 56 58 54 57 55 52 48 39 43 39 36 40 39 38 35 38 37 43 49 44
60 60 59 59 59 59 59 58 58 57 58 58 59 58 58 57 60 60 55 49 51 49 40 48 49 50 55 56 48 52 57 47 44 37 40 37 33 41 43 44 42 40 36 36 42 46 42
59 59 59 58 58 59 58 58 58 56 57 57 57 57 57 55 58 56 53 51 53 52 39 43 47 47 48 53 47 48 53 47 40 36 36 33 38 44 42 38 38 38 34 33 34 40 43
59 59 59 58 58 58 58 58 56 56 56 56 56 57 57 56 53 54 50 53 54 52 25 35 41 45 49 52 45 56 56 49 43 36 37 37 43 41 38 36 37 31 39 39 37 33 28
59 58 58 57 58 57 57 56 56 57 56 55 55 56 56 55 51 49 51 53 53 46 13 39 42 55 52 45 47 45 55 52 42 41 40 36 36 36 36 38 40 36 42 38 37 33 32
57 57 57 56 56 57 57 56 56 56 55 55 55 55 55 52 52 54 55 55 49 25 16 36 42 41 42 45 47 48 49 53 49 43 43 41 43 42 39 43 43 44 39 38 37 35 26
57 56 56 56 56 56 56 57 57 55 53 54 53 54 54 53 48 55 56 48 29 20 37 34 37 41 41 40 42 44 41 39 37 32 31 37 38 43 44 37 41 41 34 26 24 25 23
57 56 56 56 56 56 56 57 56 53 53 54 55 55 53 53 54 55 51 35 21 32 31 41 39 39 35 39 40 41 39 35 42 38 33 27 25 37 42 39 35 36 35 27 21 18 21
56 56 55 55 56 56 57 57 55 53 53 54 54 49 49 52 53 55 45 29 28 33 39 38 38 31 33 39 40 39 38 35 42 41 32 30 28 38 43 42 43 34 31 38 30 31 27
56 55 55 55 55 56 56 56 55 53 53 53 47 46 47 54 54 49 38 31 34 41 42 40 31 36 32 36 35 36 36 36 39 44 40 33 28 35 38 42 42 38 40 29 30 22 21
55 55 55 55 55 55 56 56 55 55 53 53 46 40 49 54 52 43 33 32 37 43 44 38 35 34 36 36 37 35 33 38 39 38 41 40 33 29 36 34 33 35 33 34 33 30 21
55 54 55 54 55 55 56 54 55 55 53 50 44 34 50 52 37 39 36 38 44 40 43 41 41 40 37 38 36 35 32 36 41 40 35 41 34 28 31 41 44 40 36 35 27 22 27
54 54 54 54 54 54 55 54 55 54 53 47 41 41 51 50 32 34 39 39 41 40 41 41 39 42 44 38 33 36 35 43 42 40 37 40 32 26 28 34 39 33 36 39 38 33 25
54 54 54 54 54 54 55 54 54 54 53 48 41 34 42 44 43 39 37 39 36 44 44 45 43 44 39 37 39 35 34 42 43 42 46 45 35 31 26 31 33 31 33 35 34 28 30
54 54 54 54 54 55 55 54 54 53 53 49 43 36 40 33 37 41 41 39 37 37 42 45 41 41 38 36 35 35 36 39 43 45 44 40 31 33 34 36 33 33 33 34 32 34 28
53 54 54 54 54 54 54 54 54 53 53 47 41 41 43 39 42 41 40 37 38 40 41 40 38 42 41 37 39 35 36 37 39 42 41 41 31 34 31 37 35 32 36 35 35 36 36
53 53 54 54 53 54 54 53 53 53 52 44 46 48 45 42 41 38 39 39 42 44 44 46 43 41 39 42 45 47 43 42 41 42 40 37 33 33 30 35 35 31 35 36 36 40 39
53 53 54 54 53 54 54 53 53 53 52 47 47 46 42 37 40 41 42 43 41 44 42 44 46 42 47 50 49 46 41 41 41 42 46 38 35 34 31 35 29 38 46 44 40 42 43
53 53 54 53 53 53 53 53 53 53 53 47 48 46 44 37 44 44 42 42 43 43 42 43 45 47 50 46 40 35 36 35 37 40 42 44 39 34 32 31 36 42 42 43 39 39 45
53 53 53 53 53 53 53 53 53 53 52 48 48 49 45 41 40 48 42 43 40 40 40 43 45 47 47 43 39 32 30 32 34 34 37 40 40 36 33 29 28 39 43 48 48 36 47
53 53 53 53 53 52 52 53 53 53 52 49 47 50 46 40 44 48 42 41 45 42 39 40 42 42 45 39 36 31 34 35 33 31 34 35 36 34 34 32 34 41 42 47 34 38 44
52 53 53 52 52 52 52 52 53 53 52 48 47 50 47 44 46 48 49 43 43 42 38 39 41 41 40 37 37 37 35 34 31 33 33 33 33 34 36 31 26 43 43 36 42 41 41
52 52 52 52 52 52 52 52 52 53 52 51 46 51 51 47 45 49 51 52 50 50 45 42 43 43 44 41 39 41 39 37 33 30 35 33 38 35 36 35 43 43 45 46 44 42 39

GFSGBSN_sfc_temp_027.txt.gz
Temp
63 63 62 63 63 62 61 61 61 61 62 63 63 62 64 65 64 64 64 64 63 63 63 62 62 62 58 49 49 63 68 66 66 65 60 57 53 51 48 48 50 48 50 54 56 55 55
63 62 62 62 62 62 62 62 61 61 61 62 63 62 61 63 64 63 64 63 63 63 63 62 62 61 52 41 60 61 62 62 62 62 60 59 55 54 50 49 49 51 50 51 53 54 55
62 62 62 62 61 61 61 61 60 60 60 61 62 61 60 61 63 63 64 63 63 63 62 62 62 58 49 48 60 60 62 59 61 64 57 58 59 55 52 47 53 51 46 49 50 52 52
62 62 62 62 61 61 61 61 61 60 60 60 61 61 61 59 61 63 63 63 62 62 62 62 62 54 44 60 59 59 60 59 61 62 60 59 58 55 53 54 51 46 46 40 49 52 52
61 61 61 61 60 60 60 60 60 60 60 60 60 60 60 59 59 62 62 62 62 61 62 61 53 49 42 61 54 58 60 57 58 59 60 64 58 51 50 44 41 43 36 38 44 52 51
61 60 61 60 60 60 60 60 60 59 59 58 59 59 60 59 58 60 61 61 61 59 58 59 57 45 49 49 55 56 58 59 55 54 53 53 50 43 44 40 31 35 36 40 40 48 47
60 60 61 60 59 59 59 60 60 59 59 57 58 58 58 59 57 58 59 53 47 46 50 44 46 46 51 56 59 54 57 55 53 49 40 46 41 36 40 41 42 39 37 38 43 49 44
59 60 60 60 59 59 59 59 59 59 58 57 57 57 57 58 57 57 56 48 49 51 40 48 48 49 54 56 49 52 57 48 46 39 42 40 35 44 48 45 43 41 38 38 44 47 44
60 60 60 59 58 58 58 58 57 57 56 56 57 57 56 57 56 54 52 52 53 55 40 43 46 47 48 53 47 48 53 47 42 37 38 35 40 44 42 40 39 38 36 38 39 42 44
59 58 58 58 58 57 57 58 57 56 56 57 57 57 56 56 51 53 50 53 53 55 26 36 41 45 48 52 44 55 55 49 43 38 38 37 44 41 38 37 39 33 41 40 38 35 30
58 59 58 57 57 57 57 57 57 57 57 56 56 55 56 56 47 47 51 53 53 49 13 39 41 55 51 45 47 46 55 52 41 40 39 36 38 36 37 39 40 37 42 39 38 34 33
59 58 57 57 56 56 56 57 57 58 56 54 54 55 55 51 50 52 53 53 50 30 14 36 42 41 41 45 47 48 49 53 50 44 43 39 44 42 40 43 43 45 39 39 38 35 27
57 57 57 56 56 56 56 57 57 57 56 53 54 54 53 53 45 54 53 47 29 19 36 33 37 41 42 39 42 44 41 39 36 32 31 38 39 44 45 39 42 41 34 27 25 25 25
56 56 56 56 56 56 56 57 57 57 55 53 54 54 53 53 54 50 49 36 21 32 32 42 40 40 36 40 41 42 39 36 42 39 33 31 26 39 43 40 36 36 35 28 21 22 26
56 56 56 55 55 55 56 56 57 56 54 53 54 50 49 51 52 48 41 29 28 33 38 38 39 34 34 38 38 40 38 37 42 42 32 30 29 39 41 42 43 34 30 39 31 32 27
56 56 55 55 55 55 56 56 56 55 53 53 47 45 43 51 51 45 34 33 33 40 41 40 32 35 31 34 34 35 35 38 39 45 45 36 26 35 38 43 43 38 41 29 30 22 22
55 55 55 55 54 54 55 56 55 55 53 53 45 40 47 52 49 40 32 33 37 43 44 39 35 34 35 35 35 35 33 38 40 38 42 37 32 31 36 33 35 35 33 34 33 31 25
55 55 55 55 54 54 54 55 55 55 54 50 43 35 49 52 35 35 35 38 43 39 43 41 41 39 36 36 34 36 33 36 41 39 36 40 34 26 30 41 43 41 37 35 28 27 30
55 55 54 55 54 54 55 55 55 54 53 46 40 41 49 47 32 34 39 38 41 40 40 40 39 42 42 37 32 35 35 42 41 40 36 39 32 25 28 34 40 33 36 36 34 33 28
55 54 54 54 54 53 55 55 54 53 53 48 40 35 40 43 42 38 36 36 37 43 41 44 42 44 40 38 41 35 35 41 42 42 46 45 35 31 28 32 35 31 34 35 32 28 31
54 54 54 54 54 54 54 54 54 52 53 49 42 36 39 33 36 40 41 40 35 36 41 44 40 42 40 36 37 36 37 38 40 43 43 40 31 34 35 36 35 33 33 33 31 33 29
54 54 54 54 54 54 54 54 54 52 53 46 41 40 41 39 41 41 40 35 37 38 39 39 37 41 42 37 38 33 36 36 37 38 38 42 32 34 32 37 37 32 36 35 34 35 36
54 54 54 54 54 54 54 53 54 53 52 44 45 47 44 41 40 40 37 37 38 42 42 45 43 42 40 43 45 45 46 45 44 39 39 38 34 33 30 38 36 32 36 35 36 38 38
54 54 54 54 54 53 53 53 53 53 52 46 46 44 42 37 39 40 41 41 41 42 40 44 46 42 47 49 49 47 44 43 40 40 43 38 35 34 30 35 29 40 45 44 39 41 42
54 54 54 54 54 53 53 53 53 53 53 46 47 46 44 38 42 41 42 42 42 44 43 44 46 48 50 47 39 36 36 36 35 38 38 41 39 34 31 31 37 41 41 41 38 38 45
54 54 54 54 53 53 53 53 53 53 53 48 47 49 45 39 40 46 40 43 39 38 40 43 46 47 48 43 38 32 25 32 31 32 37 41 42 36 33 30 27 39 43 47 47 37 47
54 53 53 53 53 53 53 53 53 53 53 48 46 50 46 41 42 44 40 40 45 43 40 41 42 42 45 39 35 33 31 35 30 30 33 35 36 32 33 33 34 42 43 46 36 40 45
53 53 53 53 53 53 52 52 52 53 52 48 45 49 47 42 42 48 48 42 41 42 39 41 41 41 40 36 36 35 31 34 31 33 33 32 31 34 34 31 27 43 42 38 43 43 43
53 52 52 52 52 52 52 52 53 52 53 51 43 49 51 44 43 47 50 50 51 51 45 43 42 43 43 39 39 39 38 35 32 30 35 32 37 35 37 36 43 43 44 45 44 42 42

GFSGBSN_sfc_temp_030.txt.gz
Temp
63 63 63 63 63 62 62 62 61 61 61 61 62 62 62 62 62 64 64 64 64 64 63 62 62 62 62 56 59 69 67 69 71 69 65 62 61 60 56 58 59 57 61 62 64 63 63
63 63 62 62 62 62 62 62 62 62 61 61 61 61 62 61 61 61 63 64 64 64 63 62 62 62 59 50 67 69 69 69 69 66 65 65 62 62 58 57 57 59 58 60 61 62 63
62 62 62 62 62 61 61 61 61 61 62 61 61 61 61 61 61 60 62 63 64 63 63 63 62 63 55 57 68 68 68 67 67 69 60 65 64 59 60 55 60 58 53 58 60 61 60
62 62 62 62 62 61 61 61 60 61 61 60 61 60 60 60 60 59 60 62 63 62 62 63 62 61 52 64 68 65 67 66 68 69 67 68 66 60 60 60 56 52 53 49 58 58 60
62 61 61 61 61 60 60 60 60 60 61 60 60 59 59 60 60 59 58 61 62 62 62 62 59 56 51 64 59 65 67 63 65 67 68 67 64 55 57 52 49 51 47 47 52 61 59
61 61 61 61 61 59 59 59 59 60 60 60 59 58 57 58 59 58 57 61 62 61 60 61 61 50 55 54 60 61 66 66 61 61 59 58 57 52 53 49 43 46 45 49 48 55 55
61 61 60 60 60 60 60 60 59 59 59 58 58 57 57 58 58 58 55 55 47 46 52 51 52 51 54 60 63 58 64 62 61 57 49 53 46 43 49 51 53 47 46 45 49 55 52
60 60 60 60 60 59 59 58 59 58 58 57 57 57 58 58 57 58 53 48 52 57 44 53 54 55 57 59 51 55 63 55 53 47 51 46 40 52 52 51 48 46 43 45 50 54 51
60 60 60 59 58 58 58 59 58 58 58 57 57 57 58 57 56 54 50 50 60 63 49 47 52 52 54 56 51 52 58 55 51 46 47 45 46 50 48 47 44 43 39 41 43 51 52
59 60 59 59 58 58 57 57 58 58 58 58 56 56 57 56 51 51 49 56 53 58 37 40 44 50 54 56 49 60 61 56 49 46 46 46 52 46 45 43 46 41 49 46 44 41 35
59 59 58 57 57 56 57 57 57 57 58 58 56 54 55 55 49 48 49 54 51 50 27 43 43 57 55 50 51 49 61 55 46 45 45 42 43 43 40 43 47 42 48 45 44 40 38
58 58 58 57 56 56 56 56 57 57 57 57 54 53 54 51 50 53 54 51 48 33 27 37 44 42 42 48 49 50 50 56 54 47 47 47 51 48 48 49 49 49 44 43 44 39 29
57 57 57 56 56 56 56 56 57 57 57 55 54 54 53 54 48 56 54 45 31 30 42 35 38 42 43 41 44 46 43 40 40 33 34 43 44 48 48 42 46 43 35 31 28 27 31
56 56 56 56 56 56 56 56 57 57 56 53 54 55 55 55 57 53 48 36 28 37 38 44 43 43 38 43 43 43 40 37 47 44 37 35 34 44 47 44 42 39 39 33 26 31 36
56 56 55 55 56 56 55 56 56 56 55 53 52 51 51 54 54 50 40 30 33 40 43 39 41 36 36 41 42 41 41 41 46 45 34 35 33 45 48 49 46 36 32 44 32 37 30
56 55 55 55 56 55 55 55 56 56 55 53 46 47 48 54 55 45 35 33 38 46 46 46 36 40 34 37 39 40 41 46 45 50 49 42 32 43 45 47 47 41 46 31 31 24 25
55 55 55 55 55 55 54 55 56 56 55 53 45 40 49 55 51 39 33 34 41 48 49 44 40 38 41 39 42 40 41 44 48 47 50 45 38 37 40 37 39 37 33 34 38 35 28
56 56 55 55 55 54 54 55 55 55 54 50 43 34 48 52 36 37 36 41 46 45 48 46 47 45 43 43 40 41 40 43 49 48 42 46 38 31 35 48 50 49 42 39 29 29 32
55 55 55 55 54 55 55 55 55 54 53 46 39 41 48 49 34 35 39 42 45 45 45 45 43 47 47 43 38 43 43 47 48 46 44 46 35 29 34 40 45 38 42 43 38 36 30
55 55 55 55 54 55 54 54 54 54 54 49 42 34 40 43 44 39 38 39 40 47 46 48 45 48 45 42 44 39 41 45 48 48 48 48 40 34 33 36 40 33 38 37 33 29 34
55 54 55 55 55 55 54 54 54 54 53 49 44 37 41 34 38 41 44 42 40 40 46 48 44 45 44 38 38 37 43 44 45 47 47 45 31 36 37 40 38 36 36 36 32 34 30
55 55 55 55 55 55 54 54 54 54 53 47 40 41 43 43 44 44 44 43 43 41 44 42 43 45 45 40 41 40 42 43 44 46 45 45 33 36 32 40 41 35 38 38 37 36 35
55 55 55 55 55 54 54 53 54 54 52 44 46 46 45 43 41 42 43 44 44 47 46 49 47 45 43 45 48 48 49 47 46 45 42 42 35 33 30 40 39 35 38 38 38 40 40
55 55 55 55 54 54 54 53 53 53 52 46 46 44 43 37 41 44 46 46 45 47 44 47 49 46 50 53 52 48 46 46 45 45 48 41 36 35 31 36 29 40 46 43 42 42 44
54 55 54 54 54 54 53 53 53 53 54 47 46 44 45 40 46 46 46 46 47 47 45 46 48 50 52 49 41 37 41 39 43 44 46 47 40 34 30 32 39 43 44 40 38 40 48
54 54 54 54 53 53 53 53 53 53 53 48 46 49 46 46 44 51 47 47 43 43 42 45 48 50 49 43 39 33 35 39 39 39 43 43 43 36 35 30 31 43 45 49 50 40 50
53 53 53 53 53 53 52 52 52 53 53 48 46 49 46 46 51 51 47 46 50 46 43 43 44 43 47 40 35 34 35 43 38 38 35 36 36 32 32 32 42 51 51 51 41 44 51
53 53 53 53 52 52 52 52 52 53 52 48 45 48 45 45 50 53 53 49 48 49 41 45 43 43 41 36 36 36 38 44 41 44 40 39 37 35 36 33 33 53 52 46 51 53 51
52 52 52 52 52 52 52 52 52 52 52 51 43 49 49 45 50 52 55 55 56 56 49 48 47 45 46 40 40 40 40 43 42 40 45 39 47 46 46 48 54 54 54 56 53 51 50

GFSGBSN_sfc_temp_033.txt.gz
Temp
63 63 63 63 63 63 62 62 62 62 62 62 62 62 62 62 62 62 62 63 64 64 64 63 63 63 63 59 62 73 68 70 73 70 66 67 65 65 60 64 66 61 64 69 69 69 68
63 63 63 62 62 62 62 62 61 61 62 62 62 61 61 61 61 61 61 62 63 64 63 63 63 62 61 51 72 73 73 72 74 71 64 66 64 69 63 63 61 65 65 65 67 66 67
62 63 62 62 62 62 61 61 61 61 61 61 62 60 61 60 60 61 61 61 62 63 63 63 63 64 58 59 72 72 71 72 73 71 64 67 67 63 63 58 64 62 56 61 63 65 63
62 62 62 61 62 61 60 60 60 60 60 61 61 60 60 59 59 60 60 61 60 61 63 63 63 64 54 68 73 68 71 70 72 74 71 71 69 63 60 63 60 55 58 51 64 64 66
62 62 62 61 61 61 61 60 60 60 60 60 60 60 59 59 58 59 59 59 59 60 63 63 61 60 55 65 62 69 71 66 68 70 70 70 65 57 59 53 50 54 50 54 58 65 62
62 61 61 61 60 60 61 60 59 60 59 58 59 58 58 58 58 58 58 58 59 59 60 63 63 53 59 57 63 67 71 70 64 63 62 61 59 50 49 47 45 51 51 54 54 61 59
61 61 61 60 60 60 60 58 59 59 59 58 58 57 57 57 57 57 56 52 50 48 51 51 53 55 58 63 67 62 68 65 63 60 51 56 49 46 54 57 58 56 51 51 57 61 56
60 60 60 60 60 59 58 58 58 58 58 58 57 57 57 57 57 58 54 45 48 52 42 56 58 58 62 64 54 59 68 57 53 47 53 47 42 55 58 56 53 52 49 49 55 58 55
60 60 59 59 59 58 58 57 57 58 57 57 58 58 56 56 56 56 52 49 54 52 45 50 57 56 56 60 55 54 61 59 52 49 48 46 51 54 53 50 48 49 46 46 45 52 55
59 59 59 58 57 57 57 57 57 57 56 58 58 57 54 55 51 56 52 53 54 50 35 40 46 53 56 58 50 63 63 59 53 48 49 48 56 50 49 47 50 44 54 50 47 44 41
59 59 57 57 57 57 57 57 57 56 58 57 56 56 55 53 50 50 54 53 51 47 28 45 46 62 58 53 54 53 64 57 49 51 50 45 47 47 44 47 52 45 51 48 47 44 40
58 57 57 56 56 56 56 56 56 57 57 56 56 54 54 50 50 56 57 51 48 31 28 38 44 44 45 51 51 53 53 58 58 50 50 51 55 51 50 52 52 51 47 45 45 40 30
58 56 56 56 56 56 56 56 56 57 56 56 54 54 54 53 50 60 55 45 31 28 45 35 39 43 44 43 45 46 44 43 42 34 34 44 46 50 53 46 49 47 39 34 30 28 31
58 56 56 56 56 56 56 56 56 57 56 55 53 54 55 57 60 58 48 35 28 37 40 47 43 44 38 43 44 46 43 38 47 46 40 34 35 47 49 46 44 42 41 34 29 34 39
57 57 56 56 56 56 56 55 56 56 56 55 53 52 50 55 58 55 41 30 33 43 45 42 42 37 38 44 44 44 44 42 47 47 38 38 36 50 51 52 49 41 33 46 35 39 33
57 56 56 56 56 56 55 56 56 56 56 54 46 46 47 55 57 47 37 35 36 49 49 48 38 42 35 39 41 42 40 49 46 52 54 45 34 47 49 51 50 45 49 32 32 25 28
56 56 56 56 55 55 56 56 55 56 54 54 44 42 48 55 54 40 34 36 42 51 52 47 44 41 41 40 43 41 42 48 53 51 53 47 42 39 43 40 42 40 36 38 40 37 31
56 56 56 56 55 55 55 55 55 55 54 51 43 34 49 57 38 39 36 39 48 48 51 49 52 49 45 46 45 45 45 48 54 53 44 49 41 33 38 50 52 50 41 41 31 33 34
56 56 56 55 55 55 55 55 55 55 54 48 40 40 51 49 35 36 40 42 47 46 48 48 47 50 51 48 42 47 48 51 53 50 47 48 37 31 34 43 49 42 45 46 41 37 30
56 56 56 56 55 55 55 54 54 54 55 51 42 33 41 44 45 42 39 39 40 49 50 51 50 52 49 46 49 45 44 48 51 51 48 51 42 35 34 37 42 33 40 42 35 30 35
55 56 55 55 55 55 54 54 54 54 54 52 47 39 44 36 43 42 44 42 42 43 50 52 48 50 48 42 43 42 46 47 49 50 49 47 32 38 40 42 40 38 39 40 33 34 30
55 55 56 55 55 55 54 54 54 54 54 49 40 41 45 45 48 46 44 40 44 45 48 46 47 49 49 45 45 42 44 45 46 48 46 46 35 37 33 43 44 40 45 42 39 38 37
55 55 55 55 55 54 54 53 53 54 52 44 46 47 44 45 46 47 45 47 47 50 49 52 51 49 46 48 50 50 52 52 51 44 43 41 36 35 32 42 42 38 38 38 39 41 39
55 55 55 55 54 54 54 53 53 53 52 47 46 44 42 40 46 48 49 50 48 49 47 50 52 49 51 58 55 52 48 47 46 45 45 41 39 37 32 39 31 46 53 48 41 43 44
54 54 54 54 54 54 53 53 53 53 53 48 47 44 44 44 48 48 50 50 51 51 49 49 50 51 55 51 45 40 41 40 44 45 44 46 42 36 32 34 41 48 51 46 40 39 49
54 54 54 53 53 53 53 52 53 53 53 48 46 48 45 44 49 55 51 52 48 48 46 48 52 53 51 45 40 33 35 43 40 37 46 46 46 37 37 29 31 46 51 53 52 39 53
53 53 53 53 52 52 52 52 52 53 53 48 45 48 44 45 56 57 50 49 53 50 47 47 46 45 49 41 36 34 36 47 40 41 35 36 36 32 33 32 42 56 55 55 42 45 54
53 53 53 52 52 52 52 52 52 52 52 48 45 49 43 43 54 56 57 53 53 52 46 47 45 44 41 37 36 38 39 45 44 49 44 41 37 34 35 32 32 58 57 47 54 56 56
53 53 52 52 52 52 52 52 52 52 52 51 42 48 48 42 50 57 57 59 60 59 54 51 49 49 48 40 41 40 38 46 46 41 51 42 50 45 46 46 60 61 56 59 58 54 54

GFSGBSN_sfc_temp_036.txt.gz
Temp
63 63 63 63 63 63 63 63 62 62 62 62 62 62 62 62 62 62 61 62 63 63 64 64 63 63 61 55 59 69 70 70 70 67 64 63 61 60 55 59 62 58 62 66 67 66 65
63 63 63 63 63 63 63 62 61 61 61 62 62 62 61 61 61 61 61 61 62 62 62 63 63 63 58 49 72 74 73 72 70 68 63 64 64 65 61 61 59 62 62 62 64 64 64
62 63 62 63 62 62 62 62 61 60 61 61 61 61 61 60 60 60 60 61 61 62 62 63 63 62 57 56 72 72 72 70 73 71 62 66 66 61 62 56 62 60 52 57 59 60 59
63 62 62 62 62 62 61 61 60 59 59 60 60 60 60 60 60 59 59 60 60 60 60 62 63 60 51 69 71 68 71 69 72 72 70 67 66 62 59 61 58 53 53 44 58 60 62
62 62 62 62 61 61 61 60 59 58 59 59 59 59 59 59 58 59 58 59 60 60 60 61 58 56 51 64 61 68 70 65 68 69 68 70 65 56 57 49 47 51 41 46 52 60 59
62 61 61 62 60 61 60 59 59 59 59 59 58 58 58 58 58 58 57 58 59 59 59 60 62 50 58 55 63 67 70 69 63 63 59 57 54 50 50 47 37 42 43 46 48 56 55
61 61 61 60 60 59 59 59 58 58 58 58 57 57 57 58 57 56 55 53 49 47 51 48 50 55 57 64 66 62 67 64 62 57 49 54 46 41 45 49 51 51 48 46 51 58 52
60 60 60 59 58 58 59 58 58 58 58 58 57 57 58 57 56 56 54 46 47 48 43 53 56 59 62 62 53 59 67 55 53 45 52 47 40 52 56 55 51 49 44 44 50 56 51
59 59 59 58 58 58 58 58 57 58 57 57 57 58 57 56 54 53 51 50 53 49 42 46 55 56 56 60 53 53 61 57 50 47 46 44 48 55 52 50 46 45 41 42 43 48 49
59 59 58 58 58 57 57 57 57 57 57 57 58 56 56 55 48 52 49 55 52 49 33 39 45 53 56 58 51 62 63 58 51 44 48 46 54 51 47 46 48 40 50 49 46 40 32
59 59 57 57 57 57 57 57 57 57 57 57 56 57 56 56 46 45 52 54 51 47 24 41 45 62 57 52 52 53 62 58 49 49 49 42 46 45 43 46 50 43 50 46 45 38 37
58 58 57 57 57 57 56 56 56 57 57 57 56 56 55 51 50 52 56 53 46 30 24 36 43 45 46 51 51 53 53 58 57 51 51 48 55 49 47 51 50 50 45 44 42 39 26
58 58 57 57 57 57 56 56 56 57 57 56 56 55 53 55 46 55 54 44 29 25 38 34 38 44 45 44 45 47 44 42 39 33 34 43 44 50 51 44 49 47 39 24 23 25 22
58 57 57 57 57 57 57 56 57 57 56 56 55 54 55 56 57 55 48 36 26 34 35 46 43 43 40 44 43 44 41 38 46 43 37 32 32 44 49 45 41 41 39 25 21 22 28
57 56 56 57 57 56 57 57 57 56 56 55 54 51 50 52 55 53 41 28 30 36 44 40 42 36 37 43 43 42 40 40 45 46 36 35 36 49 49 50 48 39 32 40 29 32 22
57 56 56 56 57 56 56 56 56 56 55 54 47 47 46 53 56 48 37 34 34 43 48 46 36 41 34 38 39 40 39 47 45 50 50 43 34 45 48 51 49 43 46 31 29 18 19
56 56 57 57 56 56 56 56 56 55 54 54 46 41 47 55 53 40 32 36 40 45 51 44 42 41 42 39 42 40 41 48 50 49 51 46 40 36 41 38 37 38 35 37 36 32 23
56 57 56 56 56 56 56 55 55 55 55 52 43 34 49 53 35 37 36 40 44 43 53 51 51 47 44 44 42 42 41 47 53 51 44 47 40 27 33 46 47 46 39 37 27 25 30
56 57 56 56 56 55 55 55 55 55 55 49 41 41 50 47 33 36 38 40 43 45 48 49 48 51 50 45 39 46 46 50 51 49 46 47 34 24 28 38 44 37 42 43 39 35 28
56 56 56 56 55 55 55 54 54 55 55 51 43 34 42 44 44 39 37 40 40 49 50 52 50 52 49 45 49 44 42 47 49 50 50 49 40 30 24 31 38 31 37 40 37 29 31
56 56 56 56 55 55 55 54 54 54 54 52 47 39 43 35 40 41 42 43 41 43 50 52 49 50 48 42 42 42 45 44 48 47 46 43 31 33 36 39 37 35 36 38 33 35 30
56 56 56 55 55 55 54 54 54 54 54 49 40 40 45 44 47 45 42 39 43 46 47 46 45 48 49 44 42 41 44 45 42 46 44 44 31 33 29 39 39 35 40 41 42 39 38
55 55 55 55 55 54 54 53 53 54 52 44 45 47 43 45 46 45 44 44 47 48 48 51 50 48 46 46 48 48 49 50 49 44 42 40 33 33 25 38 38 34 40 41 39 42 40
55 55 55 54 54 53 53 53 53 53 52 46 46 44 41 40 44 45 49 50 48 49 45 49 51 47 50 55 52 49 47 46 45 44 45 38 37 36 28 34 25 42 48 47 43 45 45
55 54 54 54 53 53 53 53 53 53 53 46 47 44 42 40 47 48 49 49 49 49 48 48 49 51 52 48 44 38 39 38 41 42 43 42 38 33 28 31 36 44 47 44 40 40 47
54 54 54 53 53 53 52 52 53 53 53 47 46 47 44 41 45 53 49 50 46 45 45 46 50 51 49 43 39 33 31 40 35 36 44 42 41 36 32 28 26 39 47 50 48 37 47
53 54 54 53 53 52 52 52 52 53 52 48 45 48 43 41 50 54 47 47 50 48 42 45 45 44 48 40 36 32 33 43 35 34 34 35 36 32 32 30 35 48 49 50 35 37 48
53 53 53 53 52 52 52 52 52 52 52 48 44 48 42 41 47 54 56 51 50 48 43 44 42 43 41 38 36 36 36 41 38 42 38 35 33 33 33 30 27 50 48 42 46 47 48
52 53 53 52 52 52 52 52 52 52 52 51 41 47 48 41 46 56 55 57 55 54 50 47 46 46 45 40 39 39 37 40 40 35 46 36 43 40 38 37 50 52 49 51 49 46 45

GFSGBSN_sfc_temp_039.txt.gz
Temp
63 63 63 63 63 63 63 62 62 61 61 62 62 62 62 62 61 61 62 62 62 62 63 63 63 63 59 51 54 67 71 74 71 66 61 59 54 55 50 52 55 51 55 61 62 61 61
63 63 63 62 63 63 62 62 62 62 60 60 61 61 60 61 61 61 61 61 62 62 61 61 62 63 53 44 67 69 67 66 66 63 60 60 57 59 54 53 52 56 56 56 59 58 59
63 63 63 62 63 62 62 62 60 59 59 59 59 60 60 60 60 60 60 61 60 61 61 61 62 60 53 52 67 68 70 66 67 65 59 62 62 57 56 52 57 55 49 53 54 56 55
63 62 62 62 63 62 61 60 60 59 59 60 60 58 59 59 58 59 59 59 59 59 60 60 61 58 47 67 67 67 66 65 68 67 66 67 64 60 57 56 54 49 47 39 52 56 57
62 61 61 62 62 60 60 60 59 59 59 59 59 58 58 59 58 58 58 58 59 59 60 60 56 53 47 66 60 65 65 62 64 67 65 67 60 54 56 48 45 45 35 40 46 57 56
61 61 60 61 59 59 59 59 59 58 58 58 58 58 56 58 58 57 57 57 58 58 57 58 57 47 53 53 61 64 65 65 60 59 58 56 53 46 46 44 34 37 37 39 42 52 52
60 60 60 60 59 59 59 59 58 58 58 58 57 57 58 58 57 57 53 48 44 43 49 47 48 50 56 61 65 60 64 62 59 53 44 52 44 40 41 44 45 47 45 41 46 53 47
60 60 60 59 59 59 59 58 58 58 58 58 57 58 58 57 57 56 50 43 44 45 39 52 52 54 60 62 52 57 64 53 49 43 47 44 40 50 53 51 49 44 41 39 45 50 46
60 60 59 58 59 59 59 58 58 58 58 58 58 58 57 56 56 51 46 46 50 51 38 45 50 52 54 58 51 52 59 54 47 44 45 39 46 53 50 47 46 43 37 37 39 44 44
59 60 59 58 58 58 58 57 57 57 58 57 57 57 57 56 49 48 45 50 51 49 32 38 44 51 56 56 48 59 61 55 51 45 46 46 50 49 46 44 45 36 46 45 43 36 28
59 59 58 58 58 58 57 58 57 56 57 57 57 57 57 56 47 45 50 49 51 45 21 39 44 60 55 49 50 51 60 57 45 45 45 40 45 45 42 44 47 41 47 43 41 34 31
59 58 57 57 57 57 57 58 57 57 57 57 57 56 56 50 49 51 52 50 46 29 21 36 44 45 43 48 49 51 53 56 55 48 48 45 52 47 45 48 47 48 42 39 37 33 20
58 58 57 57 57 57 57 58 57 57 57 56 56 56 53 53 45 53 50 43 27 23 35 34 38 44 43 43 44 45 44 41 37 33 33 43 44 48 49 41 44 44 33 18 22 24 20
58 58 57 57 57 57 57 57 57 57 56 55 55 54 51 53 51 52 44 33 19 33 33 42 43 44 38 43 42 43 41 34 41 39 30 27 25 41 46 41 37 37 35 20 17 18 23
57 58 57 57 58 57 57 57 57 56 55 54 54 46 48 48 52 47 40 24 28 33 39 38 40 35 35 42 41 41 40 37 41 41 31 28 32 47 48 48 45 36 26 37 25 26 17
57 57 58 56 57 56 57 56 56 56 55 54 45 44 46 50 50 45 35 31 32 39 44 44 33 38 33 38 36 36 38 43 44 46 44 40 32 43 47 50 47 40 42 28 23 12 16
57 57 57 57 57 56 56 56 56 56 56 56 41 40 47 50 49 40 29 33 34 45 47 44 40 39 39 38 38 38 37 45 47 45 48 45 39 35 43 37 35 36 37 38 31 27 20
57 57 57 57 56 55 55 55 55 56 56 49 39 32 46 48 34 37 35 39 38 40 47 46 46 42 40 41 39 40 36 42 49 49 40 46 38 28 31 41 44 40 36 33 21 22 24
56 57 57 56 56 55 55 55 55 55 55 45 36 36 49 47 32 34 39 39 40 44 48 48 44 46 46 41 35 43 41 47 51 48 45 44 31 19 27 33 39 35 39 39 35 32 23
56 56 56 56 55 55 55 54 54 54 55 46 37 29 37 42 42 36 37 36 37 48 48 49 47 49 46 43 44 40 40 45 48 48 51 47 35 27 22 29 34 27 34 37 34 28 29
56 56 56 55 55 55 54 54 54 54 54 50 42 34 39 31 38 40 41 41 41 42 49 51 48 48 46 41 42 40 42 41 45 47 44 40 25 29 34 36 32 33 34 36 33 35 30
55 56 55 55 55 54 54 53 53 54 54 43 39 39 41 36 44 41 41 40 42 43 45 43 43 45 45 42 40 41 42 40 38 40 39 40 27 28 26 36 36 32 37 37 37 38 37
55 55 55 55 54 54 53 53 53 53 51 43 45 46 42 40 40 40 38 43 43 44 47 47 47 44 41 43 44 43 45 45 45 39 38 37 30 24 19 34 34 31 37 39 40 42 41
54 54 55 55 54 53 53 53 53 53 52 44 44 43 39 36 37 40 46 46 44 44 42 46 47 43 46 51 49 47 45 44 43 40 42 37 32 31 25 31 25 40 48 46 42 42 44
54 54 54 54 54 53 53 53 53 53 53 45 45 43 41 36 40 43 46 44 44 44 44 44 45 46 48 46 42 35 36 37 38 39 42 43 38 29 27 26 35 42 45 44 39 39 46
53 54 54 54 53 53 53 53 53 53 53 46 45 47 43 39 39 47 47 48 43 42 43 43 48 48 46 41 36 33 29 35 33 36 43 41 41 35 31 26 25 37 45 48 45 34 46
53 53 54 53 53 53 53 53 53 53 52 47 44 47 42 40 44 48 46 46 49 45 41 44 45 44 44 37 34 30 31 38 31 32 34 35 35 31 31 29 32 44 49 49 33 37 44
53 53 53 53 53 53 53 53 53 53 52 47 43 47 42 40 44 51 52 48 49 47 41 41 42 43 40 37 34 33 31 36 35 36 36 34 32 33 34 30 25 49 48 42 45 45 44
52 53 53 52 52 52 53 53 52 52 52 51 41 47 47 40 43 48 51 55 50 53 45 43 45 41 44 38 36 37 37 34 34 30 41 34 38 36 35 35 46 49 47 46 47 44 42

GFSGBSN_sfc_temp_042.txt.gz
Temp
63 64 64 64 63 63 63 63 63 61 61 61 60 60 60 61 60 61 61 62 62 62 62 62 62 62 58 49 52 68 71 72 71 65 61 57 53 52 49 51 52 47 51 57 59 59 57
63 63 63 62 63 63 63 61 61 61 61 61 60 60 59 60 60 59 60 61 62 62 61 62 62 61 53 43 65 68 66 68 67 62 59 58 55 56 52 51 50 53 55 55 56 56 56
63 63 62 62 62 62 60 60 60 60 60 60 60 59 59 58 59 59 59 60 60 60 60 61 61 59 51 51 66 66 67 62 63 63 58 60 59 55 55 50 57 54 49 50 53 54 53
62 62 62 61 61 60 60 59 59 59 59 59 59 59 59 59 58 58 59 59 59 59 59 60 61 55 47 64 65 63 65 63 65 65 63 65 63 57 54 54 52 48 46 40 50 53 55
62 62 61 62 61 60 60 60 60 59 59 58 58 58 58 57 58 58 58 58 58 59 59 60 54 52 46 65 59 63 64 61 63 63 63 65 61 54 53 45 40 42 35 38 44 54 53
61 61 61 61 59 60 61 60 59 60 59 58 58 57 57 58 58 57 57 57 57 57 55 58 55 46 52 52 60 63 63 63 59 58 56 55 52 47 48 44 34 36 35 37 40 49 49
61 61 61 60 59 60 60 60 59 59 58 58 58 58 58 58 58 57 52 46 42 42 45 46 48 48 52 59 63 59 62 59 58 52 44 50 44 40 45 48 46 44 43 43 43 50 45
60 60 61 60 59 59 59 59 58 58 58 58 58 58 58 57 57 56 50 41 42 45 37 51 50 51 58 60 51 56 63 52 48 43 48 44 41 46 49 48 46 43 42 40 44 48 45
60 60 60 59 59 59 58 58 58 57 57 57 58 57 57 57 56 50 47 44 49 49 37 45 48 49 54 58 50 50 58 53 47 43 42 42 46 52 50 47 45 44 36 36 38 43 42
59 60 59 58 59 58 58 58 58 58 57 58 57 57 57 57 50 49 45 49 50 51 31 39 42 49 55 55 47 58 60 54 48 42 45 42 49 48 47 45 43 38 44 43 40 36 28
59 59 59 58 58 58 58 58 58 58 58 57 57 57 57 56 47 44 49 50 50 45 13 40 42 57 55 49 49 51 60 56 44 46 46 40 43 43 41 43 47 39 45 41 39 32 29
59 59 58 57 58 58 57 57 58 58 57 56 56 56 56 51 47 50 51 49 44 28 17 36 43 43 44 47 48 50 53 56 55 48 48 43 50 46 45 47 46 47 41 37 35 30 19
58 59 58 57 58 58 57 57 58 57 57 55 54 55 53 52 45 53 51 44 24 21 33 33 37 43 42 41 43 46 44 40 38 34 33 42 42 46 48 40 44 41 32 20 17 15 20
58 58 58 58 58 57 57 57 57 57 56 55 55 54 51 52 52 49 44 32 20 30 33 41 42 42 37 43 42 44 41 36 41 38 33 29 25 41 45 41 37 37 34 21 17 18 22
58 58 58 58 57 57 57 57 57 56 56 55 53 48 47 47 50 47 37 22 26 31 37 40 40 36 36 40 41 41 40 36 40 39 31 26 29 44 46 46 43 35 27 36 24 23 16
57 57 58 57 57 56 56 56 56 56 56 55 43 44 45 51 50 45 34 31 32 35 43 44 33 36 32 36 36 38 39 42 41 44 42 38 27 42 45 48 47 39 41 25 19 12 15
57 57 57 57 56 56 56 56 56 56 56 54 40 40 45 50 49 39 30 33 35 41 43 41 36 36 37 37 37 38 38 42 45 42 44 41 34 34 43 36 34 37 33 32 29 25 19
57 57 57 56 56 55 55 55 55 55 55 48 37 31 46 50 34 37 33 36 36 39 45 43 44 42 39 40 36 36 35 38 46 45 39 45 34 21 34 39 42 38 34 32 19 19 21
57 57 56 56 55 55 55 54 54 55 55 47 35 38 47 47 33 31 39 38 39 42 43 44 42 43 43 39 34 38 39 46 47 47 41 42 29 19 26 33 37 33 36 36 33 31 18
56 56 56 56 55 54 54 54 54 54 55 44 35 27 39 42 42 37 34 36 38 45 43 47 43 46 43 39 41 38 37 44 48 49 50 46 33 27 23 26 30 25 33 35 34 27 24
56 56 56 55 55 54 54 53 53 54 54 48 39 33 37 32 39 40 40 40 40 40 46 47 45 45 43 38 39 37 40 41 46 48 45 39 26 28 31 35 31 31 33 33 27 34 25
55 55 55 55 55 54 53 53 53 54 53 43 38 38 42 39 44 38 39 38 40 42 42 41 40 43 43 39 38 37 39 38 38 40 38 38 24 27 26 35 34 30 34 35 36 37 37
54 54 55 55 54 54 53 53 53 53 51 41 44 46 42 39 38 35 36 40 42 43 45 45 44 42 40 42 43 43 44 44 42 38 36 35 28 25 21 32 31 27 34 36 37 38 40
54 54 54 54 54 54 53 53 53 53 51 44 43 43 39 34 36 38 42 43 42 42 40 44 45 42 45 48 47 47 45 42 42 39 41 33 32 28 21 28 20 40 46 46 40 42 43
54 54 54 54 54 53 53 53 53 53 53 44 45 42 40 36 36 41 43 42 42 43 42 42 44 44 46 45 38 34 34 38 37 39 42 43 38 29 22 23 33 42 45 42 38 39 44
53 53 54 54 53 53 53 53 53 53 53 46 44 46 42 39 36 43 44 43 39 41 41 41 46 47 46 40 37 33 31 35 33 36 42 42 41 32 26 25 26 39 44 45 44 34 44
53 53 53 53 53 53 53 53 53 53 53 47 44 47 41 39 44 42 40 41 45 43 40 43 45 42 43 37 32 29 30 36 31 33 34 35 35 30 30 26 32 43 46 47 33 38 43
52 53 53 53 53 53 53 53 53 53 52 47 43 47 41 40 42 47 48 46 45 45 41 41 42 41 39 34 32 32 31 34 32 35 34 34 32 31 32 29 25 49 44 42 44 44 43
52 52 52 52 52 52 52 52 52 52 52 51 40 46 47 39 42 46 49 52 52 52 46 41 42 40 43 36 34 36 37 35 32 29 38 35 35 35 35 35 45 46 48 50 47 43 41

GFSGBSN_sfc_temp_045.txt.gz
Temp
63 63 63 63 63 63 62 61 61 60 61 61 61 61 60 60 60 60 60 60 60 62 62 62 62 62 57 49 50 66 70 71 69 65 60 56 52 51 48 49 50 47 50 55 57 57 55
63 62 62 63 62 62 61 61 60 60 60 60 60 60 59 60 59 58 59 60 60 61 61 61 61 61 53 43 63 67 66 67 66 61 58 57 54 55 51 50 49 52 53 54 55 55 55
62 62 62 62 62 61 60 60 60 60 61 60 60 59 59 59 59 59 59 59 59 60 60 60 61 56 50 50 63 65 65 65 65 63 57 59 58 55 53 49 55 52 47 48 51 53 52
62 62 62 62 61 60 61 60 60 60 60 60 59 59 59 58 58 58 58 59 58 59 59 60 60 53 47 63 65 62 64 61 61 61 61 62 62 57 53 53 51 47 45 39 49 53 54
62 61 61 62 61 60 61 60 60 60 59 59 59 58 58 58 58 58 57 58 58 58 59 60 54 49 46 65 57 62 62 60 60 59 61 66 59 52 51 45 39 40 34 37 44 52 51
61 61 61 61 61 60 60 59 59 59 59 58 59 59 58 58 58 58 57 57 57 56 55 56 54 45 50 50 58 61 62 62 58 56 54 55 52 45 45 42 32 35 35 35 38 46 47
61 61 60 60 59 59 59 59 59 59 58 57 58 58 58 58 57 57 52 45 42 40 44 41 45 47 51 59 63 58 61 59 57 51 45 50 44 41 44 45 43 42 40 38 41 48 43
60 60 60 60 59 60 59 59 58 58 59 57 57 58 57 57 57 56 49 43 44 44 36 46 48 52 54 58 49 54 62 52 50 44 45 45 41 47 49 49 46 45 40 36 42 46 43
59 60 59 59 58 59 59 58 58 58 59 58 58 57 57 57 57 50 44 44 49 47 37 44 47 48 50 57 49 49 57 53 48 43 44 41 45 50 47 45 42 41 36 35 37 42 40
59 60 59 59 58 58 59 57 58 59 58 57 57 57 57 57 49 48 45 50 48 49 22 35 39 47 50 54 46 57 60 53 48 41 45 45 48 47 46 43 43 37 45 42 39 36 28
59 59 59 59 58 58 58 58 58 58 57 57 56 55 56 56 46 44 48 50 50 45 5 39 42 53 54 48 48 49 57 54 43 43 44 39 43 43 42 45 47 40 44 41 38 31 28
59 59 59 59 58 58 58 58 57 57 56 57 56 56 54 50 48 51 51 50 44 22 17 35 42 41 43 47 47 49 52 56 54 47 47 41 48 46 44 45 47 47 40 35 32 29 19
58 58 58 58 58 57 57 57 57 57 56 57 55 55 51 51 43 52 50 44 21 13 34 33 36 43 41 42 43 46 44 42 38 33 33 40 41 46 47 40 43 40 33 19 17 15 20
58 58 58 58 57 57 57 57 57 56 56 56 55 53 51 49 51 51 44 31 18 30 31 41 42 42 37 42 43 44 39 37 42 40 33 29 28 40 43 40 37 35 33 22 19 17 21
58 57 58 57 57 57 56 57 56 55 56 55 53 45 45 48 50 48 39 25 26 30 34 38 40 35 35 39 41 40 40 38 40 39 31 27 29 42 45 44 42 34 25 34 24 21 17
57 57 57 57 57 56 56 56 56 56 55 54 41 42 43 49 49 44 34 30 31 34 37 42 33 36 32 34 36 35 38 42 40 42 41 36 28 41 43 46 44 38 39 26 19 12 15
57 57 57 57 56 55 55 55 55 55 55 53 39 35 44 48 46 36 29 32 34 41 45 40 34 34 35 34 38 36 37 41 44 41 42 39 34 35 42 35 34 35 30 30 29 24 18
57 57 57 56 55 55 54 54 55 55 55 49 36 27 45 46 31 35 34 36 37 40 44 41 42 41 37 37 37 38 36 39 46 44 38 40 32 31 35 38 40 38 34 31 20 19 25
56 56 56 56 55 54 54 54 54 55 54 46 33 34 45 43 32 34 37 38 40 41 41 41 40 42 41 37 33 37 38 45 45 44 40 41 28 19 25 33 36 32 35 34 30 26 15
56 56 56 56 55 54 54 53 54 54 54 45 35 29 35 40 42 37 35 37 37 42 42 44 42 44 41 38 39 36 37 42 46 47 50 45 31 27 21 26 30 25 32 33 30 20 23
55 55 55 56 55 54 54 53 53 54 54 44 36 34 39 30 37 40 40 41 39 37 44 45 42 43 41 36 37 35 38 40 46 48 42 39 26 27 31 35 30 31 33 31 26 32 22
55 55 55 55 55 54 54 53 53 54 52 42 39 38 39 35 38 36 38 37 38 40 40 40 39 42 42 37 36 35 38 37 38 42 40 38 25 27 25 34 32 29 33 33 33 34 34
54 54 54 54 54 54 53 53 53 53 49 40 43 44 41 37 35 34 36 42 42 42 44 44 43 40 39 40 41 43 43 43 42 38 35 35 28 25 21 30 31 27 32 33 35 36 40
54 54 54 55 54 54 53 53 53 53 50 42 43 42 38 32 34 36 41 41 40 40 40 42 44 41 43 47 46 45 42 41 41 38 40 33 30 28 21 27 20 36 42 42 39 41 41
53 54 54 54 54 54 53 53 53 53 53 41 44 41 40 36 35 38 40 40 40 41 40 41 43 43 45 44 38 34 35 36 37 40 42 43 37 30 25 20 29 39 44 41 37 39 44
53 53 53 53 53 53 53 53 53 53 53 41 44 46 41 38 37 42 39 40 36 35 38 40 44 46 45 39 36 33 31 33 33 36 42 41 41 34 29 24 24 38 44 45 43 33 43
53 53 52 53 53 53 53 53 53 53 52 43 43 46 40 38 41 42 37 39 42 38 38 42 44 41 42 36 31 28 30 38 31 32 33 35 35 31 31 26 31 42 47 45 31 38 43
51 51 52 53 52 53 53 52 53 53 53 46 42 46 41 38 41 45 45 40 42 41 40 40 41 40 37 33 31 31 30 33 31 36 34 33 32 31 32 27 24 46 45 41 45 46 42
51 51 52 52 52 52 52 52 52 52 52 50 39 46 46 38 41 44 46 48 46 47 46 43 42 42 44 38 33 36 37 37 34 28 37 32 35 34 33 33 44 46 47 50 48 43 41

GFSGBSN_sfc_temp_048.txt.gz
Temp
63 63 63 63 63 62 62 61 61 60 61 62 61 61 60 60 60 59 59 59 60 60 61 62 62 62 56 47 49 63 70 69 68 65 60 56 54 51 47 48 50 46 49 54 56 57 54
62 63 63 63 62 62 61 61 61 61 61 61 61 60 59 60 59 59 59 59 59 59 60 61 61 60 50 42 63 64 65 66 65 62 59 57 55 55 51 49 48 51 52 52 54 54 54
63 63 62 62 62 62 61 61 61 60 61 60 60 60 59 59 59 59 58 59 59 59 59 60 60 57 48 50 63 62 64 63 65 63 56 59 58 55 53 48 53 51 46 48 50 52 51
62 62 62 62 62 61 60 60 59 60 60 60 60 60 59 58 59 58 58 58 58 58 59 59 59 54 45 62 62 59 62 58 61 61 62 61 61 56 52 53 49 46 44 37 47 51 52
62 62 62 61 61 60 60 60 59 59 59 59 58 59 59 59 59 58 58 58 58 58 59 59 51 49 45 62 54 59 60 56 57 58 58 65 58 52 50 43 39 41 32 36 44 50 49
61 61 61 61 61 60 59 60 59 59 59 58 58 57 58 58 58 58 57 57 57 56 54 55 52 43 49 48 55 59 62 60 56 55 54 55 50 45 42 42 33 37 34 34 38 44 44
61 61 61 60 60 60 59 60 59 59 58 59 59 58 58 58 58 57 52 46 40 39 43 39 43 45 49 56 58 57 60 57 55 51 45 50 44 40 45 43 43 41 38 37 39 46 42
60 60 60 59 60 59 60 59 58 59 59 58 58 58 57 57 57 57 48 41 41 44 34 45 47 49 53 56 47 52 61 52 49 44 46 43 41 47 49 49 45 42 37 35 41 44 41
60 60 60 59 60 59 59 59 59 59 58 58 57 57 57 57 57 48 43 44 48 46 36 41 47 46 49 51 48 48 56 53 47 44 44 41 44 49 47 45 44 42 40 37 36 40 38
59 59 60 59 59 59 58 58 58 58 57 57 57 57 56 56 48 48 44 49 47 50 17 34 39 47 50 52 44 56 58 53 47 43 45 45 48 46 44 42 44 36 45 42 39 35 28
59 59 59 59 59 58 58 58 57 57 57 57 56 56 55 53 47 45 49 49 50 44 3 37 41 52 50 47 46 49 56 54 44 44 44 38 43 42 40 43 47 40 44 40 37 32 27
58 59 59 58 58 57 57 57 57 57 56 56 55 55 54 49 48 50 49 48 42 20 12 33 42 39 43 46 46 49 50 55 53 46 45 43 49 47 45 45 47 45 39 35 32 29 20
58 58 58 58 58 57 57 57 57 57 56 56 55 54 51 51 43 52 50 41 19 14 35 33 35 41 42 41 43 46 44 41 39 33 31 41 41 46 47 40 44 40 35 27 19 17 21
58 58 58 58 57 57 57 57 56 56 56 56 55 53 51 51 52 48 44 31 16 30 30 39 39 40 38 42 42 42 41 37 43 38 31 28 31 42 43 40 37 32 33 23 19 18 23
57 57 57 57 57 56 56 56 56 56 56 55 53 43 46 49 49 46 35 21 22 29 33 35 38 35 35 39 41 38 37 36 40 41 33 28 29 41 44 43 41 34 26 34 24 21 17
57 57 57 57 56 56 55 55 55 55 55 54 40 39 41 49 49 42 28 30 30 34 38 41 33 35 31 35 35 36 38 40 41 43 40 35 27 38 41 44 42 38 38 25 19 16 18
56 57 57 57 56 55 55 55 55 55 55 53 38 35 44 47 45 35 29 32 34 40 41 38 33 34 33 34 37 35 36 40 45 40 43 38 34 34 42 34 33 33 28 29 28 25 20
56 56 57 56 55 55 55 54 54 55 55 47 35 29 44 45 33 35 35 37 40 40 42 42 41 39 35 36 35 35 34 38 45 45 38 39 34 30 33 36 38 36 32 30 20 19 25
56 56 56 56 55 55 54 54 54 54 54 46 33 33 44 43 33 34 37 37 40 40 40 41 40 41 40 36 33 36 38 43 45 44 40 40 28 20 29 35 36 32 35 32 29 25 15
55 55 55 55 55 55 54 54 53 54 54 44 34 30 36 39 41 38 36 38 38 41 41 43 40 43 40 36 38 35 37 42 44 45 48 44 31 28 22 26 30 26 32 32 29 19 22
55 55 55 55 54 54 54 53 53 53 53 43 35 35 40 34 38 39 40 40 36 36 42 43 42 41 39 34 35 34 38 39 43 47 41 39 25 26 31 34 29 31 32 31 25 29 22
55 55 55 55 54 54 54 53 53 53 52 42 39 36 41 37 39 38 38 36 36 37 38 38 37 39 40 37 36 34 37 36 36 40 40 37 26 27 24 33 32 29 32 32 31 32 32
54 54 54 55 54 54 53 53 53 53 48 36 42 44 40 37 33 32 34 38 39 40 43 43 41 39 38 39 39 41 41 41 41 37 36 37 28 25 20 30 30 26 31 32 32 34 37
54 54 54 54 54 54 53 53 53 53 48 40 42 41 36 31 32 34 38 40 39 39 40 42 45 41 43 46 44 44 41 41 40 37 40 33 30 29 21 27 18 35 40 39 38 39 39
53 54 54 53 54 53 53 53 53 53 53 39 42 40 39 35 33 36 38 38 38 40 39 39 41 42 44 42 38 34 34 36 37 39 40 42 36 29 26 20 28 36 39 38 36 40 43
53 53 53 53 53 53 53 53 53 53 52 39 41 45 41 37 34 40 37 38 35 33 36 39 43 44 43 38 35 32 27 31 32 35 41 41 38 30 29 25 21 36 42 45 42 35 43
53 52 52 53 53 52 53 53 52 53 52 43 39 45 40 36 43 43 36 37 40 36 35 38 40 39 41 33 31 26 29 38 31 32 33 34 34 30 31 28 29 41 45 45 33 35 43
52 52 52 52 52 52 53 52 52 52 52 46 39 45 40 37 41 46 47 38 40 39 39 40 39 38 36 32 30 29 28 34 32 36 35 33 31 31 32 28 23 44 44 40 44 46 43
51 51 52 52 52 51 52 52 52 52 52 50 36 44 45 38 39 46 46 47 47 45 42 43 42 42 41 36 31 34 36 36 35 31 37 31 33 30 32 32 42 46 46 48 47 47 44

GFSGBSN_sfc_temp_051.txt.gz
Temp
64 63 63 63 63 63 63 62 61 61 61 61 62 61 60 60 60 60 60 60 60 60 60 60 61 61 56 48 50 62 67 68 68 65 60 58 54 54 50 51 51 50 52 56 58 58 58
63 63 63 63 63 62 62 61 60 60 61 60 60 60 60 59 60 60 60 59 59 59 59 60 60 58 50 40 62 61 63 64 65 62 59 59 56 58 54 52 52 53 54 55 56 57 57
63 63 62 62 62 62 61 60 60 60 60 60 60 60 60 59 59 59 59 59 59 59 59 59 60 55 46 47 62 61 61 62 65 62 58 59 62 58 54 49 55 52 48 52 54 54 55
62 62 62 62 61 61 61 60 61 60 59 60 59 58 58 58 59 59 59 59 58 58 59 59 59 52 43 61 62 60 59 60 64 65 63 61 62 57 55 55 52 48 49 42 51 53 55
62 62 62 61 61 61 61 60 61 60 59 59 59 59 58 57 59 58 58 58 58 58 59 59 51 47 43 61 54 60 59 56 58 59 58 62 59 54 53 46 42 44 36 39 46 52 52
62 61 61 60 60 61 61 60 60 59 60 60 58 58 59 58 58 58 57 57 57 55 54 55 52 41 48 47 55 59 61 58 56 55 55 55 52 46 45 43 35 38 37 40 42 48 48
61 61 61 60 60 60 60 60 59 60 59 59 58 57 57 57 58 57 53 46 40 39 43 39 42 42 49 54 57 55 61 56 55 53 44 49 43 39 44 45 45 44 41 40 44 49 46
61 60 60 61 61 60 60 59 59 58 59 58 58 57 57 56 57 57 48 40 41 45 35 44 45 47 50 49 47 52 60 49 49 43 43 44 40 48 50 48 45 43 40 40 44 47 46
60 60 60 60 60 60 59 58 59 59 58 58 57 57 57 56 56 48 43 44 49 46 36 41 46 47 46 51 48 47 54 52 47 43 39 37 43 52 49 46 43 42 39 39 41 44 43
59 59 59 60 59 59 58 58 58 58 58 57 56 57 56 55 47 47 43 50 49 49 18 34 40 45 49 52 45 57 58 53 46 42 41 39 46 46 46 44 46 38 45 43 41 39 34
59 59 59 59 58 58 58 57 57 57 57 57 56 56 55 54 46 44 47 51 50 41 8 37 41 52 50 45 46 49 57 52 43 43 44 38 42 42 41 42 47 40 46 41 39 35 35
58 59 58 58 58 57 57 57 57 57 56 57 56 55 54 48 48 47 48 47 41 19 11 32 41 39 41 45 46 50 51 54 51 45 45 43 50 47 42 43 45 45 40 37 35 34 28
58 58 58 58 58 57 56 56 56 56 56 56 56 55 51 50 41 49 48 39 20 20 32 33 34 36 41 39 43 46 42 41 38 33 32 37 40 46 46 38 44 43 38 28 25 24 27
58 58 58 58 57 57 56 56 56 56 56 55 55 53 51 51 47 47 45 27 17 30 31 37 35 41 38 40 41 43 40 36 42 39 33 31 30 42 45 41 37 38 38 29 24 24 27
57 57 57 57 57 56 56 56 56 56 55 55 52 43 44 47 49 45 37 21 20 28 34 35 39 35 36 39 40 38 38 37 40 41 34 30 31 44 44 44 44 36 31 36 25 25 24
57 57 57 57 57 56 56 55 55 55 55 55 39 39 41 48 47 40 28 30 32 35 37 40 33 36 32 36 36 36 37 40 39 43 42 36 28 40 42 46 43 39 39 29 25 21 23
56 57 57 57 56 56 55 55 55 55 55 52 37 35 43 46 44 38 30 33 35 42 41 38 34 33 36 34 36 36 36 41 44 42 43 39 35 35 42 36 34 35 32 31 31 28 25
56 56 56 56 56 55 55 54 54 54 55 49 34 30 44 44 33 34 35 37 42 40 42 41 40 39 35 35 35 34 35 39 45 46 39 40 35 31 33 38 41 38 34 32 25 23 24
56 56 56 56 55 55 55 54 54 54 54 46 33 33 43 42 31 34 39 39 41 39 39 40 38 40 39 36 34 36 37 43 45 44 40 41 31 24 30 36 38 35 35 34 31 28 22
56 56 55 55 54 54 54 54 54 54 54 45 34 29 35 38 39 36 37 35 36 41 40 41 39 41 38 36 38 35 36 42 44 44 48 44 33 30 25 29 31 28 32 33 30 23 25
55 55 55 55 54 55 54 54 54 53 53 42 34 34 40 29 35 36 38 37 35 35 40 42 40 40 39 34 34 33 36 38 42 46 41 40 28 29 33 35 31 32 33 32 27 30 26
55 55 55 55 55 54 54 53 53 53 51 41 37 37 41 37 38 38 39 35 35 36 37 37 37 38 38 36 36 33 36 35 36 39 38 37 29 28 26 34 33 30 34 33 33 34 33
54 54 55 55 55 54 54 53 53 53 48 37 42 44 39 37 32 31 34 37 38 38 40 41 40 37 37 37 38 40 40 41 41 38 36 37 29 26 22 31 31 27 32 33 33 34 37
53 54 54 54 54 53 54 53 53 53 47 38 41 40 37 31 31 33 36 38 37 37 39 41 42 39 42 43 42 43 40 39 39 37 40 34 31 30 24 28 19 36 40 39 37 38 39
53 53 54 54 53 54 53 53 53 53 52 39 39 40 38 35 35 34 36 37 37 38 38 38 41 41 44 40 37 33 35 37 37 37 40 42 34 29 25 23 28 36 38 37 36 41 43
53 53 53 53 53 53 52 53 53 53 53 42 40 44 40 36 33 39 37 36 34 32 35 38 42 43 41 37 34 32 27 31 32 35 42 40 38 30 28 26 22 35 42 45 44 35 45
53 53 53 52 53 53 52 53 53 53 53 44 40 45 39 35 41 43 39 36 38 35 34 36 38 38 40 32 31 26 29 36 30 32 32 34 34 28 31 28 29 39 45 46 34 37 45
52 52 52 52 52 52 52 51 52 52 53 44 38 42 40 35 38 43 46 42 39 38 35 38 38 38 35 32 31 29 28 35 34 35 33 34 32 31 31 28 23 42 44 40 45 46 46
51 51 52 52 52 52 51 51 53 52 52 49 35 41 45 37 37 43 44 46 45 43 43 43 40 41 39 36 31 32 35 37 35 31 38 32 33 30 32 32 41 43 44 49 47 45 45

GFSGBSN_sfc_temp_054.txt.gz
Temp
64 64 64 63 63 63 63 61 61 61 62 62 61 60 61 61 60 60 60 60 60 61 60 60 60 60 58 50 51 67 65 69 70 67 64 62 59 56 54 58 59 58 60 63 65 64 64
63 63 63 62 62 62 62 61 61 61 62 60 60 60 60 60 59 59 59 60 59 59 60 60 60 58 53 42 67 70 63 66 69 65 62 64 62 64 58 58 57 61 61 62 65 63 63
63 62 63 62 62 61 62 62 61 61 61 60 60 59 59 59 59 59 59 59 59 59 59 60 60 58 50 50 66 65 62 66 69 67 60 66 68 62 62 56 62 59 55 60 60 62 61
62 63 62 62 61 61 61 61 61 60 60 61 60 60 59 59 59 59 59 59 59 58 58 59 59 55 45 64 64 61 63 65 69 69 66 66 69 65 61 63 59 55 56 49 60 61 61
62 62 62 62 61 62 61 61 60 60 60 60 59 59 58 58 58 59 58 59 58 59 59 59 55 52 46 63 55 62 64 60 65 66 65 66 61 60 58 53 49 53 48 49 51 60 61
62 61 61 61 61 61 61 60 60 60 60 59 60 59 58 57 58 58 58 58 58 57 58 58 56 46 52 51 57 60 63 62 57 59 55 55 52 50 54 51 41 46 47 50 50 55 56
61 61 61 61 61 61 60 60 60 60 59 59 59 58 58 57 56 58 56 54 50 47 50 46 47 47 50 51 58 54 59 55 59 55 44 51 43 44 51 55 53 53 49 49 52 54 53
60 61 60 61 60 60 59 59 59 59 58 59 58 57 58 56 56 56 55 49 47 49 41 49 49 49 52 49 46 49 60 49 53 45 49 44 40 53 57 55 52 51 49 49 50 52 53
60 60 60 60 60 59 59 59 59 58 58 58 57 57 57 56 55 55 51 48 51 53 41 44 48 47 45 48 48 47 56 49 49 43 44 40 45 55 53 51 49 49 47 48 48 49 50
60 59 59 60 59 59 58 58 58 58 57 57 57 57 56 56 53 52 47 52 54 54 33 37 38 42 44 46 47 58 55 49 46 38 42 38 49 51 50 49 52 44 51 49 47 47 44
59 59 59 59 58 58 58 57 58 57 57 56 57 56 55 55 52 47 51 54 55 48 20 37 39 50 50 47 49 49 56 50 43 41 40 37 41 44 47 50 54 46 51 48 47 45 44
59 59 58 58 58 58 57 57 57 57 56 56 56 56 54 54 54 51 54 54 51 31 21 35 42 39 41 47 49 51 53 54 52 46 46 41 46 45 41 43 50 50 48 45 45 44 36
58 58 58 58 58 57 57 57 56 56 56 56 56 56 55 55 46 55 54 48 32 27 37 34 36 38 43 43 47 49 43 43 39 35 34 38 40 44 44 37 43 49 44 33 32 32 37
58 58 58 58 58 57 57 56 56 56 56 55 55 54 55 56 56 55 51 38 28 31 32 40 37 42 37 41 44 41 37 42 47 42 36 33 31 40 43 43 41 43 44 37 30 32 36
57 57 58 57 58 57 57 56 56 55 55 55 53 55 53 56 55 54 44 32 29 31 35 35 40 36 36 42 42 39 41 43 45 47 38 34 32 47 48 50 50 42 39 44 35 33 34
57 57 57 57 57 57 56 56 55 55 55 54 49 49 51 54 54 50 40 33 33 36 39 41 35 41 37 38 38 38 43 46 44 48 50 43 33 43 45 49 49 47 48 36 35 29 31
56 57 57 57 56 56 56 55 55 55 55 53 49 47 52 54 53 48 33 35 37 45 44 43 41 40 42 40 41 41 41 46 49 47 51 48 43 37 45 42 42 42 41 39 42 38 36
56 56 56 56 55 55 55 55 55 55 54 51 46 41 53 53 43 43 39 40 43 44 47 45 48 46 44 44 42 43 42 46 51 52 45 46 44 35 37 44 46 46 43 43 37 32 34
56 56 56 56 55 55 55 54 54 55 54 47 40 44 52 50 37 38 43 42 44 45 46 46 45 48 47 44 41 43 44 48 51 50 48 48 39 31 32 39 42 39 41 42 39 36 31
55 56 56 55 55 55 54 54 54 54 54 49 43 40 48 50 48 44 41 41 43 47 46 48 46 49 47 43 46 42 43 46 49 50 48 50 40 37 34 34 39 34 39 41 38 33 37
55 55 55 55 55 55 54 54 53 54 53 50 44 38 41 37 43 44 44 43 42 42 48 49 47 47 46 41 42 41 43 45 48 48 47 48 34 36 38 40 36 37 38 38 33 39 35
55 54 55 55 55 55 54 53 53 53 52 50 40 38 42 41 43 43 43 42 42 43 43 45 45 45 47 44 45 42 44 45 45 47 46 45 34 35 33 38 38 34 40 40 40 41 40
54 54 54 55 55 54 54 53 53 53 51 44 46 45 40 41 41 43 43 44 44 45 46 47 48 47 45 45 48 50 51 52 50 47 44 44 38 35 32 36 37 33 39 40 41 43 43
54 54 54 54 54 54 54 53 53 53 49 46 45 42 37 37 40 41 41 43 43 45 45 46 49 47 48 52 53 54 52 50 49 46 49 42 40 39 34 35 27 41 46 46 43 45 46
54 54 54 54 53 53 53 53 53 53 52 48 46 41 38 34 39 41 41 43 45 46 45 45 46 48 54 50 45 42 41 43 43 46 46 49 43 35 33 33 38 42 42 42 41 43 50
55 54 53 53 53 53 53 53 53 53 53 49 46 47 40 35 39 42 40 43 44 45 45 45 49 52 50 47 43 36 32 38 35 38 45 44 46 40 34 29 30 42 47 51 49 37 52
54 54 53 53 53 53 53 53 52 53 52 49 46 48 41 35 42 41 38 41 46 45 45 46 47 46 48 43 39 38 37 43 34 34 36 37 37 34 36 32 39 48 49 52 35 39 51
54 53 52 52 52 52 53 52 51 52 52 49 46 47 42 36 39 43 43 40 45 46 45 46 46 46 44 41 39 39 39 41 39 41 40 39 36 34 36 32 29 50 49 42 47 53 53
53 52 52 52 52 52 52 52 51 52 52 50 41 46 48 38 38 45 44 44 43 47 47 48 48 47 49 44 42 42 39 42 41 35 44 37 44 41 42 42 50 50 48 53 52 50 51

GFSGBSN_sfc_temp_057.txt.gz
Temp
64 63 64 63 63 62 62 63 62 62 62 62 62 61 60 61 60 60 60 60 60 60 60 60 60 60 58 51 55 71 66 71 70 68 66 64 62 60 55 60 62 59 66 69 68 65 66
63 63 63 63 63 62 62 62 62 61 61 61 61 61 60 60 60 59 59 60 60 60 60 58 59 58 55 44 70 72 62 65 66 64 66 67 64 66 61 59 60 64 64 65 68 64 65
63 63 63 63 62 62 62 62 61 61 61 61 61 60 60 59 59 59 59 59 60 60 59 59 59 60 52 52 70 67 60 59 67 63 64 70 70 64 64 57 65 62 58 61 64 65 62
62 62 62 62 62 62 62 61 61 61 61 61 61 60 60 59 58 59 58 60 59 59 59 59 60 57 46 66 70 66 60 56 65 68 70 71 69 67 61 63 60 56 58 49 61 62 64
62 62 62 62 62 62 61 60 61 60 60 60 60 59 59 58 57 58 59 59 59 59 59 60 56 53 47 66 59 65 63 58 64 62 69 70 64 61 60 53 49 53 47 51 56 65 62
61 61 61 61 61 61 61 60 60 60 60 60 59 58 58 58 57 58 58 58 59 57 59 61 58 47 55 53 61 60 65 63 58 60 58 55 53 49 52 51 41 46 48 55 54 57 60
61 61 61 61 61 60 60 60 59 59 59 59 59 58 58 57 56 57 57 58 51 49 53 48 49 50 51 54 57 56 62 59 57 57 47 49 44 41 51 57 58 57 53 54 58 58 56
60 61 60 60 60 60 59 59 58 58 58 58 58 57 57 57 57 56 59 52 50 51 42 52 52 52 55 48 42 49 61 54 50 47 52 45 37 51 58 58 57 54 52 52 55 56 55
60 60 60 60 59 59 59 59 58 58 58 57 58 57 57 56 56 58 55 50 54 56 41 46 51 49 47 46 42 49 55 52 49 49 47 44 46 49 49 52 52 53 50 51 50 52 56
60 60 59 59 59 59 58 58 58 58 58 57 57 57 57 56 52 56 51 56 57 57 34 38 41 45 44 46 42 52 54 48 47 46 46 42 51 46 47 50 54 47 57 54 50 48 44
59 59 59 59 59 58 58 58 58 57 57 56 57 57 56 57 55 50 53 58 58 52 23 38 38 49 47 43 45 46 54 50 42 39 43 39 44 43 47 51 56 51 56 52 50 48 47
59 59 59 58 58 58 58 57 57 57 57 56 56 56 56 58 59 56 59 58 51 32 24 34 41 39 42 47 47 47 47 53 53 42 43 41 45 45 49 47 54 56 51 50 49 46 37
58 58 58 58 58 58 57 57 57 57 56 56 56 56 56 59 53 59 58 50 32 28 37 34 36 43 48 46 45 43 41 41 39 33 33 35 36 43 45 41 47 51 46 33 32 33 37
58 58 58 58 58 58 57 57 57 56 56 55 55 54 58 60 62 59 52 39 30 34 32 41 39 45 38 44 44 44 44 42 50 46 36 34 31 36 41 41 39 43 47 39 32 34 39
57 57 57 57 57 57 57 57 56 56 55 55 54 61 57 60 59 56 44 34 31 32 36 36 45 38 39 46 44 41 45 45 48 50 37 35 33 40 42 44 46 40 39 48 40 41 39
57 57 57 57 57 56 56 56 56 55 55 55 54 55 56 59 59 53 42 33 34 39 42 45 39 44 40 42 43 44 47 50 47 51 54 45 33 43 44 48 48 47 51 38 38 31 33
56 57 57 57 56 56 56 56 55 55 55 55 55 52 56 59 57 53 35 37 40 48 47 45 45 44 45 45 47 46 46 48 52 50 54 52 45 38 47 44 44 44 43 44 44 41 38
56 56 56 56 56 55 55 55 55 55 55 54 51 43 57 59 47 50 44 44 44 48 51 48 51 50 48 49 46 46 46 50 55 55 49 50 46 36 39 47 50 50 48 48 38 36 39
56 56 56 56 55 55 55 55 54 55 54 48 43 51 58 56 40 44 46 46 48 49 49 49 48 51 52 49 44 48 48 51 54 53 50 52 42 32 34 42 46 42 47 48 44 39 34
56 56 55 55 55 55 54 54 54 54 54 52 49 40 52 58 54 49 46 45 46 50 50 51 50 52 50 48 51 46 46 49 52 53 49 53 45 40 36 36 43 36 43 45 39 33 40
55 55 55 55 55 55 54 54 54 54 54 53 50 40 43 40 49 48 49 48 46 46 52 53 50 50 49 45 46 45 48 48 51 48 51 51 36 38 42 43 38 40 40 41 33 41 37
55 55 54 55 55 54 54 54 54 53 54 54 41 38 44 42 48 48 46 47 46 47 48 48 48 50 51 48 49 45 48 50 48 50 50 49 36 38 35 42 41 37 42 43 42 43 44
55 55 55 55 54 54 54 53 53 53 54 49 51 49 40 42 47 46 45 47 47 49 49 51 52 51 49 49 52 55 56 56 54 50 48 46 40 37 35 39 39 35 41 43 44 46 46
55 55 55 54 54 54 53 53 53 53 52 51 49 42 37 37 43 44 45 47 47 49 47 50 53 51 50 58 59 58 56 54 53 51 54 46 43 41 36 38 28 42 49 50 46 48 49
55 55 54 54 54 53 53 53 53 53 52 52 51 44 38 34 42 44 45 44 49 50 49 49 50 55 58 54 47 43 43 45 46 49 50 53 46 38 34 35 42 46 45 44 43 44 52
54 55 54 54 53 53 53 53 53 53 53 53 51 51 43 35 42 43 41 44 43 47 48 48 52 57 54 50 45 36 33 40 38 41 48 47 49 40 37 31 32 44 49 54 52 40 55
54 54 54 53 53 53 53 53 53 52 53 52 50 52 45 36 45 42 39 38 47 48 47 49 49 49 52 45 39 37 37 46 37 37 38 39 40 35 36 34 41 52 52 54 37 39 54
54 54 53 53 52 52 52 52 52 52 52 51 49 52 45 38 41 43 44 36 37 46 44 50 48 48 47 42 41 42 41 44 43 46 42 40 37 37 38 32 30 54 51 43 47 54 54
54 53 52 52 52 52 52 52 52 52 53 51 44 51 49 38 41 48 48 48 44 43 40 50 50 52 53 46 46 46 42 45 45 37 48 39 46 43 44 43 53 55 53 55 55 53 53

GFSGBSN_sfc_temp_060.txt.gz
Temp
64 64 64 63 63 63 63 63 62 62 62 63 62 62 61 60 60 60 60 60 60 61 61 60 60 60 56 48 50 68 68 72 69 66 63 60 59 57 52 56 59 56 61 65 66 63 61
63 63 63 63 63 63 63 62 61 62 61 62 62 61 60 60 60 59 59 60 60 60 59 59 58 58 52 41 66 70 68 63 66 63 61 63 61 63 58 58 56 60 62 63 64 61 62
63 63 63 63 63 62 62 62 61 61 61 62 61 61 60 60 59 59 59 59 60 60 60 59 60 58 50 48 68 66 63 62 61 63 59 66 67 62 60 55 62 61 55 58 60 60 59
62 62 62 62 62 62 61 61 60 61 61 61 61 60 60 59 59 58 58 59 60 59 59 60 59 56 44 64 66 64 62 59 61 61 62 68 69 63 60 61 57 54 52 46 58 60 61
62 62 62 62 62 61 61 61 60 60 60 60 60 60 59 59 58 57 59 59 59 59 59 60 54 50 44 66 57 63 65 56 59 58 62 68 64 56 58 50 45 48 41 45 51 61 59
61 62 61 61 61 61 61 60 60 59 60 59 59 59 58 58 58 58 58 58 59 58 58 61 56 45 52 51 56 61 62 58 52 55 54 55 53 47 48 45 35 40 41 47 48 56 58
61 61 61 61 61 60 60 60 60 59 59 59 59 58 58 58 58 58 56 55 49 47 53 47 47 47 51 54 58 56 58 51 50 51 44 51 43 39 44 49 51 50 47 46 53 58 54
60 60 60 60 60 60 60 59 59 59 58 58 58 58 58 57 58 58 56 50 49 50 41 53 52 52 54 51 43 51 56 44 42 42 49 44 39 48 53 53 52 51 47 47 53 55 53
60 60 60 60 60 60 59 59 59 59 58 58 57 57 58 57 57 55 54 50 56 56 40 47 50 49 47 48 41 46 52 48 41 42 45 41 46 53 51 51 49 48 45 48 47 50 51
60 59 59 60 59 59 59 58 58 58 58 57 57 57 57 57 52 55 51 57 57 57 32 37 41 43 46 44 39 51 55 50 45 44 48 43 49 47 45 46 52 44 53 52 49 43 36
59 59 59 59 59 59 58 58 58 58 57 56 56 56 57 56 52 51 53 58 57 49 20 38 39 50 46 38 44 45 55 50 43 42 44 38 42 43 39 45 53 49 54 49 47 43 41
59 59 59 59 59 58 58 58 58 57 57 56 56 56 56 57 54 56 58 57 50 31 24 33 38 38 39 43 46 48 48 51 53 43 44 40 47 46 44 47 47 55 48 46 45 42 30
58 58 58 58 58 58 58 58 57 57 56 56 55 56 54 58 50 59 56 47 30 27 38 34 35 40 40 40 40 41 40 42 39 33 33 37 37 43 44 42 49 48 40 30 29 28 29
58 58 58 58 58 58 57 57 57 57 56 55 55 55 57 59 60 57 49 37 27 35 33 40 42 45 39 42 39 41 43 40 46 41 34 32 29 36 41 42 39 44 41 29 25 25 29
57 57 57 57 57 57 57 57 56 56 56 55 55 57 56 58 59 54 42 31 30 33 37 36 45 39 39 45 44 42 43 43 44 45 35 33 31 39 41 45 44 40 35 42 33 33 26
57 57 57 57 57 57 56 56 56 56 55 55 50 53 54 59 58 49 40 33 34 40 43 44 40 46 38 42 42 43 44 49 46 51 52 42 31 37 41 45 44 43 48 33 29 21 24
56 57 57 57 56 56 56 56 56 55 55 55 50 49 53 59 55 46 34 37 41 49 48 43 45 44 45 44 47 45 44 48 51 49 51 48 41 35 40 36 36 37 36 38 37 33 25
56 56 57 56 56 56 55 55 55 55 55 53 49 41 55 56 43 47 42 45 44 49 52 48 49 50 48 47 45 44 43 47 53 52 45 47 41 32 38 46 49 45 44 42 32 31 29
56 56 56 55 55 55 55 55 55 55 55 47 42 48 55 54 39 42 46 47 49 49 49 49 48 50 51 47 41 45 45 50 52 50 46 47 36 27 29 39 43 39 44 45 39 35 30
55 56 55 55 55 55 55 54 54 54 55 49 45 37 45 51 51 46 45 44 46 49 50 51 50 51 48 45 49 43 44 48 50 50 50 50 40 34 27 33 38 32 39 41 34 25 30
55 55 55 55 55 55 54 54 54 54 54 50 47 39 42 36 44 45 48 48 46 46 51 52 48 49 48 42 44 43 46 45 49 48 47 45 31 31 38 41 34 34 38 38 27 34 27
55 55 55 55 55 55 54 54 54 54 54 50 41 38 42 40 44 45 45 47 45 48 47 47 46 50 49 45 45 43 46 45 43 46 44 44 30 32 30 41 39 32 39 39 39 39 38
55 55 55 55 55 54 54 53 54 53 53 46 47 47 40 41 43 44 42 45 46 48 49 51 49 48 47 47 50 51 51 51 49 44 42 41 33 29 25 35 35 28 37 40 39 42 41
55 55 55 55 54 54 53 53 53 53 52 48 46 43 37 36 40 40 44 46 45 48 45 50 51 48 48 53 53 51 50 49 48 45 48 41 37 34 27 29 19 39 45 46 43 45 46
54 55 55 54 54 53 53 53 53 53 53 48 48 42 37 32 40 41 41 43 46 50 46 48 49 51 53 48 45 41 39 43 44 44 44 46 41 33 26 26 36 39 42 41 40 41 47
55 54 55 54 53 53 53 53 53 53 53 49 48 48 42 34 37 42 38 41 39 43 44 46 50 52 48 44 40 34 31 37 36 37 43 44 46 35 31 26 25 39 46 50 47 36 48
55 54 54 54 53 53 53 53 53 52 52 49 46 49 43 34 42 41 37 35 40 43 41 45 45 44 46 40 35 32 34 44 35 35 33 34 35 32 33 31 34 46 48 50 34 37 48
55 54 54 53 52 52 52 53 53 53 52 49 45 49 42 36 39 43 43 38 37 38 37 44 44 44 41 38 35 37 34 40 38 40 40 37 34 34 35 30 23 48 47 40 44 49 50
54 54 53 52 52 52 52 53 53 52 52 51 42 49 48 38 38 45 46 47 45 42 36 39 42 47 46 40 39 39 37 38 37 34 41 33 39 37 37 36 46 48 46 49 50 47 47

GFSGBSN_sfc_temp_063.txt.gz
Temp
64 64 63 64 63 63 63 63 62 62 63 63 63 62 62 61 61 60 60 59 61 60 60 60 60 59 55 45 46 64 68 70 69 65 59 57 54 52 48 52 56 52 57 61 63 59 60
63 63 63 63 63 63 63 62 61 61 62 62 62 62 61 61 61 60 60 59 60 59 59 58 59 59 50 38 62 65 63 66 66 61 58 58 57 58 52 53 52 57 58 59 61 59 58
63 63 63 63 62 62 62 62 60 61 61 62 62 61 60 60 60 60 59 59 59 59 58 60 60 57 48 46 62 61 63 61 61 61 57 59 61 58 56 54 59 56 52 56 56 57 56
62 62 62 62 62 62 61 61 61 60 60 61 61 61 60 59 59 59 59 59 59 59 59 60 59 53 43 61 59 59 59 60 61 59 60 63 63 61 53 57 54 52 50 43 54 56 58
62 62 62 62 62 61 61 61 60 60 60 60 60 60 59 59 59 59 59 59 59 59 59 60 52 47 41 63 55 59 57 57 58 57 56 63 58 55 53 45 42 45 37 39 49 56 56
61 61 61 61 61 61 61 61 60 60 59 59 58 59 59 58 59 58 59 59 58 57 56 59 55 43 49 48 54 57 57 59 53 52 51 51 51 43 44 41 35 37 38 41 43 51 54
61 61 61 61 60 60 61 60 60 60 60 59 58 57 58 58 58 58 54 49 43 42 48 44 45 46 50 52 56 54 56 54 51 46 43 49 42 38 43 46 47 45 43 43 47 55 52
60 61 60 60 60 60 60 59 59 59 59 59 58 57 57 58 58 58 52 46 46 45 36 49 51 51 49 50 43 49 55 46 42 36 45 43 38 45 49 49 47 46 42 42 48 54 53
60 60 60 60 60 60 59 59 59 59 58 58 57 57 57 58 58 52 48 47 51 51 38 45 49 45 44 47 44 45 50 46 38 36 43 40 44 50 48 46 44 43 40 41 42 47 47
59 59 59 59 60 59 59 58 58 58 58 57 57 57 57 57 50 49 46 53 53 53 31 35 39 42 46 45 40 51 49 47 38 39 42 42 47 47 45 44 46 38 49 48 45 40 34
59 59 59 59 59 59 58 58 58 58 57 57 56 56 56 56 46 46 50 54 52 48 20 38 39 50 47 40 43 42 52 46 36 43 42 38 41 41 42 44 47 44 50 47 44 40 38
58 59 58 58 58 59 58 58 58 58 57 56 56 56 56 51 51 55 55 52 49 28 22 33 38 38 37 42 44 48 47 49 51 44 43 40 48 46 43 46 46 48 47 42 41 38 27
58 58 58 58 58 58 58 58 57 57 57 56 55 56 53 54 45 56 54 44 26 22 39 34 35 41 41 40 41 44 41 41 38 31 32 37 38 43 46 43 45 46 37 25 25 22 24
58 58 58 58 58 58 58 57 57 57 56 56 55 55 54 55 53 55 44 34 21 32 32 41 41 43 37 40 39 42 42 38 42 38 34 30 31 38 42 40 40 42 38 26 21 21 25
57 57 57 57 57 57 57 57 57 56 56 55 54 47 48 51 54 49 39 25 30 29 38 37 41 37 38 42 41 41 40 39 40 40 32 31 30 40 42 44 43 39 33 41 30 28 22
57 57 57 57 57 56 57 56 56 56 55 55 43 43 46 53 52 44 33 31 33 38 42 43 36 42 36 38 40 38 39 45 42 45 45 37 29 38 41 43 45 41 46 33 26 22 22
56 57 57 56 56 56 56 56 56 56 55 55 42 39 48 53 48 42 30 30 40 46 45 42 41 42 42 43 42 40 39 44 48 46 49 45 37 34 40 36 37 38 36 36 35 30 24
56 56 56 56 56 55 55 55 55 55 55 49 39 35 49 50 35 39 33 41 46 47 47 45 48 47 44 44 40 40 38 42 50 50 44 46 39 31 35 43 46 42 39 39 28 27 26
56 56 56 55 55 55 55 55 55 55 55 45 39 37 48 47 37 37 40 44 46 46 46 45 44 46 48 46 38 41 41 48 49 46 43 45 34 26 27 36 40 36 39 43 39 32 24
55 55 55 56 55 55 55 54 54 55 55 43 38 32 38 46 44 43 39 40 41 47 46 48 46 46 44 41 44 39 39 46 48 46 50 48 38 33 25 30 35 31 38 40 36 28 32
55 55 55 55 55 55 54 54 54 54 54 42 36 35 41 33 40 37 41 45 42 41 46 48 45 46 44 39 40 38 41 41 46 48 45 43 29 31 36 38 33 34 37 37 29 34 27
55 55 55 55 55 54 54 54 54 54 53 39 33 33 35 38 40 36 42 43 42 46 43 42 41 46 44 40 39 38 42 40 39 41 40 41 27 30 28 38 36 32 37 38 37 37 36
55 55 55 55 54 54 54 53 53 53 49 36 37 38 38 35 40 38 39 41 43 45 46 47 44 43 42 43 45 44 45 45 44 41 38 37 31 27 24 34 34 29 35 36 37 38 39
55 55 55 54 54 54 53 53 53 53 50 39 38 40 35 28 33 37 39 43 43 44 43 49 46 42 45 49 48 48 46 46 45 42 44 36 33 30 23 28 17 36 43 43 40 41 41
55 54 55 54 54 53 53 53 53 53 53 40 40 36 35 26 32 35 38 40 43 45 42 45 45 46 47 44 39 37 37 41 41 41 41 41 36 29 24 20 31 36 40 39 37 37 44
55 54 54 54 53 53 53 53 53 53 53 41 39 41 36 31 31 38 35 37 36 38 42 42 47 48 46 40 37 29 25 34 35 38 41 42 40 31 26 23 24 38 42 47 45 32 45
55 54 54 53 53 52 52 53 53 53 52 43 40 43 36 33 34 35 31 32 38 36 37 43 41 41 43 36 32 27 29 39 31 34 32 33 34 29 32 25 32 44 45 47 33 35 45
55 54 54 53 52 52 52 52 53 53 52 44 39 43 37 31 33 39 39 34 34 36 34 37 39 41 38 34 33 34 30 36 33 37 36 35 33 33 34 29 24 46 44 41 42 45 47
55 54 53 52 52 52 52 52 53 53 52 50 40 43 43 38 35 41 43 43 42 42 37 35 36 42 43 37 35 37 34 34 33 29 38 32 36 37 34 34 44 46 43 45 47 47 48

GFSGBSN_sfc_temp_066.txt.gz
Temp
64 64 64 63 63 63 63 62 61 61 62 62 63 62 62 62 61 62 61 60 59 59 60 59 60 60 55 44 44 63 66 66 66 63 58 54 50 54 47 51 55 50 56 59 61 58 57
63 63 63 63 62 62 62 62 62 61 61 61 61 61 61 61 60 60 60 59 59 59 60 59 59 59 49 37 58 61 62 63 64 61 57 56 52 55 51 52 52 56 56 59 57 58 58
63 63 63 62 62 62 62 61 61 61 60 61 61 61 60 60 60 60 60 60 59 59 59 60 60 57 47 44 58 60 60 59 63 62 56 58 57 55 53 50 57 55 51 53 55 57 57
62 62 62 62 61 61 61 61 61 61 61 60 60 60 60 60 59 59 59 59 59 59 59 60 60 52 41 59 57 59 59 58 62 60 60 62 58 57 50 55 51 49 49 42 54 55 58
62 62 62 62 61 62 62 61 61 60 60 59 59 59 59 59 59 59 59 59 59 59 59 60 51 46 40 61 54 58 59 55 58 57 57 61 56 50 50 45 41 43 37 39 47 55 55
61 61 61 61 61 61 60 60 59 60 60 60 59 58 58 59 58 58 59 59 58 56 56 58 54 41 48 47 53 55 58 58 52 52 50 50 49 42 45 41 34 39 38 39 44 51 51
61 61 61 61 61 60 60 59 59 59 59 59 59 57 58 58 58 58 54 48 44 41 45 42 43 44 48 52 54 52 56 53 49 45 41 47 42 37 42 45 45 45 42 42 45 53 49
60 60 60 60 60 61 60 60 59 59 58 59 58 58 57 58 58 58 50 45 46 47 37 47 48 48 49 48 42 47 55 44 41 37 43 42 37 45 47 48 46 45 41 40 46 52 51
60 60 60 60 60 60 60 59 59 60 59 58 57 57 57 57 57 51 46 47 51 51 38 42 46 44 44 46 44 43 50 47 39 36 36 39 41 49 47 44 43 41 41 40 41 46 46
59 59 59 59 59 59 59 59 59 59 58 57 57 57 56 57 49 47 45 52 52 50 31 34 39 43 46 46 40 51 51 47 40 36 36 43 47 45 43 42 43 37 47 46 44 40 33
59 59 59 59 59 58 59 58 58 58 57 57 56 56 56 56 45 47 51 52 50 47 21 37 40 50 46 40 42 42 51 46 39 39 38 38 42 42 41 43 46 42 48 45 42 38 36
58 58 58 58 58 58 58 58 58 58 57 56 56 56 56 50 47 53 55 50 49 25 22 33 39 39 39 42 41 43 46 48 48 42 43 41 46 43 42 44 45 46 43 41 40 36 26
58 58 58 58 58 58 58 57 58 57 57 56 55 56 54 52 44 55 53 45 24 24 37 35 36 41 40 36 39 42 37 36 37 32 33 38 39 43 44 40 43 42 36 26 28 28 24
57 57 57 58 58 57 57 58 57 57 56 55 55 55 53 53 51 52 45 32 20 32 31 42 41 41 36 40 40 41 39 36 41 39 34 32 31 39 42 40 40 39 36 25 21 23 25
57 57 57 57 57 57 57 57 57 56 56 55 54 45 46 49 52 47 39 22 24 25 36 36 40 35 35 40 40 41 38 36 40 39 31 29 30 40 43 45 42 38 31 39 27 25 21
56 57 57 57 56 56 56 56 56 56 56 55 41 42 44 51 50 42 31 30 30 38 40 40 35 39 34 37 38 36 37 42 40 42 41 35 29 39 41 45 44 41 44 31 24 20 20
56 56 56 56 56 56 56 56 56 56 56 55 41 40 46 51 47 37 25 27 36 44 43 40 38 39 38 40 39 36 36 42 44 42 42 39 34 34 40 37 37 37 36 34 34 28 24
56 56 56 56 56 55 55 55 55 55 55 47 37 33 47 48 36 35 32 39 45 45 45 42 42 43 40 39 38 36 36 39 47 47 40 42 36 31 34 42 45 42 39 39 27 25 23
55 55 55 56 55 55 55 55 55 55 55 40 36 35 47 45 36 32 39 42 43 43 43 43 42 44 44 40 36 38 39 45 47 45 42 44 31 23 29 36 40 37 37 39 35 29 20
55 55 55 55 55 55 54 54 54 55 55 42 36 28 37 45 44 41 37 39 40 45 44 46 44 45 42 40 42 37 37 44 46 45 50 47 36 30 24 30 33 32 36 38 34 24 28
55 55 55 55 55 54 54 54 54 54 54 42 34 31 37 28 35 38 38 42 43 41 43 45 43 43 41 36 37 36 39 40 45 47 43 41 27 29 34 36 32 34 35 36 31 37 30
55 55 55 55 54 54 54 53 53 54 52 37 31 29 33 31 37 33 41 40 39 43 42 40 39 42 41 38 38 37 39 37 37 40 38 38 27 28 28 36 35 33 36 37 36 37 36
55 54 55 54 54 54 53 53 53 53 47 34 34 36 36 33 38 38 37 38 41 44 44 45 42 40 40 41 42 42 43 43 42 40 37 36 30 26 22 32 31 27 34 36 37 38 39
55 54 54 54 54 53 53 53 53 53 47 37 36 34 29 28 29 33 37 39 41 43 41 47 44 40 43 47 45 44 43 43 43 39 41 34 31 29 22 27 18 35 40 41 39 39 40
55 54 54 54 53 53 53 53 53 53 52 39 37 34 29 24 28 31 34 37 41 44 43 44 45 44 45 43 37 34 34 36 38 38 39 39 34 27 23 20 29 34 39 38 35 36 41
55 54 54 53 53 53 53 53 53 53 52 40 38 38 33 27 27 34 31 34 32 36 39 43 46 47 44 39 35 28 25 30 30 35 38 40 37 30 24 22 22 35 40 44 43 30 42
55 54 54 53 52 52 52 52 53 53 52 42 38 41 34 27 32 33 28 28 35 35 33 40 37 41 43 36 31 27 28 35 28 30 30 35 35 29 27 22 30 41 42 45 29 33 42
55 54 54 53 52 52 52 52 52 53 52 43 39 41 37 32 32 36 38 32 32 35 31 35 37 40 38 35 34 32 29 33 31 33 32 31 31 31 32 28 22 43 42 37 41 43 44
54 54 53 52 52 52 52 52 53 52 53 49 41 45 45 38 34 39 41 42 40 40 35 36 34 36 42 36 35 36 33 32 31 28 35 31 36 32 33 32 43 44 43 44 46 48 47

GFSGBSN_sfc_temp_069.txt.gz
Temp
64 64 64 63 63 62 62 62 62 62 62 61 61 62 62 61 61 61 61 60 60 59 59 59 60 60 54 42 43 59 66 65 65 61 56 54 49 47 48 47 51 48 55 59 56 54 54
63 63 63 62 63 62 62 62 61 61 61 61 61 61 61 61 60 60 60 60 60 60 59 59 59 59 48 35 56 58 61 61 60 59 56 56 50 51 47 48 49 53 55 53 55 52 55
63 63 63 62 62 62 61 62 61 61 61 61 60 60 59 60 60 60 60 60 60 59 59 60 59 56 45 43 56 57 59 58 60 59 55 58 55 52 49 46 53 53 48 52 53 54 52
62 62 62 62 61 62 61 60 60 61 61 61 60 59 59 59 59 59 59 59 59 59 59 60 60 50 39 57 55 56 59 57 60 62 61 60 59 53 48 50 49 47 47 41 51 54 54
62 62 61 62 62 61 60 60 60 60 60 60 60 59 58 59 59 59 59 59 59 59 59 59 49 44 39 60 52 55 58 52 54 57 59 62 56 48 48 41 38 43 37 41 46 55 55
61 61 61 61 61 61 60 61 60 60 60 59 59 58 58 58 58 59 59 58 58 56 55 56 53 40 47 46 51 55 58 55 51 51 51 51 49 42 41 39 33 37 36 42 44 50 53
61 60 60 60 61 61 60 59 59 60 59 59 59 58 57 57 58 58 53 47 43 40 45 40 42 42 47 50 54 52 56 52 49 46 41 46 39 37 41 41 41 43 41 41 45 53 50
60 60 60 60 60 60 60 60 60 59 59 59 58 57 58 57 57 58 49 42 44 44 37 46 46 46 48 47 42 48 54 43 40 35 43 42 34 44 46 46 44 43 40 41 46 51 50
59 59 59 59 59 60 60 59 59 59 59 58 57 57 57 57 57 50 45 45 49 48 37 42 45 43 43 46 44 44 49 45 38 34 37 37 42 47 46 43 41 39 38 40 42 46 46
59 59 59 59 59 59 59 59 58 59 58 58 57 57 57 56 49 46 43 51 50 49 31 34 39 42 46 46 41 50 49 46 39 35 38 41 47 44 42 41 41 35 45 45 43 41 34
58 58 58 58 58 58 58 58 58 58 58 57 56 56 56 56 44 46 50 50 49 45 14 38 39 50 46 40 42 42 51 47 36 36 36 37 42 41 40 41 45 39 46 44 42 38 37
58 58 58 58 58 58 58 58 58 58 57 57 56 56 56 49 46 52 54 51 48 24 14 33 41 39 38 41 40 44 45 48 47 39 41 41 44 43 41 44 46 46 42 41 38 36 26
57 57 57 57 58 57 57 57 57 57 57 56 56 55 54 51 43 54 53 46 23 23 36 33 35 38 37 36 39 41 40 38 35 32 32 40 39 43 43 40 42 42 36 26 25 26 24
57 57 57 57 57 57 57 57 57 57 56 56 55 53 53 51 49 52 47 30 20 33 32 42 39 40 36 40 38 39 36 35 40 38 33 32 30 39 41 39 37 36 37 25 22 23 25
57 57 57 57 57 57 56 56 56 56 56 55 53 44 45 48 50 48 37 20 23 24 34 36 38 35 36 41 39 40 38 37 40 41 33 30 31 42 44 43 41 36 34 36 26 23 21
56 56 56 56 56 56 56 56 56 56 56 55 41 41 43 49 49 46 29 28 25 37 39 40 32 38 33 37 37 34 37 42 41 43 41 35 30 39 41 46 42 38 40 30 23 18 19
56 56 56 56 56 55 55 55 55 56 56 53 40 39 45 49 46 38 24 26 35 42 42 38 36 36 35 34 36 34 34 40 42 41 41 37 33 34 40 37 39 38 36 33 33 28 23
56 55 55 56 55 55 55 55 55 55 55 46 37 31 46 47 32 32 31 37 44 42 42 41 40 40 37 37 35 33 35 37 44 44 38 39 34 31 34 41 46 43 40 35 25 24 21
56 55 55 55 55 55 54 54 55 55 55 40 36 35 45 44 28 30 37 40 42 41 41 41 40 43 42 38 34 36 37 44 45 44 40 41 33 28 30 36 41 37 40 38 33 27 20
55 55 55 55 55 54 54 54 54 55 54 41 34 29 36 40 39 35 33 37 38 43 43 44 42 43 40 38 39 35 36 43 45 45 50 47 34 29 24 28 33 33 37 36 32 24 25
55 55 55 55 54 54 54 54 54 54 52 40 32 29 32 26 35 38 36 39 38 38 42 43 40 41 39 35 35 34 37 38 44 47 42 41 31 30 34 35 32 32 35 37 28 37 30
55 55 54 54 54 54 53 53 53 54 50 35 30 29 31 28 34 36 39 37 38 39 40 39 38 40 39 36 36 36 38 36 37 38 36 37 26 29 28 35 34 32 35 36 36 36 36
55 55 54 54 54 53 53 53 53 53 46 33 33 34 32 32 30 33 33 37 38 41 45 44 41 39 38 40 40 39 41 42 40 39 35 34 29 25 22 31 32 28 33 34 35 37 39
55 54 54 54 53 53 53 53 53 53 46 36 34 32 28 28 29 29 33 37 38 40 37 43 43 38 42 46 44 43 42 41 40 36 39 32 30 28 20 26 16 34 39 39 38 38 40
55 55 54 53 53 53 53 53 53 53 51 38 36 32 28 24 28 29 32 33 36 41 39 42 46 43 43 42 36 33 32 35 35 37 36 38 32 27 23 19 28 34 36 36 35 36 42
55 55 54 53 52 52 52 53 53 53 52 39 37 37 31 25 26 31 29 30 31 34 37 40 45 45 43 41 37 28 25 29 28 32 37 38 35 29 24 21 21 33 39 42 40 29 41
55 54 54 53 52 52 52 52 52 53 52 41 38 39 33 27 30 30 27 27 32 34 32 36 37 39 42 37 33 27 27 33 27 27 28 33 35 26 26 21 28 38 41 42 28 32 41
55 54 54 53 52 52 52 52 52 52 52 43 42 43 39 29 31 35 35 30 30 31 30 35 36 38 38 35 34 32 28 31 29 31 30 30 30 28 27 24 21 41 40 35 40 41 41
54 54 53 52 52 52 52 52 52 52 52 47 36 45 45 37 34 39 40 40 38 39 34 36 34 34 37 37 35 35 33 32 31 27 32 29 33 30 32 31 41 42 42 43 44 45 46

GFSGBSN_sfc_temp_072.txt.gz
Temp
63 64 63 63 63 62 62 62 62 61 62 61 62 61 61 61 61 61 61 61 60 60 59 60 60 60 53 41 42 56 65 65 63 60 56 53 51 46 43 47 49 44 51 57 58 55 53
63 63 63 63 62 63 62 62 61 61 61 62 61 60 60 60 60 60 60 60 60 60 59 59 60 59 47 35 54 56 60 60 60 57 56 55 54 51 46 47 47 50 52 56 53 53 54
63 63 62 62 62 61 61 61 61 61 61 61 61 59 59 59 60 60 60 60 60 59 59 60 59 55 44 42 55 55 59 58 59 57 53 57 55 51 48 45 51 51 46 49 50 51 51
62 62 62 62 62 62 60 61 60 61 61 61 60 60 58 58 59 59 59 59 59 59 59 60 59 49 38 55 53 55 55 55 59 57 57 59 57 52 48 48 47 46 46 39 48 51 51
62 61 61 61 61 61 62 60 60 60 60 60 59 59 59 58 58 58 59 59 59 58 59 59 49 43 38 59 51 53 53 52 54 54 59 62 55 48 50 41 37 42 35 37 43 53 49
61 61 61 61 61 61 61 61 60 60 60 60 59 58 58 57 57 58 58 59 59 55 55 55 52 39 46 44 50 52 54 53 49 49 51 51 48 41 40 37 32 35 32 34 39 47 48
61 60 60 60 60 60 61 61 59 59 59 59 58 58 58 57 57 58 52 46 42 41 43 39 40 41 45 49 51 50 54 49 48 45 40 46 37 35 39 39 39 39 38 37 42 50 48
60 60 60 60 60 60 60 60 60 58 59 58 58 57 57 57 57 57 48 41 42 44 36 45 45 45 47 46 41 48 54 41 39 38 39 41 34 42 44 44 42 41 37 35 44 50 48
60 59 60 59 59 59 59 59 59 58 58 58 57 57 57 56 57 49 44 44 48 48 37 41 44 42 42 44 42 44 49 44 37 35 36 38 39 47 44 41 40 36 36 36 38 45 47
59 59 59 59 59 59 59 59 59 59 58 57 57 57 56 56 48 45 42 49 49 48 30 34 39 42 45 44 39 50 48 44 38 35 37 40 44 44 42 40 41 33 43 43 42 39 33
59 59 58 58 58 58 58 58 58 58 58 57 57 56 56 56 43 46 50 49 48 44 19 37 39 50 45 40 41 42 50 45 36 37 37 37 38 40 40 41 44 39 44 42 41 37 35
58 58 58 58 58 58 57 58 58 58 57 57 56 56 55 48 46 51 53 52 47 22 15 33 40 39 39 41 41 43 45 47 46 38 38 39 47 44 41 43 44 45 41 42 39 36 28
58 58 57 57 57 57 57 57 57 57 57 56 56 55 54 50 43 54 53 46 21 20 36 32 33 38 37 35 37 39 38 37 35 31 31 38 39 43 44 40 43 41 35 25 25 24 25
58 57 57 57 57 57 57 57 57 57 56 55 55 53 53 51 51 53 47 31 19 30 30 41 40 38 35 37 38 39 37 34 40 34 33 32 30 39 40 39 36 39 38 24 21 22 24
57 57 56 56 56 56 56 57 56 56 56 55 52 43 45 47 52 50 38 17 23 25 33 35 39 36 36 39 39 39 37 36 38 40 32 31 32 42 43 42 40 35 34 35 24 21 20
57 56 56 56 56 56 56 56 56 56 55 54 41 40 42 50 51 46 28 28 25 35 38 40 30 35 32 37 36 35 37 42 38 41 42 35 31 39 43 44 41 38 40 31 23 17 18
57 56 56 56 55 55 55 55 55 56 55 52 40 38 44 51 50 37 22 27 34 41 41 37 34 35 33 34 34 32 32 38 41 39 40 37 34 34 41 36 34 37 32 32 32 27 23
56 56 55 55 55 55 55 55 55 55 55 45 37 31 44 46 36 30 30 36 44 40 41 39 38 37 35 35 34 34 33 36 42 42 36 38 34 31 35 41 41 39 36 33 24 22 20
56 56 55 55 54 54 54 54 55 55 53 39 34 34 43 43 27 29 36 39 41 40 40 39 38 41 40 36 32 34 35 42 45 43 39 40 30 27 29 35 38 36 39 36 32 27 19
56 55 55 54 54 54 54 54 54 54 53 40 34 29 35 37 36 32 32 35 37 42 42 42 40 41 39 36 38 34 35 41 44 43 49 45 32 29 24 28 33 33 38 40 33 31 27
56 55 55 54 54 54 53 54 54 53 51 40 31 28 31 26 32 33 34 37 37 37 41 42 39 39 37 33 33 32 35 37 42 46 40 40 30 30 32 33 31 31 35 38 34 36 32
55 55 55 54 54 53 53 53 53 53 49 34 30 28 29 27 31 31 36 33 35 37 38 38 37 39 38 35 34 34 36 34 35 37 36 37 28 32 30 35 33 31 34 35 37 38 38
55 55 54 54 53 53 53 53 53 52 46 32 31 32 31 30 29 31 33 33 37 38 41 42 39 37 37 38 39 39 39 40 38 38 34 33 29 26 23 31 31 27 32 33 35 39 39
55 55 54 54 53 53 53 53 53 51 45 36 33 30 27 28 30 29 32 34 37 37 35 41 41 37 40 43 41 40 40 39 39 36 38 31 29 28 21 26 17 35 39 39 37 37 39
55 55 54 53 53 52 53 53 53 52 50 37 34 32 27 24 28 29 30 32 34 37 36 38 44 41 42 40 36 33 31 33 34 35 34 36 31 26 22 18 28 32 35 36 35 35 40
55 55 54 53 52 52 52 52 53 52 50 38 36 35 30 26 26 30 27 28 27 31 34 38 44 42 41 38 38 32 24 28 28 30 35 36 34 29 24 20 21 31 37 40 38 30 39
55 55 54 53 52 52 52 52 52 52 50 40 36 38 32 27 29 29 26 26 30 31 32 37 37 38 40 36 34 32 28 31 26 27 28 30 34 30 28 22 28 37 38 40 27 31 40
55 54 54 53 52 52 52 52 52 52 50 42 37 41 36 29 30 34 34 29 29 29 26 35 36 37 38 34 34 31 27 29 27 29 29 29 27 29 27 27 21 40 38 33 39 40 41
54 54 53 52 52 52 52 52 52 52 51 45 35 41 43 36 34 37 38 39 38 36 32 32 33 33 36 35 35 34 31 30 29 26 30 28 32 29 31 30 40 40 41 41 42 42 42

GFSGBSN_sfc_temp_075.txt.gz
Temp
63 64 63 63 63 63 63 63 62 62 61 62 62 61 61 61 61 61 60 61 61 61 60 60 60 60 54 43 44 58 64 63 62 58 56 53 50 50 46 51 51 50 54 57 56 56 54
63 63 63 63 63 63 62 62 61 62 61 62 61 61 59 60 60 60 60 60 60 60 60 60 60 59 48 37 55 57 59 58 59 54 55 55 51 53 50 50 50 52 55 54 55 53 54
63 63 62 62 62 62 62 61 61 61 61 61 60 60 60 59 59 60 60 60 59 59 60 60 59 55 45 44 55 55 58 56 57 56 52 57 56 53 52 47 53 54 48 49 52 51 50
62 62 62 62 62 62 62 61 60 60 61 61 60 59 59 59 59 59 59 60 59 58 59 60 59 50 40 56 55 56 56 56 56 58 57 58 57 53 50 53 50 48 47 42 49 52 50
62 62 62 61 61 61 61 62 61 61 60 60 59 59 59 58 58 58 58 59 59 58 59 59 49 45 40 59 52 54 54 52 55 56 56 61 54 49 49 43 41 43 38 39 43 53 49
62 61 61 61 61 61 61 61 61 61 60 60 59 58 58 58 57 58 58 58 59 55 54 55 52 41 46 44 50 53 54 53 49 50 51 51 46 42 41 40 33 35 37 40 42 47 49
62 61 61 60 60 60 61 61 61 60 59 59 58 57 57 57 57 57 52 46 42 40 44 39 40 41 45 49 52 49 53 50 49 45 38 45 37 36 41 43 44 41 41 42 44 49 47
61 61 60 60 60 60 60 60 60 59 59 58 58 57 57 57 57 57 47 41 42 44 35 44 45 44 47 47 41 47 54 42 39 37 43 39 34 42 45 46 43 43 39 40 46 49 48
61 60 60 60 59 59 59 59 59 59 58 58 57 57 57 57 56 49 43 43 48 47 36 41 44 42 43 45 41 43 48 43 36 35 39 38 39 44 44 43 41 40 39 38 41 45 48
61 60 59 59 59 59 59 59 59 58 58 57 57 57 56 56 49 44 42 49 48 48 26 35 39 42 45 44 39 50 50 45 36 35 39 41 43 40 42 41 43 37 44 44 42 40 34
60 59 59 58 58 58 58 58 58 58 57 57 57 56 56 56 43 44 50 48 48 44 14 37 39 50 45 41 41 43 50 46 36 37 38 37 39 38 39 42 45 41 45 43 42 39 40
60 59 58 58 58 57 57 57 58 58 57 57 56 56 55 48 45 51 52 52 45 23 15 33 39 38 38 40 42 43 45 48 46 40 40 39 46 44 44 44 46 45 42 42 39 39 31
59 58 58 57 57 57 57 57 57 57 57 56 56 55 52 49 43 53 52 45 23 20 35 33 33 37 36 35 38 39 39 36 32 31 32 38 39 43 45 42 44 43 38 29 27 28 28
59 58 57 57 57 57 57 57 57 57 56 56 54 54 52 50 52 53 47 31 19 31 32 42 39 36 34 36 37 39 36 32 38 36 35 32 30 40 43 41 39 40 38 28 23 24 28
58 57 56 56 56 56 56 56 56 56 56 55 53 43 44 47 52 50 39 18 22 24 33 37 39 34 35 38 38 38 36 36 37 37 32 32 32 42 43 43 42 38 32 38 27 26 26
58 57 56 56 56 56 56 56 56 56 55 54 41 40 42 51 52 45 30 28 25 35 38 39 33 37 32 36 36 36 36 41 37 40 42 37 31 40 42 44 43 40 42 32 27 21 22
58 57 56 55 55 55 55 55 55 56 55 52 40 38 43 51 50 39 22 28 34 40 40 36 36 36 33 33 34 32 33 39 42 40 43 40 37 35 42 37 36 37 34 34 34 31 27
57 56 56 55 54 54 54 55 55 55 54 46 37 31 43 49 36 32 29 34 43 39 40 40 38 37 35 35 33 32 34 37 43 43 38 40 38 32 34 42 42 40 37 35 28 25 24
57 56 55 55 54 54 54 54 55 55 53 38 34 34 42 46 26 28 34 38 40 39 39 39 38 40 39 36 32 34 36 42 43 42 39 40 31 28 31 38 38 36 38 36 33 29 22
57 56 55 54 54 54 54 54 54 54 52 39 33 28 34 36 34 31 32 33 35 41 40 41 39 40 38 36 37 35 35 41 44 43 48 44 33 30 25 29 33 32 35 36 34 29 28
56 56 55 54 54 53 53 53 54 53 52 39 31 28 30 25 31 31 33 35 35 35 40 41 38 38 35 32 33 32 36 38 43 46 42 40 28 28 34 35 33 33 35 36 32 36 32
56 56 55 54 53 53 53 53 53 52 49 34 30 29 28 27 30 29 34 32 34 36 36 36 36 38 36 34 33 33 35 35 36 38 37 37 27 30 28 34 33 32 34 35 37 38 38
56 55 55 54 53 53 53 53 53 52 46 31 30 32 31 29 29 29 28 31 37 36 40 40 37 36 36 37 37 37 39 39 38 38 34 34 30 28 24 31 32 28 34 34 35 38 39
55 55 55 54 53 53 53 53 52 51 44 35 32 30 29 27 30 30 30 33 35 35 35 39 40 36 38 42 41 39 39 38 38 35 37 31 30 29 23 28 19 36 40 39 37 39 41
55 55 54 54 53 53 53 53 52 51 49 36 33 31 28 24 29 29 29 29 33 34 34 37 42 39 40 38 35 33 31 33 34 34 34 36 31 27 23 20 29 34 36 35 35 38 40
55 55 54 53 53 52 52 52 52 51 49 37 34 34 30 27 26 30 27 26 26 27 31 37 42 41 40 37 38 33 24 28 28 31 35 35 34 30 25 21 21 33 38 41 40 31 42
55 55 54 53 52 52 52 52 52 51 49 39 36 37 32 27 29 28 26 27 29 29 27 33 34 36 39 34 32 32 31 30 26 27 27 30 32 29 31 28 29 37 39 41 28 33 41
55 54 54 53 52 52 52 52 52 51 50 41 37 38 34 29 29 33 34 29 29 28 26 30 34 36 37 32 31 31 28 29 27 29 29 29 26 26 28 27 23 40 39 35 40 41 42
54 54 53 52 52 52 52 52 52 51 51 44 36 40 41 33 33 36 36 37 36 35 30 29 32 32 35 34 36 35 30 29 28 26 30 28 33 29 31 30 40 41 42 43 43 42 43

GFSGBSN_sfc_temp_078.txt.gz
Temp
64 64 63 63 63 63 63 63 62 62 62 62 62 61 62 61 61 61 61 61 61 61 60 60 60 60 58 50 52 64 63 65 66 61 55 54 54 58 53 58 59 57 61 64 66 62 63
64 63 63 63 63 63 63 63 62 61 62 61 62 60 61 61 60 60 60 60 60 60 60 60 60 59 54 44 63 65 64 62 60 56 55 55 52 63 59 58 56 60 59 63 60 59 60
64 63 63 63 62 62 63 62 61 61 61 61 61 60 60 59 60 60 60 60 59 59 60 60 59 60 51 50 64 64 62 60 56 55 53 57 54 57 62 56 62 60 51 56 57 58 58
64 63 63 62 62 62 62 62 62 61 61 61 61 60 59 59 59 59 59 59 59 59 59 60 59 57 49 62 66 62 63 57 58 58 56 58 55 57 58 60 58 55 57 44 57 57 55
63 63 62 62 62 61 62 62 61 61 61 60 60 59 59 59 59 58 58 59 59 59 59 59 56 52 47 63 57 60 62 55 54 56 58 61 54 52 55 52 48 51 47 50 50 59 53
63 63 62 61 61 61 61 61 61 61 60 60 59 59 58 58 57 58 58 59 59 58 58 59 57 47 53 49 56 57 60 57 52 50 50 50 46 45 51 49 40 44 47 48 49 52 54
63 63 62 61 61 60 61 61 61 60 60 59 59 58 58 57 57 58 57 57 51 48 51 46 46 46 49 55 57 54 57 53 51 47 39 44 38 38 48 54 55 52 48 45 51 52 53
63 62 61 60 60 60 60 60 60 60 59 59 58 57 58 57 57 56 56 51 50 52 43 49 49 49 51 52 46 50 57 46 44 37 43 39 35 45 52 53 52 52 49 49 52 55 54
62 62 61 60 60 59 59 59 59 59 59 58 57 57 57 57 56 55 53 51 56 55 45 44 48 47 48 50 45 44 50 45 38 38 37 38 40 48 50 48 49 50 49 49 49 52 54
61 61 61 60 59 59 59 59 59 59 58 57 57 57 56 56 51 54 51 55 56 56 36 36 42 46 48 48 42 47 49 46 38 37 40 42 44 43 47 47 52 43 53 52 49 49 43
61 61 60 59 58 58 58 58 58 58 58 57 57 56 56 56 53 51 54 57 56 53 27 37 41 53 49 44 45 42 52 48 37 38 42 38 39 38 43 48 53 48 52 51 51 50 47
61 60 60 59 58 57 57 57 58 58 57 57 56 56 55 54 54 54 57 57 54 33 25 33 41 41 42 44 45 46 47 48 49 43 42 41 47 42 49 50 52 53 50 49 48 45 37
60 60 59 58 57 57 57 57 57 58 57 56 55 55 55 56 51 56 56 52 33 30 39 33 34 40 39 38 41 41 40 41 39 33 32 39 39 45 48 46 51 52 48 34 31 32 36
60 59 58 58 57 57 56 56 57 57 56 56 54 55 54 56 55 55 54 41 31 35 34 42 37 37 34 39 38 39 39 36 44 40 36 34 30 39 49 47 45 48 49 39 30 32 39
59 59 58 57 57 56 56 56 56 56 56 54 53 54 53 53 55 54 46 33 33 35 40 40 37 34 34 37 40 41 40 39 42 42 36 35 33 43 47 48 49 43 41 46 38 36 38
59 58 57 57 56 56 55 55 55 56 55 54 53 52 50 53 54 49 39 34 35 40 43 43 37 40 38 39 38 37 41 45 40 43 46 42 33 41 44 47 49 48 50 39 38 30 31
58 58 57 57 56 55 55 55 55 55 55 52 52 48 49 52 52 43 36 36 40 45 46 41 40 39 39 37 41 40 41 42 44 43 46 46 43 36 45 42 44 44 43 44 45 40 37
58 57 57 56 55 54 54 54 55 55 53 51 49 40 48 50 39 38 42 42 45 45 46 45 45 45 44 43 42 42 41 44 48 48 42 46 44 34 36 46 48 47 45 48 38 35 38
58 57 56 56 55 54 54 54 54 55 54 50 47 43 49 47 37 41 44 44 46 45 45 44 45 47 48 44 40 43 44 48 50 48 46 48 41 32 32 41 45 42 46 46 44 40 34
58 57 56 55 54 54 53 54 54 54 52 52 47 38 44 44 46 42 42 41 42 47 47 48 46 49 47 44 46 42 43 47 49 50 49 50 44 40 36 38 44 37 42 44 41 34 40
57 56 56 55 54 54 53 53 53 53 52 52 46 40 41 37 42 42 43 42 41 41 47 48 46 45 45 42 43 42 44 46 49 49 48 49 37 38 41 41 39 39 40 42 35 41 36
56 56 55 55 54 54 53 53 53 52 51 48 44 41 41 41 39 41 41 40 40 41 43 43 43 44 46 43 44 42 46 46 46 48 47 46 37 38 36 41 40 37 43 43 44 44 44
56 55 55 55 54 53 53 53 52 51 50 45 40 42 46 36 39 42 40 39 39 41 44 46 44 45 44 43 47 49 50 49 50 48 46 44 41 37 34 38 39 35 42 43 44 47 46
54 55 55 54 54 53 53 53 52 50 49 47 43 45 45 37 41 40 38 39 40 40 39 45 47 46 46 50 49 50 50 49 49 46 49 43 42 40 35 36 27 43 47 47 45 47 50
54 55 55 54 54 53 53 53 52 51 48 45 42 45 44 38 40 36 37 38 40 41 41 40 46 47 49 48 45 42 42 42 42 44 45 47 44 37 34 33 40 44 42 42 41 44 50
54 54 55 54 53 53 53 53 52 51 49 46 43 45 46 42 39 39 38 37 40 40 41 42 48 49 48 47 44 36 35 37 37 38 43 43 45 41 35 29 29 42 46 48 48 39 50
54 54 54 54 53 53 53 52 52 51 49 47 43 44 46 40 39 39 39 38 39 38 39 40 40 43 47 44 38 37 37 41 36 36 36 38 39 36 37 33 38 48 49 49 36 42 51
54 54 54 53 53 53 52 52 52 51 49 48 43 45 44 40 39 39 40 38 37 39 38 38 39 40 41 39 39 40 39 41 39 40 39 39 37 36 37 33 28 49 45 42 51 52 52
54 54 53 53 53 52 52 52 52 51 50 47 42 46 47 42 40 43 44 45 44 43 40 37 35 34 36 35 38 40 40 40 39 36 41 37 44 42 42 42 50 51 53 55 52 52 52

GFSGBSN_sfc_temp_081.txt.gz
Temp
65 65 64 64 63 63 63 63 62 62 62 62 62 61 61 61 61 61 61 61 61 61 61 61 61 60 60 53 54 68 65 67 68 60 54 55 55 57 54 59 63 58 64 68 67 68 68
65 65 64 63 63 63 63 63 62 62 62 62 62 61 60 60 60 60 60 61 60 60 60 60 60 59 58 47 66 68 66 65 62 58 54 55 54 62 60 61 60 62 64 65 64 66 66
64 64 64 63 63 62 62 62 62 62 62 62 61 61 60 59 60 60 60 60 60 60 60 61 60 63 55 54 67 67 65 63 59 55 54 54 53 50 62 59 64 63 56 60 61 62 61
64 63 64 63 63 62 62 62 62 62 62 61 61 60 60 59 59 59 59 59 59 59 59 60 59 61 52 65 69 65 66 61 58 54 52 54 54 51 61 65 59 55 57 48 57 62 60
64 63 63 63 62 62 62 61 61 61 61 61 60 59 59 59 58 59 58 59 59 59 59 60 58 56 50 64 59 63 65 57 57 54 54 56 51 49 59 54 48 51 46 50 53 62 57
64 63 63 63 62 61 61 61 61 61 61 60 60 59 59 58 58 58 58 58 59 59 60 63 61 49 56 52 58 60 64 60 54 50 48 46 45 41 50 50 40 46 50 53 51 55 57
64 63 63 62 61 61 61 61 60 60 60 59 59 58 58 58 58 57 57 58 52 49 54 50 50 50 52 58 61 56 60 55 54 43 39 43 37 35 50 56 58 57 54 53 59 60 55
64 63 62 62 61 61 60 60 60 60 60 59 58 58 58 58 57 57 59 54 54 56 46 52 52 52 55 56 49 52 60 47 47 35 43 39 35 44 55 58 54 55 49 48 54 57 56
63 63 62 61 61 60 60 59 59 59 59 58 57 57 57 57 56 55 57 55 61 59 48 47 51 50 51 53 47 47 52 47 42 36 38 37 40 49 51 52 50 52 51 51 51 54 57
63 62 61 61 61 60 59 59 58 58 58 57 57 57 57 56 51 59 54 59 61 60 36 38 45 48 51 52 40 48 51 46 41 36 39 43 44 47 48 50 55 48 58 56 52 48 42
62 62 61 61 60 59 58 58 58 58 58 57 57 56 56 55 57 53 57 61 61 56 28 39 44 56 53 45 46 41 50 47 38 39 39 37 39 42 45 50 56 51 58 55 54 51 51
62 61 60 60 59 58 58 57 57 58 58 57 56 56 56 56 58 59 62 60 56 33 25 34 44 44 45 47 47 47 45 48 49 42 45 42 48 45 49 55 56 55 53 53 53 50 37
61 61 60 59 59 58 57 57 57 57 57 56 55 56 56 61 52 60 61 53 33 31 41 34 36 43 43 42 44 40 39 40 38 33 33 38 39 44 49 47 53 53 47 35 33 33 36
61 60 59 59 58 57 57 57 57 56 56 55 56 56 55 60 59 60 56 42 30 38 35 41 40 41 39 44 42 43 42 41 45 40 35 33 30 41 51 49 46 50 50 39 31 33 39
60 59 59 58 58 57 57 56 56 56 55 54 54 59 58 55 58 57 46 34 34 37 44 39 39 35 37 40 43 44 43 43 46 47 39 36 33 44 48 52 52 47 43 50 42 44 41
59 59 58 58 58 57 56 56 56 55 55 54 57 55 53 56 56 53 40 35 38 46 48 47 38 43 39 42 42 41 44 49 44 47 51 46 33 40 48 51 52 49 55 41 40 31 32
59 59 58 58 57 56 56 55 55 55 55 54 56 47 51 55 56 46 36 41 45 49 49 43 44 41 47 44 45 43 46 46 47 46 49 49 45 37 47 39 43 46 44 47 48 43 37
58 58 58 57 56 56 55 55 55 55 54 52 54 40 50 54 40 42 46 47 47 48 50 48 49 50 47 47 46 46 44 47 50 49 45 50 46 34 39 50 52 51 50 50 39 38 42
58 58 57 57 56 55 55 55 55 55 54 56 51 44 48 48 38 44 48 47 50 48 49 48 48 50 52 48 44 47 47 51 52 50 46 51 42 31 34 44 49 45 50 50 50 42 38
57 57 57 56 55 55 54 54 54 54 55 55 52 38 45 44 50 46 46 46 45 50 50 51 50 52 50 47 50 46 46 49 53 52 50 51 46 42 36 40 47 41 46 49 44 35 41
56 56 56 55 55 54 54 54 54 54 54 55 52 49 49 38 46 48 48 48 46 44 51 52 49 50 49 45 46 45 48 48 51 50 51 51 39 40 43 45 42 42 44 46 38 42 38
56 55 55 55 55 54 54 54 53 54 53 53 49 48 48 48 47 48 44 46 46 45 47 47 47 49 51 47 47 45 49 50 48 51 51 52 39 40 37 45 43 39 45 46 46 47 46
55 54 54 54 54 54 54 53 53 53 53 53 50 50 52 43 47 47 47 47 45 47 48 50 49 50 47 46 50 52 54 54 54 51 49 48 44 39 36 42 42 36 43 46 47 50 48
55 54 54 54 54 54 53 53 52 53 53 56 53 54 51 44 47 47 44 46 45 45 45 49 51 50 48 54 54 55 55 53 53 51 53 47 45 44 37 39 28 46 51 50 48 51 53
54 54 54 53 54 54 53 53 52 52 51 53 50 52 54 46 48 42 43 45 45 46 46 45 49 51 53 51 48 44 44 45 47 49 50 51 48 41 35 36 43 47 48 46 44 46 54
54 54 53 53 54 54 53 53 52 50 50 52 49 51 55 47 44 47 44 45 45 46 45 46 51 54 52 51 46 38 36 42 39 42 48 47 48 43 38 31 30 45 49 52 51 40 53
54 54 53 53 53 53 53 52 52 51 51 52 47 48 54 46 45 46 45 43 45 45 46 45 46 47 51 46 39 38 40 45 38 38 38 40 41 36 37 34 41 52 51 53 37 42 53
54 53 53 53 53 53 53 52 52 51 51 52 45 50 51 47 43 45 45 43 42 44 43 42 43 45 46 41 40 41 42 45 42 46 43 42 39 39 40 34 30 52 49 42 51 55 55
53 53 52 52 53 53 53 52 51 51 50 51 46 51 54 48 44 48 48 48 46 45 45 43 39 37 37 40 43 43 43 45 44 38 47 38 47 43 45 45 53 54 55 58 58 54 55

GFSGBSN_sfc_temp_084.txt.gz
Temp
66 65 65 64 64 64 63 63 63 62 62 62 62 62 61 61 61 61 61 61 61 61 61 61 61 61 57 51 52 67 67 68 66 62 56 51 51 51 49 53 57 53 57 60 61 56 61
66 64 64 64 64 64 63 63 63 62 62 62 62 61 61 60 60 60 60 60 61 61 60 61 61 60 54 44 66 68 66 65 61 59 55 54 51 55 53 56 55 59 59 60 60 56 55
66 65 64 64 64 63 63 62 62 62 62 62 62 61 60 60 60 60 60 60 60 60 60 60 61 60 53 52 67 67 66 60 58 53 51 56 53 48 51 53 62 62 54 58 53 54 54
66 65 64 64 64 63 63 62 62 62 62 62 61 61 60 60 59 59 60 59 59 60 60 60 61 58 48 65 66 65 66 59 59 55 50 54 55 50 49 56 59 52 53 45 55 54 55
66 65 64 64 63 63 62 62 61 61 61 61 61 60 59 59 59 59 59 59 59 60 60 60 56 55 48 63 59 63 64 57 57 54 52 55 52 47 49 43 45 47 41 45 49 58 56
66 66 64 63 63 63 62 62 61 61 61 60 60 59 59 59 59 58 58 58 59 58 59 62 60 48 52 51 58 60 63 60 53 51 46 45 44 38 43 43 34 40 42 46 46 50 52
66 66 64 63 62 62 62 61 61 61 60 60 59 58 58 58 58 58 56 54 49 48 54 49 49 50 54 58 62 57 60 56 52 45 36 40 35 34 42 49 51 49 48 46 51 55 51
65 65 64 62 62 62 61 61 61 60 60 59 58 58 58 58 58 57 56 49 52 54 45 53 53 53 56 56 48 53 58 47 46 34 36 38 34 42 50 53 53 52 47 45 49 55 53
65 65 64 62 62 62 61 60 60 59 59 59 58 57 57 57 57 55 53 56 60 60 44 48 52 51 51 53 46 46 50 48 40 35 38 36 39 45 47 46 47 50 47 43 44 50 52
64 64 64 62 62 61 60 60 59 59 58 58 57 57 57 56 51 56 53 60 60 59 35 39 45 48 52 52 39 49 52 46 42 36 40 39 44 41 44 45 50 43 54 53 50 44 37
64 64 63 61 61 60 59 59 58 58 58 57 57 57 57 56 52 52 56 60 60 53 23 40 44 58 54 45 42 43 50 47 40 39 39 36 41 42 44 48 53 47 54 52 50 44 44
64 64 62 61 60 59 59 58 58 58 58 57 56 56 56 55 55 58 61 60 54 33 23 34 45 45 45 48 45 45 44 46 47 41 44 41 48 44 43 52 53 53 49 50 48 44 28
63 63 62 60 60 58 58 58 57 57 57 56 55 55 55 61 51 60 59 50 32 29 41 35 36 44 45 42 41 40 40 40 36 31 32 38 38 45 48 45 50 48 43 28 25 23 26
63 62 61 59 59 58 58 57 57 57 56 55 55 56 55 59 59 59 53 40 30 37 35 42 41 43 39 44 42 45 43 39 44 41 34 32 29 40 48 45 42 44 43 30 24 24 29
62 61 60 58 58 58 58 57 57 56 55 54 55 55 55 54 58 56 45 32 33 36 42 40 40 37 38 42 43 44 43 40 42 44 35 33 32 44 47 48 47 42 35 44 35 35 29
61 61 59 58 58 58 57 57 56 56 55 54 53 53 50 56 57 51 39 35 36 46 49 46 36 40 37 40 41 40 42 47 44 47 48 43 30 40 45 48 49 46 48 35 32 23 24
59 60 58 57 58 57 57 56 56 56 55 55 50 46 49 55 54 44 35 40 45 50 51 45 44 43 43 41 43 41 43 45 47 45 47 46 39 36 44 39 39 41 39 42 41 34 26
60 59 58 57 57 57 56 56 56 56 55 52 50 38 50 54 39 41 41 47 47 48 51 49 48 49 46 46 43 44 44 44 49 48 42 46 41 31 36 46 49 47 42 43 29 30 31
60 59 57 56 56 56 56 56 56 55 55 52 47 43 49 49 35 40 46 47 50 47 48 48 48 50 50 46 41 45 45 50 50 47 44 46 38 30 31 39 44 40 45 46 43 35 29
57 58 57 55 55 55 55 55 55 55 56 50 48 36 41 43 46 42 44 44 44 49 50 51 50 51 48 45 47 44 43 48 50 50 50 47 42 35 26 32 39 35 42 44 38 28 32
57 58 56 55 55 55 55 55 55 55 55 49 47 42 45 35 41 45 47 48 45 43 49 51 47 49 47 42 44 43 46 45 48 49 46 45 34 32 37 42 38 37 40 42 34 38 29
57 56 56 54 54 55 55 54 54 54 55 47 44 43 44 45 48 46 44 44 46 45 47 46 46 48 48 44 43 42 46 44 43 46 43 46 32 34 31 43 41 35 40 41 42 43 42
56 56 55 54 54 55 54 54 54 54 53 47 46 48 44 44 43 43 43 46 47 48 47 50 49 47 45 45 47 47 49 50 48 45 43 42 37 31 27 37 38 30 39 41 42 45 44
54 56 55 54 54 55 54 54 54 54 53 50 48 48 43 37 42 43 46 47 46 46 45 49 50 46 46 51 50 48 47 47 47 45 49 41 39 36 26 30 19 39 47 46 43 45 48
55 56 54 53 53 54 54 54 53 54 53 49 47 45 45 40 42 42 44 45 45 44 45 47 48 48 50 46 42 38 38 39 43 44 44 45 39 32 26 26 35 41 42 41 38 40 48
55 55 54 53 53 53 54 53 53 54 53 48 46 46 45 42 38 46 42 43 39 40 41 45 49 49 47 44 41 31 29 36 34 37 43 44 42 33 29 25 24 37 44 47 44 31 47
55 54 53 53 52 53 53 53 52 52 52 49 44 46 44 38 40 42 38 38 41 41 41 44 43 43 46 39 36 32 33 39 32 32 31 33 35 28 29 29 33 44 47 47 28 33 46
55 54 53 52 53 53 53 52 52 52 52 49 43 47 45 39 38 44 45 38 38 39 36 38 39 41 40 37 37 34 34 37 34 38 35 34 32 31 31 26 24 45 43 37 43 46 47
54 53 52 52 53 53 53 52 52 52 52 52 42 50 51 41 39 46 46 46 44 42 39 38 37 37 37 36 37 37 36 36 36 29 41 32 39 34 37 37 46 47 46 49 49 48 48

GFSGBSN_sfc_temp_087.txt.gz
Temp
66 66 66 65 64 64 64 64 63 63 63 63 63 63 62 62 61 61 61 61 61 61 61 61 61 61 55 46 48 64 68 67 65 59 54 50 47 46 45 47 52 49 51 54 58 58 57
67 67 66 65 64 64 64 64 63 63 62 62 62 62 61 61 61 60 60 61 61 60 61 61 61 60 50 39 60 63 63 62 58 57 53 52 48 51 48 50 48 53 55 56 58 55 56
67 67 66 66 64 63 64 63 63 62 62 62 62 61 61 60 60 60 60 60 60 60 60 60 61 58 48 46 61 62 65 59 56 54 50 54 52 47 47 49 56 55 50 54 52 55 54
67 67 66 66 65 63 63 62 62 62 62 62 62 61 60 60 60 59 60 60 59 59 60 60 61 53 43 62 58 61 62 56 56 54 51 52 52 49 46 51 51 49 49 42 50 52 54
66 66 66 66 65 63 62 61 62 62 62 61 61 60 60 59 59 59 59 59 59 60 60 60 52 47 43 63 58 59 59 55 54 53 52 54 52 45 47 42 41 45 39 41 44 53 52
65 66 66 65 65 64 63 62 62 62 61 61 60 60 59 59 59 59 59 58 58 58 57 59 57 45 50 50 55 58 61 58 52 50 47 44 43 37 40 40 34 37 40 44 43 48 50
64 65 66 65 65 63 63 62 62 61 61 60 60 59 59 58 59 59 54 49 44 42 48 44 46 47 51 55 58 55 57 54 51 45 36 38 36 33 36 39 42 46 45 44 48 52 48
62 64 65 65 64 63 62 61 62 61 60 60 59 58 58 58 58 58 54 45 49 48 42 52 52 52 55 54 46 50 54 45 44 34 36 37 33 41 45 45 46 48 44 43 49 52 49
62 63 64 64 64 62 61 61 61 60 60 59 58 58 57 57 57 51 48 51 55 53 41 47 51 49 49 52 43 44 48 46 40 35 35 34 38 46 45 45 46 44 43 40 45 47 48
61 61 63 64 64 62 60 60 60 60 59 58 57 58 57 57 50 51 50 55 55 53 32 38 44 47 50 46 39 49 50 45 41 35 38 36 44 44 43 43 44 39 48 45 45 43 34
60 61 62 63 63 61 60 60 59 59 58 58 57 57 57 57 50 50 54 55 54 47 12 40 44 56 51 44 42 43 50 46 38 39 39 36 39 40 41 44 48 43 49 45 45 43 41
60 60 61 62 63 60 59 59 59 58 57 57 57 56 56 52 52 56 55 53 48 27 18 32 42 43 43 44 43 45 45 46 47 42 43 39 45 42 42 47 48 48 48 47 44 38 27
59 60 60 62 62 59 58 58 58 58 57 56 55 55 54 58 49 55 54 44 30 19 38 35 33 44 42 38 40 41 40 38 36 27 30 37 37 42 46 42 46 44 37 28 27 24 26
57 59 60 61 61 59 57 57 58 57 57 55 55 55 54 56 53 53 46 33 20 35 32 41 40 40 35 42 42 41 38 36 40 38 34 27 25 39 44 41 40 41 41 26 22 22 27
57 59 59 60 60 58 57 57 57 57 56 55 55 48 48 49 54 49 41 22 25 31 39 36 38 32 33 39 40 40 36 36 39 41 30 28 32 44 46 45 44 39 30 42 31 30 24
57 57 58 60 59 58 57 57 57 56 55 55 45 49 46 53 51 44 36 32 31 41 45 43 33 37 31 35 35 35 37 42 40 44 43 37 31 41 44 46 47 44 45 32 27 23 23
56 57 58 60 58 57 56 57 57 56 55 55 46 43 48 53 49 41 31 32 41 48 47 44 38 37 37 36 38 36 36 41 43 42 42 41 35 34 43 36 38 40 37 39 38 32 26
56 57 57 59 57 56 55 56 57 56 56 51 46 36 48 51 37 37 32 42 47 45 47 44 43 43 41 40 37 37 38 40 44 44 38 42 35 32 33 43 45 43 41 39 27 29 27
56 56 58 57 56 55 55 56 56 56 55 45 43 40 48 47 31 31 40 44 46 44 44 44 43 46 48 43 39 41 40 46 46 44 39 42 31 23 30 36 41 38 41 42 39 33 27
56 56 56 57 55 55 55 56 56 56 56 48 40 34 40 42 40 34 38 39 40 46 46 48 45 46 43 41 43 40 39 46 47 46 50 46 37 30 23 30 36 32 40 42 36 26 30
55 56 56 56 55 54 54 55 55 55 56 46 41 35 40 33 33 36 40 42 40 39 45 47 43 44 42 37 39 42 42 41 45 48 45 42 30 29 35 39 35 35 37 39 30 36 29
55 55 55 55 55 54 54 55 55 55 55 43 39 37 39 36 40 36 40 39 41 42 43 42 41 45 43 38 37 39 41 38 39 40 40 42 30 31 29 39 38 33 37 38 38 39 38
55 55 55 56 55 54 54 54 54 55 52 41 42 43 41 39 37 35 36 41 46 44 44 46 44 42 40 41 41 41 42 45 46 42 39 39 34 28 23 35 35 29 36 38 38 41 40
54 54 55 56 54 53 54 54 54 54 52 45 44 42 38 34 35 38 42 44 45 43 40 45 45 42 42 46 45 43 42 44 44 42 47 40 38 34 24 27 17 36 43 43 41 43 44
53 54 54 55 54 53 54 54 54 54 54 45 43 42 38 34 36 38 41 39 40 41 40 43 44 43 45 42 38 34 34 36 39 41 40 41 36 30 25 22 31 36 39 39 37 38 43
54 53 54 55 53 52 53 54 54 54 54 45 41 42 40 37 33 37 38 38 34 33 36 41 45 46 43 40 37 29 26 31 30 33 40 41 38 31 26 23 23 35 41 44 41 30 44
54 53 53 54 53 52 53 54 54 54 53 45 40 43 40 34 34 37 34 34 37 36 34 38 39 40 42 35 32 27 30 37 29 29 29 30 31 26 27 23 30 40 43 45 27 32 44
53 54 54 53 53 52 53 52 53 54 52 46 40 43 41 32 34 39 39 34 34 34 32 35 37 38 36 33 34 32 29 33 31 34 32 31 27 27 27 23 21 43 41 34 41 44 46
52 54 53 53 52 52 52 51 50 53 52 48 39 46 46 37 36 42 42 42 40 38 35 35 33 35 36 32 33 33 32 31 31 27 36 30 35 31 34 34 44 45 46 49 49 45 45

GFSGBSN_sfc_temp_093.txt.gz
Temp
65 65 65 65 65 66 66 65 63 62 62 63 63 63 62 62 61 61 62 61 61 61 60 60 61 61 53 43 43 59 67 64 61 57 51 48 44 43 39 40 45 45 49 53 52 52 54
65 64 64 64 65 65 66 66 65 62 61 61 63 62 62 61 61 60 61 60 60 61 60 60 60 60 47 36 55 57 59 59 56 53 52 50 46 47 42 42 42 47 50 52 53 51 55
63 63 64 64 64 64 64 65 65 62 61 61 62 62 61 61 60 60 60 60 60 60 59 60 60 56 45 43 55 57 59 55 54 53 50 50 50 46 45 41 48 48 43 49 48 50 51
63 63 63 63 63 63 63 64 64 62 61 60 61 62 61 60 59 59 60 60 59 59 59 60 60 50 40 57 55 56 55 53 54 53 52 51 51 47 44 46 44 42 44 38 49 48 50
62 62 62 62 62 62 63 63 63 62 61 60 60 61 60 60 59 59 59 59 59 59 59 59 49 44 39 60 53 55 54 52 52 51 51 54 49 43 43 36 37 39 34 38 42 48 47
62 62 62 61 61 61 62 63 63 63 61 60 59 59 60 59 58 59 59 58 57 56 56 57 54 40 47 46 52 55 54 54 49 47 46 44 42 35 35 36 29 34 35 39 41 45 45
61 61 61 61 61 61 61 61 62 63 61 59 59 59 59 58 58 58 53 47 43 41 44 42 43 43 47 52 54 50 52 49 49 44 36 40 34 31 34 38 37 41 37 36 41 47 43
61 61 60 60 59 60 60 60 61 61 60 59 58 58 58 58 58 57 50 43 45 46 38 48 48 48 51 51 43 48 52 43 42 34 37 36 32 38 41 39 38 41 38 38 44 46 46
60 60 60 60 60 59 60 60 60 60 60 58 57 56 58 58 57 51 46 47 52 50 37 44 48 46 47 48 41 43 47 43 38 34 35 34 38 42 38 36 37 38 40 41 41 45 45
60 60 59 59 59 58 58 59 59 59 59 57 56 56 58 57 49 48 45 52 51 50 22 35 41 45 48 46 38 48 48 42 36 34 37 39 43 39 36 38 42 36 46 45 42 39 35
59 59 59 59 58 57 57 58 58 58 58 57 56 56 57 57 47 45 51 51 50 44 10 38 40 52 48 43 43 43 48 44 37 39 39 36 39 36 36 40 44 40 48 44 42 38 37
58 59 58 57 57 57 57 57 57 58 57 56 55 56 57 52 48 50 51 51 45 21 12 28 40 40 40 43 43 45 44 45 46 42 43 40 45 42 40 44 46 48 44 41 39 37 28
57 58 56 56 56 55 56 56 56 57 57 55 55 56 53 53 44 51 50 42 24 14 35 30 32 39 38 37 40 39 39 39 36 32 31 37 37 44 44 41 46 44 39 29 27 27 28
56 57 54 53 54 54 55 55 56 57 56 55 55 56 54 54 50 50 44 31 14 30 27 38 37 37 31 38 38 39 36 33 39 36 29 30 24 39 43 39 39 37 37 29 24 22 25
56 56 55 53 53 53 55 56 56 57 55 54 54 48 47 47 50 48 37 19 22 28 35 34 35 30 31 36 36 37 33 33 37 38 32 27 30 43 45 44 42 38 34 39 30 29 25
56 57 56 55 54 55 55 56 58 55 54 54 47 45 44 49 49 43 30 29 28 38 40 39 31 33 28 31 32 33 33 37 38 40 38 33 28 38 43 46 45 39 44 32 30 26 22
57 57 57 56 54 53 56 57 56 55 54 54 48 40 45 49 47 38 25 28 35 43 43 38 34 32 33 32 33 31 33 38 40 40 40 36 32 32 39 35 35 40 35 34 33 28 24
57 57 57 56 54 55 56 57 55 55 54 51 44 35 46 47 36 34 29 35 44 41 43 41 40 38 36 35 34 32 32 35 42 41 35 37 33 24 30 39 41 39 35 34 25 26 22
56 57 56 55 55 55 56 55 55 55 55 47 40 40 47 46 27 28 34 40 42 40 40 40 39 42 41 37 33 35 35 43 44 41 36 38 29 19 26 33 39 35 37 37 33 30 23
56 56 55 55 54 55 56 54 54 55 55 48 40 34 40 42 41 33 34 36 37 43 42 43 42 42 40 37 39 35 35 41 44 43 48 44 32 29 22 28 33 31 34 36 33 22 27
56 55 54 55 54 56 55 54 54 55 55 48 40 33 38 32 35 36 35 38 36 37 41 43 39 41 39 34 35 34 37 37 42 45 41 39 29 26 32 34 33 33 33 34 27 33 29
55 55 54 54 54 55 54 54 54 55 54 44 37 34 35 32 35 33 33 36 37 38 39 38 38 41 39 36 37 35 37 34 35 39 37 38 27 28 28 35 33 32 34 34 34 34 35
55 54 54 54 54 54 53 53 54 54 52 42 39 40 39 35 32 32 33 36 40 41 42 43 42 39 38 39 39 39 39 41 39 38 36 35 31 27 23 30 32 26 32 33 33 35 36
55 54 54 54 54 54 53 53 54 54 51 45 40 40 36 31 33 34 38 40 40 40 38 40 42 40 40 44 43 42 41 41 41 38 40 35 32 29 21 27 16 33 38 39 37 39 39
55 54 54 54 55 54 53 53 54 54 53 44 40 40 37 30 33 36 38 37 38 38 38 39 41 40 43 41 36 33 31 34 35 36 36 37 32 27 23 21 28 32 36 35 32 35 39
55 55 54 53 54 53 54 54 54 54 53 44 40 39 39 36 31 34 35 35 33 32 34 37 42 42 42 37 34 28 24 29 27 29 36 36 34 32 24 21 21 31 38 40 38 28 40
54 54 54 53 54 53 53 52 53 54 53 45 40 41 38 30 30 33 33 34 35 34 32 35 36 38 39 32 30 26 27 32 26 27 27 28 28 25 26 24 28 36 39 40 25 29 39
54 53 54 54 54 53 53 53 54 53 52 46 41 43 39 31 32 35 36 33 34 35 33 35 37 37 34 32 30 29 27 30 27 29 29 29 25 25 25 22 20 38 37 30 35 38 39
53 53 54 53 53 53 52 53 54 53 53 49 41 45 45 35 33 38 38 38 38 36 34 32 33 33 34 32 30 30 30 28 27 25 30 28 32 29 30 29 38 37 38 40 40 38 39

GFSGBSN_sfc_temp_096.txt.gz
Temp
64 64 63 64 63 64 64 64 64 64 65 63 62 61 61 62 62 61 61 61 61 61 60 60 60 60 52 41 42 58 66 63 59 56 50 47 42 41 37 39 42 40 44 50 53 53 52
64 64 64 63 64 63 63 63 63 64 64 63 61 61 60 61 61 61 61 60 60 60 60 60 60 59 46 35 53 56 57 57 56 52 50 49 44 45 41 40 40 43 45 48 52 53 51
63 63 63 63 63 63 63 62 62 62 64 64 61 61 59 59 60 60 60 60 60 59 59 59 60 55 43 42 53 54 57 54 53 51 48 51 50 45 43 39 46 45 40 45 48 51 47
62 62 62 62 62 62 62 62 62 62 62 63 61 60 59 59 59 59 59 60 59 58 59 59 59 49 38 55 53 54 54 52 52 53 51 52 51 46 45 45 41 39 42 35 46 49 49
62 62 62 62 61 61 61 61 61 61 61 62 61 60 59 58 58 59 59 59 59 58 59 59 48 43 38 58 51 54 54 51 50 51 51 53 49 43 43 37 34 36 28 33 41 49 45
62 62 62 61 61 61 61 61 61 61 61 61 61 59 57 57 58 58 58 58 57 56 55 56 53 39 45 45 50 53 53 53 48 46 46 43 39 37 37 34 26 28 31 34 38 44 45
61 61 61 61 61 60 61 61 60 60 60 61 60 58 56 56 57 58 54 48 43 41 43 41 42 42 46 51 52 49 51 48 47 43 35 39 32 30 33 37 37 35 35 35 40 46 42
60 60 61 61 60 60 60 60 59 60 60 60 59 57 56 56 57 58 50 42 45 46 37 46 46 46 49 50 43 48 52 41 40 34 37 35 31 39 39 40 38 37 35 38 41 45 43
59 59 60 60 60 60 60 59 59 59 59 59 58 56 55 55 57 51 46 46 50 48 37 42 46 45 45 48 42 43 46 42 37 34 33 32 36 42 37 37 36 36 37 38 38 42 45
59 58 59 59 59 59 59 59 58 58 58 58 58 56 55 55 49 47 45 51 51 49 21 34 39 44 47 46 38 49 49 42 36 34 36 36 42 39 35 37 42 33 43 42 40 37 33
58 58 58 57 57 58 58 58 57 57 58 57 57 56 55 55 48 45 50 50 49 44 10 37 39 51 47 41 41 42 48 43 36 38 37 35 37 36 35 39 42 37 45 43 41 38 37
58 58 58 55 56 56 55 55 57 56 57 57 56 55 54 51 49 49 50 50 45 21 11 27 39 39 39 42 43 45 43 45 45 40 42 37 37 38 40 43 44 46 42 39 38 36 28
57 58 57 57 56 55 53 55 56 56 57 56 56 55 52 53 45 49 49 42 24 13 34 29 32 38 37 36 39 40 39 39 34 30 30 37 39 44 42 40 44 42 35 25 25 26 25
57 57 57 57 56 55 55 55 55 56 56 56 55 54 52 53 51 49 44 32 14 29 26 36 36 36 31 37 37 38 36 33 37 33 26 22 27 38 44 40 38 37 36 26 23 24 26
57 57 56 56 56 56 55 54 54 55 55 55 54 48 47 48 50 47 37 20 21 27 34 34 34 30 31 35 34 35 32 32 35 37 28 26 31 43 43 44 42 38 29 37 28 28 24
57 57 56 57 57 56 54 53 54 55 56 54 47 46 45 50 48 42 31 28 28 36 38 38 30 31 27 31 32 32 32 36 37 39 36 32 31 40 44 46 44 41 41 29 27 22 21
56 57 57 57 57 56 55 54 55 56 54 54 47 41 46 49 47 38 27 27 34 41 41 37 32 30 31 30 31 29 31 37 39 39 38 34 31 33 37 35 35 36 35 33 32 28 25
56 57 57 57 55 54 54 55 56 55 54 51 43 34 46 48 36 37 31 33 43 39 41 39 38 37 34 33 32 30 30 33 41 40 35 36 31 27 29 38 40 38 34 33 26 26 22
56 57 56 56 54 54 55 55 55 55 54 46 39 39 47 46 29 31 32 38 40 39 39 39 37 40 39 35 32 33 34 42 42 40 35 37 28 19 26 33 37 34 35 34 32 28 22
56 56 56 54 54 55 56 55 55 55 53 46 40 34 39 42 41 31 32 34 36 41 41 41 39 40 38 35 36 33 33 41 43 41 47 43 31 28 21 28 31 31 34 34 31 22 26
56 55 53 54 55 56 56 55 55 54 53 46 39 33 37 32 35 36 33 36 35 35 40 40 38 39 38 31 32 32 35 37 42 44 39 38 28 25 31 33 33 33 34 32 26 30 26
56 55 54 54 55 56 55 55 54 54 52 43 36 33 35 32 36 37 36 34 35 37 38 36 36 38 37 35 35 34 35 32 33 39 35 36 26 28 28 33 33 32 32 32 33 33 33
55 54 54 55 55 55 55 54 54 52 50 41 38 39 37 38 31 35 31 35 38 40 39 41 41 38 37 37 38 39 36 39 38 35 34 33 30 26 22 29 30 26 31 32 32 33 34
55 55 54 54 55 54 54 54 53 52 50 44 39 39 34 32 32 33 36 38 38 38 37 38 40 38 39 42 41 40 40 39 39 36 38 33 30 29 21 26 16 32 36 37 35 37 37
55 55 55 54 54 54 54 54 52 53 53 43 39 38 35 33 33 33 37 36 37 37 36 37 39 38 41 39 35 32 31 33 34 34 34 35 31 26 23 19 27 30 34 34 32 33 37
55 55 55 55 54 54 54 54 53 54 53 43 39 38 38 36 32 31 34 35 32 31 33 36 41 41 40 36 33 27 24 27 26 29 35 35 33 29 24 21 20 30 35 38 36 26 36
54 54 54 54 54 54 53 53 53 54 52 44 40 40 37 30 30 31 32 33 34 34 32 34 35 37 38 32 30 26 26 29 26 25 25 28 27 25 26 23 27 34 37 38 24 27 36
53 54 54 54 54 54 54 53 53 53 52 47 40 41 38 30 32 34 35 32 34 34 33 35 36 37 34 32 30 28 26 28 26 27 27 28 24 24 24 21 19 35 35 29 33 35 37
53 53 53 55 53 53 53 53 54 53 53 50 40 44 43 35 33 38 37 37 36 35 34 32 33 33 35 31 30 30 30 27 26 24 28 27 31 28 29 29 36 35 36 38 37 35 35

GFSGBSN_sfc_temp_099.txt.gz
Temp
63 64 64 64 63 63 63 63 62 62 63 64 64 64 62 61 61 60 60 61 62 61 61 60 60 60 53 43 44 58 65 63 59 56 51 48 44 42 38 40 43 41 45 49 52 53 54
62 62 63 63 63 63 63 63 62 62 62 63 63 64 61 60 59 59 59 61 61 60 60 59 60 59 48 37 54 57 57 57 57 54 51 49 45 46 41 40 40 45 46 46 49 51 53
63 62 62 62 62 62 62 62 62 62 62 62 63 62 61 59 59 59 59 60 60 60 60 59 60 55 44 43 55 55 57 55 55 53 49 51 51 44 44 39 46 45 40 44 46 49 49
62 62 62 62 62 61 62 61 61 61 61 62 62 62 60 59 58 58 58 59 60 59 59 59 59 49 39 55 54 55 55 53 54 54 52 52 52 46 41 45 41 38 40 34 44 48 50
61 61 62 62 62 62 61 61 61 61 61 61 61 61 61 58 56 56 56 58 59 59 59 59 48 44 39 58 52 54 54 51 51 51 51 54 49 40 40 36 34 37 30 34 40 50 44
61 61 61 61 61 61 61 61 61 60 60 60 60 59 60 57 56 55 56 57 57 56 55 55 52 40 46 45 51 53 53 53 48 47 45 44 40 36 36 34 25 30 31 36 38 44 45
61 60 60 60 61 61 61 61 60 60 60 59 59 59 58 57 56 55 53 49 44 42 44 40 41 42 46 51 53 50 52 48 47 43 35 39 32 29 32 36 37 34 36 37 42 46 43
60 60 60 60 60 60 60 60 60 60 59 59 58 58 57 57 56 55 50 44 46 47 37 44 45 45 49 50 42 47 52 41 39 34 38 34 31 37 41 40 37 32 35 37 43 46 45
60 59 59 60 59 59 59 59 59 59 58 58 58 58 57 56 55 51 46 47 52 48 37 42 46 45 45 48 42 43 47 42 37 33 34 31 36 40 37 37 35 32 35 37 38 42 44
59 59 58 59 59 59 57 57 58 58 57 58 57 57 56 55 49 47 45 52 51 48 22 34 39 44 46 46 39 49 50 43 37 33 35 34 38 38 35 35 37 32 42 44 40 39 33
58 58 58 57 58 58 57 57 57 57 57 57 57 57 55 55 46 44 50 51 48 44 11 37 39 51 46 42 43 44 50 42 36 36 35 35 37 34 35 38 42 38 44 42 41 39 38
58 57 57 57 58 57 57 57 56 56 57 57 56 57 55 50 48 49 51 49 45 22 11 27 39 39 40 42 43 46 43 44 45 37 36 35 40 40 40 43 43 46 41 40 40 38 30
57 56 57 57 57 57 57 56 56 56 56 56 56 56 53 52 45 50 50 42 24 14 33 30 32 38 37 37 40 40 40 39 34 30 30 35 36 43 43 40 44 42 37 28 27 27 29
56 55 57 57 58 57 55 56 56 55 55 55 56 54 52 51 50 50 44 32 15 29 27 36 35 36 33 37 37 37 35 32 37 34 30 29 30 38 44 40 38 38 37 28 23 25 28
55 56 57 57 57 57 56 56 54 53 54 54 55 48 47 48 50 48 36 19 22 27 34 33 35 32 32 35 35 35 33 32 35 36 30 32 32 43 43 44 42 38 32 39 30 31 29
56 57 57 57 58 58 57 55 53 53 53 54 47 46 45 49 50 43 29 28 27 35 37 37 32 31 28 32 32 32 32 36 36 39 37 35 32 39 43 44 45 42 43 32 30 24 23
56 56 56 57 57 56 55 54 54 54 54 54 46 39 45 49 49 36 23 27 33 39 40 36 32 31 30 30 31 30 31 37 38 38 39 35 34 35 40 36 35 38 36 34 33 30 29
56 56 57 56 55 54 54 55 55 56 55 52 43 34 46 48 34 32 31 32 42 38 40 38 38 36 33 33 31 30 31 34 41 39 35 37 33 29 32 39 41 39 35 34 28 28 25
56 57 54 53 53 53 54 55 56 56 56 46 38 39 46 46 31 32 33 36 39 38 37 38 37 39 38 34 31 33 34 41 42 40 35 38 29 22 28 34 38 36 37 35 33 31 25
56 54 53 54 54 55 55 55 56 57 56 47 40 33 39 42 40 31 31 33 34 40 39 40 38 40 37 34 36 32 33 40 42 41 46 42 31 28 22 29 33 33 35 35 32 26 29
55 53 54 55 57 56 55 56 55 54 54 46 40 35 39 32 35 31 31 35 34 34 39 40 37 38 35 31 31 32 35 37 41 43 39 38 28 26 31 34 34 35 35 35 27 33 29
55 54 55 57 57 56 56 54 54 53 53 43 37 36 37 35 41 33 37 32 34 35 37 34 36 38 36 34 33 33 35 33 33 39 35 36 27 28 28 33 34 33 34 34 35 35 35
55 55 55 56 56 55 54 53 53 53 51 41 40 38 37 39 38 36 36 34 37 39 39 40 39 37 36 36 37 37 36 37 37 35 34 33 30 28 24 30 32 28 33 34 34 35 36
55 55 55 56 55 55 53 53 54 53 50 45 40 37 33 32 37 39 36 36 37 36 37 37 39 37 38 41 39 39 39 37 37 35 36 33 30 29 22 27 18 33 37 37 36 35 36
55 55 55 55 55 55 53 54 55 54 53 41 37 37 34 33 34 33 34 35 35 36 35 36 38 37 41 38 35 32 31 33 34 33 34 35 31 27 23 21 28 31 35 35 34 32 35
55 55 55 54 54 55 54 54 54 54 52 41 37 36 37 35 34 29 33 32 32 30 32 35 40 40 39 35 33 27 24 27 26 29 35 35 33 29 24 21 21 31 36 39 38 28 36
54 55 54 54 55 55 55 53 53 54 53 43 39 38 37 29 28 29 31 33 34 33 31 33 34 37 37 32 30 26 26 28 26 26 25 28 27 25 26 22 27 35 37 39 27 30 36
54 54 54 55 54 54 54 54 53 53 53 45 40 40 37 30 31 33 33 31 34 34 33 35 36 37 33 32 30 28 26 28 25 27 27 28 24 24 24 22 20 37 35 32 35 36 36
54 53 54 54 54 54 54 54 53 54 54 49 39 43 42 35 33 37 36 36 34 34 34 32 34 33 34 31 30 29 29 26 25 24 28 26 31 28 29 29 36 36 36 37 37 35 35

GFSGBSN_sfc_temp_102.txt.gz
Temp
63 63 63 62 62 63 63 63 62 62 63 63 63 63 63 63 62 61 59 59 60 60 61 61 60 60 58 50 53 66 65 66 65 62 58 54 50 49 45 48 50 48 52 55 56 56 57
63 62 62 62 62 62 62 62 62 62 62 62 62 62 62 63 61 59 58 58 59 60 60 60 60 59 54 44 64 65 64 63 62 59 56 55 51 53 48 47 46 52 52 53 54 54 56
63 62 62 62 62 61 61 61 61 61 62 62 62 62 61 62 60 59 59 58 58 58 59 60 60 59 51 52 64 65 62 62 62 60 55 58 57 50 48 44 52 50 44 50 51 53 52
61 62 62 61 61 61 61 62 61 61 61 61 61 60 61 61 59 58 58 57 56 58 58 60 60 57 48 61 65 61 63 60 61 60 58 58 57 51 45 49 44 43 44 38 50 52 53
61 61 61 60 60 60 61 61 61 61 60 61 60 60 60 61 58 57 55 54 56 58 59 59 55 52 47 62 56 63 63 57 58 57 56 58 54 44 39 35 34 41 35 37 44 54 52
61 61 61 61 60 60 60 61 61 61 61 60 60 59 59 59 57 56 55 55 57 57 58 59 57 46 53 51 57 59 61 58 54 52 50 48 44 36 36 33 30 34 36 41 40 49 50
61 61 60 60 61 60 60 60 60 60 60 60 59 59 57 58 57 56 54 50 48 46 50 48 49 48 51 57 58 55 57 54 53 48 39 44 33 31 34 40 42 36 40 41 46 52 48
60 59 59 59 60 60 59 60 59 59 59 59 59 58 58 57 56 56 51 46 51 52 44 50 50 50 54 55 47 51 57 47 44 38 43 35 31 40 43 42 41 33 38 41 47 50 51
60 60 59 59 59 59 59 59 58 58 58 58 58 58 58 57 56 52 48 50 56 56 45 46 51 50 51 53 46 47 52 45 40 36 37 32 36 38 38 38 37 35 37 43 43 46 50
59 58 58 58 58 58 56 57 57 57 57 57 57 57 56 55 50 48 46 54 57 56 37 41 44 49 51 51 44 51 51 45 38 34 36 34 38 36 36 38 40 35 44 47 45 45 38
58 58 57 56 56 57 58 57 57 57 56 57 57 57 56 55 48 45 50 57 56 54 27 41 44 56 51 46 46 46 51 42 35 35 34 35 36 34 34 39 44 43 48 47 46 44 44
57 56 56 56 56 57 57 57 56 56 56 56 56 56 54 51 50 50 55 56 54 34 26 34 45 44 44 45 45 48 44 45 44 35 38 36 43 41 43 48 46 48 43 44 46 43 34
55 55 56 56 56 57 57 56 54 55 56 55 56 56 53 55 46 50 55 52 33 29 38 36 39 43 44 43 44 44 42 42 38 33 32 35 38 43 46 43 47 46 39 31 31 32 31
55 56 57 57 57 57 56 54 55 56 55 54 55 54 52 52 51 52 54 42 29 35 35 42 42 43 42 43 43 44 43 42 46 40 35 34 31 38 45 44 43 45 44 36 28 31 34
56 56 56 56 57 56 56 55 54 53 53 54 54 49 49 48 50 52 48 32 33 36 42 41 42 41 40 43 42 44 42 42 44 44 38 38 33 42 46 48 48 44 39 44 38 40 38
56 56 57 57 57 56 56 53 52 53 53 54 47 46 45 49 50 51 42 34 36 41 43 43 40 42 39 41 41 42 42 45 43 46 47 42 33 40 43 50 50 48 48 40 40 33 30
57 56 55 55 54 54 55 54 54 53 54 54 46 40 45 50 50 47 35 37 40 45 45 44 42 41 41 41 41 40 40 44 46 46 49 45 44 37 44 42 40 45 44 42 43 41 39
53 52 53 53 52 53 53 54 55 54 55 50 44 35 46 48 39 43 40 39 44 44 47 46 47 45 44 43 41 41 40 43 49 47 44 46 44 35 39 46 47 46 43 43 40 36 37
55 55 56 56 53 53 54 54 55 56 56 47 40 40 47 48 34 38 40 40 44 44 45 46 45 47 47 43 40 42 42 49 49 47 45 47 41 36 38 44 47 44 44 45 43 42 34
56 56 58 57 56 56 56 56 56 57 57 51 42 34 40 44 46 42 38 40 41 47 46 47 46 48 46 43 45 41 42 47 49 48 46 49 42 38 36 36 41 39 43 45 41 38 42
55 58 57 57 56 56 56 56 56 56 55 51 44 38 42 34 39 41 40 42 41 41 46 48 46 47 45 42 42 41 44 46 49 48 48 48 37 36 40 41 41 42 42 43 36 41 40
55 57 57 56 56 56 55 55 55 55 54 47 41 42 45 42 45 40 40 42 43 42 44 44 45 46 47 44 44 42 44 45 44 50 46 47 37 38 37 42 43 40 42 42 42 42 43
55 55 56 56 56 56 55 54 55 54 53 45 48 49 50 41 41 39 42 43 44 46 45 47 48 47 45 45 48 48 49 48 47 46 44 43 42 39 34 39 40 38 40 42 42 44 43
55 55 55 56 56 56 55 55 54 54 53 49 48 51 46 36 40 42 43 43 44 45 44 45 48 48 47 51 51 52 51 50 50 46 47 43 41 40 36 39 30 40 45 44 42 41 44
55 55 55 55 55 55 55 55 54 53 52 48 46 49 47 38 42 42 42 43 44 45 43 43 45 46 52 49 47 42 44 44 44 44 45 47 44 38 36 36 37 39 43 43 42 40 42
55 55 55 55 54 54 55 54 54 53 51 48 46 46 50 42 40 39 42 44 44 44 44 43 48 50 50 48 45 37 37 37 38 40 45 45 46 44 36 32 32 41 45 48 48 39 43
55 55 54 55 55 54 54 54 54 54 53 51 46 45 48 40 39 38 43 44 44 44 43 44 46 47 48 46 41 39 39 39 37 36 37 40 40 37 38 35 40 46 46 48 36 40 44
54 54 54 54 55 55 54 54 54 54 53 52 46 47 47 39 38 39 39 42 43 46 45 44 46 46 46 43 42 41 40 41 38 39 39 39 38 37 36 33 32 47 44 41 46 45 45
54 54 54 55 54 54 54 54 54 55 54 52 48 48 48 43 39 43 43 43 41 42 45 41 43 43 46 44 43 43 41 39 39 39 40 37 43 42 41 43 45 47 47 46 48 46 44

GFSGBSN_sfc_temp_105.txt.gz
Temp
63 64 63 63 63 63 63 62 62 62 62 63 63 63 63 61 62 62 60 60 60 60 61 61 61 60 59 52 55 68 66 67 67 64 60 57 54 54 48 53 55 51 54 58 59 59 59
63 62 62 62 62 62 62 61 61 61 62 62 62 62 62 61 62 60 59 59 59 60 60 60 60 59 55 45 68 70 68 66 65 62 60 59 55 57 51 51 50 54 55 55 57 57 58
63 62 62 62 61 61 61 61 61 61 61 62 62 61 61 61 61 59 59 59 58 58 59 60 60 60 53 54 68 69 66 65 66 63 57 61 60 53 54 48 55 52 46 51 52 54 54
62 61 62 61 61 61 61 59 60 61 61 61 61 61 60 60 59 59 59 58 57 58 59 59 60 58 50 65 69 64 67 63 65 65 61 62 60 54 50 51 48 42 44 38 50 53 54
61 61 61 61 60 60 60 60 60 61 60 61 61 60 60 60 60 58 57 57 56 58 58 60 56 54 49 62 58 65 67 59 61 61 60 61 56 49 46 37 34 40 34 39 44 55 53
61 60 60 60 59 60 61 60 60 59 59 60 60 60 59 58 59 57 56 57 58 59 59 61 60 49 55 53 60 62 66 62 57 56 52 51 47 40 38 32 29 32 35 41 41 49 52
60 59 59 59 59 59 59 59 59 59 59 59 59 59 58 58 57 56 54 53 49 47 52 50 52 52 54 60 62 58 62 57 56 51 42 47 35 32 38 40 39 39 40 39 44 52 48
59 59 59 58 58 58 59 59 58 58 58 58 58 58 58 56 56 56 52 47 53 55 44 53 53 54 58 59 50 54 60 48 46 37 44 36 31 43 40 41 38 35 37 39 46 50 50
57 57 57 57 58 56 57 57 57 57 58 58 58 57 58 57 56 52 50 50 59 58 49 48 53 53 54 55 49 50 53 49 43 37 36 33 38 39 37 40 38 39 38 40 33 49 53
56 56 57 57 57 56 56 55 57 57 57 57 57 57 56 56 50 51 46 53 59 59 39 42 47 52 53 52 45 57 54 48 39 34 36 35 41 37 36 38 43 38 48 38 39 44 37
55 57 56 56 56 56 56 57 57 56 56 56 57 57 55 56 50 48 49 58 58 54 29 45 47 59 55 46 51 49 55 43 35 36 35 36 37 36 36 42 46 42 51 45 46 45 44
57 57 56 57 57 56 57 56 56 56 56 56 56 56 54 53 51 50 54 59 54 37 28 36 49 46 45 49 50 51 46 46 43 37 38 38 44 41 43 49 49 47 45 38 40 40 36
58 57 57 57 57 57 56 55 55 55 56 55 56 56 52 55 46 51 55 53 35 33 42 38 41 47 49 47 48 48 45 39 37 33 34 37 40 46 48 43 44 36 36 32 31 30 32
57 58 57 57 56 56 55 53 54 56 55 55 54 54 54 52 51 51 55 43 32 39 39 46 46 47 44 47 48 48 47 38 43 42 39 35 31 37 48 43 38 35 42 34 26 29 34
53 53 55 56 56 55 56 56 55 55 54 54 53 50 48 48 50 50 48 35 34 40 46 44 45 45 44 47 46 48 47 44 47 48 37 35 33 47 50 51 50 46 39 46 41 46 37
55 53 52 53 55 55 54 54 54 54 54 54 48 47 44 49 50 50 45 37 40 46 47 49 43 47 43 45 46 47 47 49 46 51 49 43 33 45 49 53 53 48 50 41 42 34 30
56 58 55 53 54 54 55 54 54 54 54 53 47 41 45 50 50 48 38 41 45 49 49 47 46 46 47 45 47 46 46 49 50 49 53 47 43 40 49 45 41 46 45 47 46 44 39
58 58 59 53 54 54 54 54 54 55 55 51 46 36 47 49 40 46 46 43 45 48 51 50 51 50 48 47 46 46 44 47 53 52 47 50 46 37 41 50 51 49 47 48 40 40 45
58 58 58 55 54 54 54 54 55 56 55 50 41 40 48 49 37 44 45 45 47 48 49 50 49 51 52 48 44 47 47 52 53 50 47 49 44 36 40 47 51 47 50 50 48 46 39
57 58 57 57 55 55 55 55 56 56 57 55 46 35 40 48 52 47 42 43 44 50 50 51 50 53 50 48 50 45 47 51 52 52 47 51 46 42 37 37 43 42 46 49 44 39 44
56 57 57 57 57 56 56 55 56 56 57 59 53 41 46 37 43 47 43 47 44 45 51 52 50 51 49 46 47 46 49 51 53 51 52 53 39 39 44 45 43 44 44 47 39 47 41
55 57 57 58 57 57 57 57 57 56 56 56 51 47 49 46 48 46 43 45 46 46 48 48 48 50 52 47 47 46 49 50 48 54 51 52 40 41 41 46 46 42 46 47 46 47 47
56 55 56 57 57 56 55 55 55 55 56 56 56 57 56 44 47 45 47 47 47 50 49 51 52 52 48 48 53 54 55 54 52 50 49 49 45 42 36 44 44 40 42 45 45 46 46
56 56 56 56 56 56 55 55 54 54 58 62 58 59 52 41 45 46 47 48 49 49 48 50 52 52 50 57 56 57 56 54 54 52 53 48 46 44 39 42 31 42 49 48 45 45 48
55 55 55 56 55 56 55 55 54 54 55 58 56 57 54 44 48 47 47 48 49 50 48 48 49 51 56 53 50 46 47 47 48 49 50 52 48 42 38 39 41 42 44 44 44 44 48
55 55 55 55 55 54 55 55 55 53 53 56 52 53 57 49 46 50 48 50 49 50 48 47 52 55 54 52 49 40 40 41 42 45 49 49 51 45 40 35 34 46 48 52 51 41 48
55 55 55 55 55 54 54 55 54 54 54 56 51 51 55 48 45 47 47 47 51 52 50 49 50 50 53 50 44 42 43 44 40 40 41 43 44 40 42 38 44 50 50 52 38 41 49
54 54 54 55 55 54 54 54 55 54 53 55 51 53 51 48 43 44 44 47 49 51 50 49 49 50 50 45 45 46 44 46 42 45 43 43 41 41 41 37 34 51 47 43 48 50 50
54 54 55 55 55 54 54 54 55 55 55 55 53 54 55 49 44 48 47 47 45 45 48 48 47 49 50 49 49 49 45 46 44 42 46 40 47 45 45 46 49 53 51 51 53 51 49

GFSGBSN_sfc_temp_108.txt.gz
Temp
64 63 63 62 62 62 62 62 62 62 62 62 62 63 62 62 62 62 61 61 62 62 61 61 61 61 58 53 55 66 68 67 67 64 60 57 52 51 45 49 52 48 51 55 56 57 56
63 63 63 62 62 61 61 61 61 61 62 62 62 62 62 61 61 61 60 61 61 60 61 61 61 60 56 46 67 68 68 65 65 61 59 58 54 55 48 48 46 50 51 51 53 53 55
63 62 62 60 59 60 59 61 60 60 61 61 61 61 61 61 61 61 61 61 60 60 60 61 61 60 53 53 68 68 67 64 65 62 56 60 59 52 51 45 52 49 42 46 48 50 49
63 63 61 60 59 58 58 58 60 59 60 61 61 61 61 60 60 59 60 59 58 58 60 60 60 58 50 65 67 65 66 63 65 64 60 61 60 52 48 49 45 40 40 32 45 49 50
62 62 60 60 60 58 58 57 58 60 60 60 60 61 60 60 59 58 58 57 58 59 59 60 56 54 49 62 58 64 65 59 61 60 60 62 57 47 47 36 33 37 27 34 40 50 49
62 61 59 59 59 59 58 58 58 60 59 59 59 60 59 58 58 58 57 57 59 59 60 61 60 48 55 53 59 63 65 62 56 55 51 49 46 38 38 33 21 27 31 34 34 46 48
60 59 58 57 58 57 57 56 59 58 58 59 59 59 58 56 58 57 55 51 47 47 53 48 51 52 55 59 62 57 62 57 55 50 39 45 32 28 34 38 38 36 34 33 40 49 44
59 59 57 58 58 57 56 56 55 57 57 59 58 58 57 54 57 56 52 47 52 54 42 51 55 55 58 60 50 55 60 48 45 36 41 36 30 40 43 41 38 35 32 33 41 45 45
58 59 58 58 58 56 57 57 57 56 57 58 58 57 58 57 56 52 48 50 58 58 47 47 53 53 54 56 49 51 53 49 40 36 36 33 38 42 38 36 35 35 34 35 33 39 45
58 58 59 58 58 56 56 54 53 55 57 57 57 57 56 56 51 49 48 53 57 57 36 40 46 52 54 53 45 58 55 46 39 35 36 35 41 38 37 36 39 32 45 41 35 33 29
56 58 58 58 58 57 56 54 56 57 57 57 57 55 55 57 49 47 49 53 57 51 26 45 47 59 55 46 49 48 54 43 36 37 35 35 37 37 35 40 45 38 44 39 37 34 36
54 55 57 58 58 57 57 57 57 57 57 56 56 55 54 52 51 50 52 56 51 33 20 34 48 46 45 47 49 48 45 47 45 37 37 37 45 41 42 46 47 47 39 37 34 33 29
53 54 55 57 57 56 56 57 57 57 56 56 56 55 53 55 45 51 53 49 33 27 42 36 39 47 46 46 48 48 41 39 37 32 31 38 39 44 46 41 43 37 33 28 28 28 28
58 53 54 56 57 56 55 55 57 56 55 55 54 54 51 51 50 51 50 40 27 39 37 48 47 47 42 48 47 49 41 39 44 41 34 31 26 38 47 40 35 36 36 30 24 26 29
58 54 54 55 57 57 56 57 56 55 55 55 56 51 48 48 51 51 44 33 30 36 46 44 45 41 42 47 45 47 43 43 44 45 34 34 32 46 46 48 47 41 33 42 33 38 30
58 56 54 55 57 57 56 56 55 55 55 55 50 46 45 50 51 49 40 37 37 47 49 49 40 45 41 44 43 44 43 46 45 48 45 42 33 45 48 51 50 45 48 34 33 28 25
58 55 55 55 56 56 56 55 55 55 55 55 49 40 46 50 51 44 36 38 45 50 49 45 45 44 45 43 44 43 43 46 48 47 48 44 40 39 47 41 39 42 39 42 40 38 30
58 55 56 55 55 55 55 55 55 55 55 54 47 35 47 51 40 43 40 43 45 48 52 50 49 48 46 46 43 42 41 44 51 49 43 46 41 32 36 45 47 45 42 42 28 31 32
58 56 56 55 55 55 55 55 56 56 56 52 41 40 50 48 36 40 45 46 48 48 49 49 48 50 50 45 40 44 45 50 51 47 42 45 37 27 31 39 44 42 45 44 43 36 32
58 58 57 55 55 55 55 55 56 56 57 54 46 35 41 46 47 43 41 44 44 49 50 51 50 52 49 46 48 43 45 49 50 49 48 46 39 33 24 30 37 34 42 44 37 30 34
57 57 58 57 56 55 55 55 56 56 56 53 50 40 45 36 41 44 43 46 45 44 50 51 48 49 47 42 44 43 46 47 50 51 47 46 33 33 38 42 38 39 40 42 36 40 31
57 57 57 57 57 57 56 55 56 56 56 51 47 44 46 44 47 44 41 43 45 46 46 47 46 50 48 42 43 41 45 43 42 48 44 47 33 33 31 43 42 36 41 41 41 43 40
56 57 57 57 57 56 56 56 56 57 55 51 52 53 48 44 44 42 43 46 47 48 48 50 49 48 45 45 48 48 48 48 44 43 43 42 37 32 26 38 38 31 37 40 40 41 40
56 56 57 57 56 56 55 55 55 55 55 55 53 52 46 37 42 44 47 48 47 47 45 49 48 47 46 52 52 51 47 47 47 46 48 42 39 35 26 32 20 36 43 43 41 43 43
55 55 55 57 56 55 55 55 55 55 55 54 52 49 47 39 44 46 46 46 47 46 45 47 47 48 51 47 42 40 39 39 42 42 43 44 40 32 27 27 33 37 40 40 37 37 44
55 55 55 55 56 55 55 55 55 55 55 52 48 48 48 43 41 49 45 46 43 42 42 45 48 50 48 44 42 30 29 32 34 36 43 45 43 34 31 26 25 36 43 46 43 30 44
54 54 55 55 54 55 55 55 55 54 54 51 47 49 46 42 42 44 43 42 46 45 42 43 44 44 46 41 35 32 32 37 31 30 31 35 35 30 31 26 34 42 45 45 27 34 43
54 54 54 55 55 55 54 55 55 55 55 52 47 50 44 42 40 44 45 42 44 44 41 43 43 43 42 36 36 36 34 36 32 37 34 34 31 30 31 26 24 44 41 35 40 43 44
53 54 54 55 55 54 55 55 55 55 54 54 47 51 51 42 39 46 46 45 43 43 41 43 41 43 41 38 38 38 35 36 36 31 37 31 38 34 36 36 44 45 42 45 46 43 42

GFSGBSN_sfc_temp_111.txt.gz
Temp
64 64 64 63 62 61 60 59 58 59 59 61 62 62 62 62 62 62 62 61 63 62 62 62 62 61 55 47 48 65 68 67 65 62 57 53 48 45 39 42 45 40 46 50 51 51 51
62 63 64 63 61 61 60 58 58 58 58 61 62 62 62 61 61 61 61 61 62 61 62 61 62 60 50 42 60 64 64 63 63 59 55 54 50 50 43 42 40 44 45 46 48 48 50
62 62 63 62 61 60 59 57 58 57 58 60 61 61 61 61 61 60 61 61 60 61 61 62 61 58 50 48 61 62 64 60 61 59 53 55 54 48 45 40 46 44 38 42 44 46 45
62 62 61 61 60 60 59 57 56 56 58 59 60 60 61 60 60 58 61 60 60 60 61 61 61 53 44 61 59 62 61 59 61 60 57 57 56 49 43 44 42 37 36 28 41 45 46
61 61 61 59 59 59 59 57 56 56 58 59 60 60 60 60 60 58 59 58 58 60 60 61 51 47 43 62 56 59 60 57 56 57 57 61 53 43 43 33 31 32 22 28 35 46 44
59 60 60 58 59 59 58 58 56 58 58 59 59 59 59 57 58 58 57 57 59 58 58 59 58 43 51 50 56 59 60 59 54 51 49 47 41 33 34 32 20 20 26 31 31 41 43
58 59 60 59 59 58 56 55 56 57 58 59 59 58 57 59 58 57 55 52 47 46 49 43 46 49 53 56 60 55 59 54 52 46 35 41 31 27 30 34 35 33 30 29 35 42 39
57 58 60 60 59 58 58 57 57 56 57 58 58 58 56 58 58 57 52 46 48 48 39 50 52 53 57 57 48 52 58 45 42 32 37 34 29 37 40 40 37 32 31 31 37 42 41
57 58 59 59 59 57 57 57 57 57 57 58 57 57 55 56 56 52 48 48 55 53 40 45 51 52 52 54 48 46 51 45 39 36 35 31 35 41 38 35 33 33 31 32 29 38 41
55 57 58 59 59 58 57 56 56 57 57 57 57 57 57 56 50 49 47 53 53 52 32 39 44 50 52 50 44 54 52 46 40 35 37 34 42 38 37 35 37 29 40 38 34 32 20
54 55 56 58 58 58 56 57 57 57 57 57 56 57 57 57 47 46 49 52 51 47 17 43 45 57 53 45 48 46 53 43 37 37 36 36 37 36 35 37 41 35 43 38 35 32 32
58 54 55 58 57 57 57 58 58 57 57 56 56 56 56 51 50 49 52 51 48 30 14 31 45 43 43 45 48 47 45 47 46 37 38 36 45 39 41 45 45 46 39 37 35 33 25
57 55 56 57 57 57 58 57 57 57 56 56 56 56 54 54 44 49 50 45 27 17 38 33 36 44 43 41 43 43 40 38 36 31 27 36 37 41 45 40 43 38 32 27 24 24 26
56 56 56 57 57 56 58 57 57 57 56 56 54 53 51 50 50 49 46 33 19 34 33 45 44 43 37 44 44 45 40 38 43 41 31 31 24 37 46 41 35 34 34 29 23 24 28
56 56 57 58 57 57 57 57 56 56 56 55 54 46 47 48 50 46 37 23 24 32 42 41 42 35 36 43 41 42 38 38 40 40 30 33 30 44 45 47 44 38 34 39 32 34 27
57 57 57 58 58 57 57 56 56 56 56 56 45 43 45 48 47 43 32 32 32 43 45 45 34 39 33 38 37 42 37 42 41 45 42 38 31 44 48 49 48 42 46 33 31 25 24
57 56 57 57 57 56 56 56 56 56 56 56 43 40 46 48 46 37 27 31 41 48 46 41 38 39 39 38 40 37 37 41 44 44 43 41 39 37 44 40 37 37 37 39 37 35 27
57 56 56 56 56 56 55 55 56 56 55 50 42 35 45 47 33 34 31 39 45 45 47 45 44 43 40 41 38 37 36 39 47 45 40 43 37 27 34 44 46 41 39 39 27 29 30
58 57 56 56 55 55 55 56 56 56 56 43 38 40 45 44 27 30 38 42 45 44 45 45 44 46 45 40 36 39 40 47 47 44 39 41 32 23 29 36 40 37 42 40 39 32 26
58 58 56 56 55 55 55 55 56 56 56 46 40 33 37 38 38 33 35 39 39 45 45 47 46 46 43 41 43 38 40 46 47 46 49 45 36 30 23 30 35 33 39 40 34 24 28
58 58 57 56 56 56 55 55 56 56 56 48 42 33 37 27 35 36 36 40 40 39 45 46 44 44 41 36 38 38 41 43 47 50 45 42 31 29 35 39 37 36 37 37 31 35 26
56 57 57 57 57 56 55 56 56 56 56 47 42 35 38 35 40 36 37 37 40 42 42 41 41 43 42 37 37 35 39 38 37 44 42 42 31 32 30 39 37 34 37 39 38 38 36
56 56 57 57 56 56 55 55 55 56 55 46 49 44 41 38 36 34 35 39 42 43 44 45 43 41 39 41 43 43 42 44 41 38 38 38 33 28 25 34 34 29 34 35 36 37 38
55 56 56 57 56 56 55 55 55 55 54 49 49 43 36 32 34 38 42 43 43 42 40 44 44 42 44 47 46 45 43 45 42 41 43 37 35 31 22 28 19 34 40 40 38 39 39
55 55 56 56 56 56 56 55 55 55 56 45 43 41 37 32 37 39 41 41 41 41 41 42 43 44 45 43 38 35 35 36 39 40 38 40 36 29 25 22 30 33 38 38 36 36 41
54 55 55 55 55 55 55 55 55 55 55 45 41 41 39 34 33 39 40 40 36 34 37 41 45 46 43 40 37 28 26 31 31 35 40 41 38 32 28 24 24 34 40 44 41 29 42
54 54 54 55 55 55 55 55 55 55 55 46 42 43 39 34 35 38 36 37 41 38 36 38 40 41 43 35 32 28 29 34 28 28 30 31 31 27 27 23 31 40 42 44 27 34 41
53 54 55 55 55 55 55 55 55 55 55 47 43 44 41 35 35 39 40 35 37 39 36 40 40 40 38 33 32 31 30 33 29 33 32 32 27 27 27 25 23 42 40 35 39 38 42
53 54 54 54 54 55 55 55 55 55 55 52 41 46 46 39 38 42 42 43 40 38 35 38 38 39 39 35 33 33 32 31 31 28 34 30 35 32 33 33 41 41 41 43 43 41 41

GFSGBSN_sfc_temp_114.txt.gz
Temp
62 64 63 62 63 62 61 60 59 57 57 58 60 61 62 62 62 61 62 61 62 64 63 63 62 62 55 46 47 62 68 67 64 61 55 52 47 43 37 39 43 38 42 46 48 48 48
63 61 61 61 61 62 61 59 58 57 56 56 58 60 61 61 61 61 61 61 62 63 62 62 62 60 50 41 58 62 62 61 61 57 53 52 48 48 41 40 38 41 42 43 45 45 46
61 61 61 60 60 60 60 58 58 57 56 57 58 60 61 61 61 59 61 61 61 61 62 62 61 58 50 48 58 60 62 58 59 57 51 53 52 47 43 38 44 42 36 40 42 44 43
61 60 60 60 59 59 58 58 57 55 55 57 59 59 60 60 60 58 61 60 59 58 62 62 61 52 44 59 57 60 59 56 59 59 56 55 54 47 42 42 41 36 34 27 39 43 45
60 60 60 61 60 60 58 58 56 54 55 57 59 60 59 59 58 58 59 60 60 61 62 61 52 48 41 62 55 56 57 54 55 55 55 60 52 42 41 31 26 30 22 25 33 43 42
60 60 60 61 60 59 58 57 57 56 58 59 59 58 58 58 56 58 59 59 60 59 58 58 57 44 49 48 54 57 57 57 52 49 48 46 38 30 31 24 17 20 20 27 28 37 40
57 59 60 60 59 59 57 56 57 58 59 59 58 57 58 59 57 57 57 53 46 44 48 43 44 46 50 54 58 53 57 53 51 44 33 38 29 26 27 32 32 30 28 27 33 40 37
56 59 59 60 60 59 58 57 58 57 59 58 58 56 58 58 57 56 53 47 45 48 39 49 50 51 54 55 47 51 56 44 41 31 36 32 29 35 38 37 34 32 30 30 35 40 38
56 58 58 59 59 58 58 57 58 58 58 58 58 55 58 58 57 52 48 47 52 51 39 45 49 50 50 53 47 46 52 44 38 36 35 32 34 42 38 36 33 33 30 30 28 37 38
56 57 58 59 59 58 58 58 58 58 57 57 57 55 57 57 51 49 46 51 51 50 27 37 43 48 51 50 42 52 53 46 40 36 37 35 40 37 36 35 37 29 38 36 34 32 22
57 57 58 58 58 58 58 58 58 58 57 58 57 57 57 55 46 47 49 50 50 46 15 42 44 56 51 45 45 46 51 45 38 38 36 33 35 35 33 36 40 34 41 38 37 34 31
57 58 59 59 58 59 58 58 58 57 57 57 57 57 56 50 47 48 51 50 47 27 15 31 44 42 41 45 46 46 45 47 46 39 39 36 43 39 39 43 44 44 38 37 36 32 23
58 59 58 58 59 58 58 58 57 57 57 56 55 55 52 52 42 49 49 44 26 18 37 33 35 41 40 40 43 43 40 37 35 30 24 36 37 40 43 38 43 39 32 26 23 23 22
59 59 58 58 58 58 57 57 57 57 56 55 54 53 51 50 47 47 44 32 19 33 32 42 41 41 36 41 41 43 38 35 39 39 31 30 24 37 44 40 34 34 33 28 22 23 27
58 58 58 58 58 57 57 57 57 56 56 55 54 45 45 47 48 45 37 22 24 32 39 39 40 33 34 41 41 42 36 36 38 39 29 30 28 45 45 47 42 39 34 38 32 33 26
58 58 58 57 57 57 57 57 57 56 56 55 42 42 42 47 46 42 32 31 32 41 43 42 32 37 31 36 35 36 35 39 39 43 41 39 31 43 47 47 45 42 44 31 30 25 20
57 57 57 57 56 56 56 56 56 57 57 55 42 37 44 47 45 37 27 29 39 46 45 40 36 36 36 35 36 35 34 40 42 41 43 39 36 36 42 38 36 38 36 38 37 33 25
57 57 56 56 56 56 56 56 56 57 56 48 40 31 45 45 34 31 31 37 45 44 46 43 42 41 37 38 35 34 35 38 44 43 37 39 35 27 35 41 42 39 37 36 28 29 30
57 57 56 56 55 55 56 56 56 57 56 42 36 35 44 43 28 29 37 41 43 43 43 43 42 43 43 38 34 37 38 46 46 42 38 40 31 23 29 36 40 35 39 38 35 31 26
58 57 56 56 55 55 55 56 56 56 57 44 36 29 35 37 36 32 33 37 38 44 44 45 43 44 41 39 41 36 38 45 45 44 49 44 34 29 21 30 33 32 36 37 31 22 26
57 58 57 56 56 56 56 56 56 56 56 45 37 32 35 28 35 35 35 38 38 38 43 45 42 41 38 34 36 36 39 41 45 47 42 41 31 28 34 37 35 33 34 34 30 30 26
56 57 57 57 56 56 56 56 56 56 56 44 37 38 36 33 37 36 37 35 38 40 40 40 39 42 40 35 35 33 37 36 35 42 39 40 30 31 30 38 36 33 36 37 36 35 34
56 56 57 57 56 56 56 55 55 56 54 43 46 43 39 37 33 32 34 39 41 42 42 43 41 39 38 40 40 41 40 40 40 37 37 36 32 27 25 32 33 29 34 33 33 35 36
55 55 56 56 56 56 55 55 55 55 53 44 42 41 35 31 33 36 39 42 41 41 38 43 41 38 41 45 44 41 40 41 41 40 40 36 32 29 22 28 18 34 38 38 37 38 38
54 55 55 55 56 55 55 55 55 55 54 43 40 40 36 31 34 36 39 39 40 41 40 41 42 43 43 40 37 34 33 34 38 39 38 38 33 28 24 22 30 31 37 36 35 36 40
54 54 55 55 55 54 55 55 55 55 54 43 40 40 38 33 33 39 36 37 35 33 36 40 45 45 44 38 35 28 26 30 30 34 37 38 35 31 25 23 24 34 37 41 40 29 40
54 54 54 54 55 55 54 55 55 55 55 44 41 42 39 33 35 36 35 37 38 35 34 36 40 40 41 34 31 27 28 32 28 27 28 30 29 26 26 22 30 38 40 42 28 34 38
54 54 54 54 55 55 55 54 55 55 55 47 42 42 41 35 35 39 40 36 37 37 35 38 38 39 36 33 31 30 28 31 28 31 30 31 26 25 25 24 23 39 39 34 38 36 39
53 53 53 54 54 54 56 54 55 55 55 49 41 45 44 38 38 41 42 41 40 41 37 36 37 37 37 33 31 31 31 29 29 27 32 29 34 31 32 32 40 41 39 41 41 39 39

GFSGBSN_sfc_temp_117.txt.gz
Temp
63 62 61 59 58 59 60 60 58 58 58 57 58 60 60 62 61 61 61 61 62 64 63 63 63 62 55 47 45 60 68 67 62 59 54 50 45 41 36 37 41 36 40 44 45 46 46
62 61 61 60 60 60 60 59 59 59 56 56 55 58 60 61 61 61 60 61 61 62 63 63 62 61 50 40 57 61 61 60 59 55 51 50 46 46 40 38 36 39 40 41 43 44 44
62 61 61 62 60 60 59 58 58 57 57 57 58 59 60 60 60 60 60 61 61 62 63 63 61 57 48 46 56 59 61 56 57 55 50 52 51 46 41 37 42 40 35 38 40 42 42
59 61 61 62 60 59 58 58 57 56 56 57 59 60 60 60 59 60 61 61 60 61 62 62 61 52 43 58 55 59 58 55 58 57 54 54 53 46 41 41 39 34 32 27 37 41 43
58 61 61 61 60 59 59 57 56 55 55 56 59 60 59 59 58 58 59 59 59 59 62 61 52 48 41 61 54 54 56 53 53 54 54 59 51 40 40 30 25 29 21 24 31 42 40
59 60 61 60 60 59 59 58 57 57 58 59 59 58 58 58 58 59 60 60 60 59 58 58 56 44 47 46 52 55 55 55 50 48 46 44 37 29 28 23 17 19 18 25 26 36 38
60 60 60 60 60 58 58 58 58 59 59 58 57 57 58 58 57 58 57 54 47 46 49 43 43 45 48 53 56 52 55 52 49 43 33 37 26 25 27 30 31 29 26 27 32 39 35
59 60 60 60 59 59 59 59 59 59 59 57 58 59 58 57 59 56 53 45 45 48 39 48 49 50 53 53 46 49 54 43 40 30 35 33 28 34 36 35 32 29 30 30 34 39 36
60 60 60 59 59 59 59 59 59 59 58 57 58 58 58 56 56 52 48 46 50 48 39 44 49 49 49 51 45 46 51 46 39 36 36 32 33 41 37 36 34 33 31 31 29 35 36
60 60 60 59 59 59 59 58 58 58 57 57 57 58 58 58 52 48 45 49 49 49 28 36 43 47 50 48 41 51 53 46 40 36 37 35 38 36 34 33 35 30 38 37 33 31 25
59 60 60 59 59 59 58 58 58 58 58 58 57 57 56 55 45 45 47 49 49 45 16 40 42 54 49 44 44 45 50 43 35 36 36 30 33 36 34 35 38 32 42 38 35 33 32
59 59 60 59 58 58 58 58 58 57 57 57 57 56 55 49 46 46 48 48 46 26 13 30 42 41 41 45 45 46 45 48 45 39 39 37 43 39 38 41 43 44 39 37 36 33 22
59 59 59 59 58 58 58 58 58 57 56 55 55 55 51 51 42 48 48 44 25 19 36 32 34 40 39 41 43 42 40 38 35 30 26 37 37 39 41 36 43 39 32 22 19 17 21
59 59 58 58 58 58 58 57 57 56 56 56 55 52 51 49 45 45 43 33 20 32 32 41 39 39 34 40 41 41 40 36 38 38 33 29 26 35 41 38 35 35 33 28 21 23 23
58 58 58 58 57 57 57 57 57 57 56 56 53 44 43 46 47 45 38 22 24 32 38 37 38 32 33 39 40 40 35 34 38 37 30 27 29 42 43 45 42 37 34 38 31 33 23
58 58 57 57 57 57 57 57 57 57 56 55 42 41 42 46 45 42 32 30 31 39 41 40 32 35 30 33 33 34 33 39 39 42 40 35 30 40 45 46 43 41 43 31 30 24 21
57 57 57 57 56 56 56 57 57 57 56 53 40 37 45 45 44 37 27 29 37 45 44 39 35 33 34 33 34 33 34 40 42 41 39 36 33 34 40 36 35 35 34 36 36 32 24
57 57 56 56 56 56 56 56 57 57 56 48 38 32 45 44 34 30 31 36 44 42 44 42 40 39 35 36 34 33 34 38 43 41 35 38 33 26 33 39 40 38 35 34 25 30 28
58 57 56 56 55 55 56 56 56 57 55 41 35 35 43 42 28 29 36 40 41 41 41 41 40 41 41 36 32 36 37 45 44 41 36 38 29 22 29 34 37 34 36 35 34 33 26
57 57 56 56 55 56 56 56 56 57 57 43 36 30 36 37 35 31 32 36 38 43 42 43 41 42 39 36 38 35 37 43 44 43 49 44 32 29 21 30 32 31 33 34 30 21 26
57 57 57 56 56 56 56 56 56 56 56 45 36 32 35 28 34 32 32 36 37 37 41 42 39 39 36 32 34 33 36 39 43 45 40 39 30 27 33 34 34 34 33 33 26 29 26
56 57 57 57 56 56 56 56 56 56 55 43 36 34 34 32 34 33 35 34 36 39 38 38 37 39 37 33 34 32 35 34 34 40 37 38 31 30 30 34 34 33 35 35 33 32 31
55 56 56 57 56 56 56 55 55 55 53 41 40 40 38 35 32 31 32 36 38 39 41 41 39 37 36 38 39 40 40 39 38 34 35 35 31 27 25 30 31 28 32 34 33 34 34
55 55 55 56 56 56 55 55 55 55 51 42 40 39 34 31 32 34 38 38 39 39 37 41 40 36 40 42 42 39 37 38 37 38 38 34 31 29 23 27 18 34 36 36 36 37 37
55 55 55 55 55 55 55 55 55 55 53 43 39 39 35 30 32 35 36 38 37 37 38 40 41 43 41 39 36 33 31 34 35 36 35 36 31 28 23 21 29 30 35 35 34 36 39
55 55 55 55 54 54 54 55 55 55 53 42 39 39 37 33 32 37 35 36 34 32 35 38 42 43 40 37 34 28 25 28 29 33 35 35 33 29 25 22 24 33 36 39 38 30 38
55 55 54 54 54 54 54 54 55 55 54 44 40 40 38 33 35 36 34 35 37 34 34 35 37 37 39 33 31 27 27 30 27 25 26 29 28 25 25 22 29 35 38 40 27 35 36
54 54 54 54 54 55 55 54 54 55 53 47 42 41 40 34 35 38 39 36 36 36 34 38 37 37 34 32 31 29 27 30 26 30 29 30 26 25 25 22 23 38 37 35 39 35 37
54 54 54 54 53 54 54 56 54 55 55 49 41 43 42 37 38 40 41 40 40 40 38 36 36 36 37 32 30 30 31 27 27 27 30 28 33 30 31 31 39 39 39 41 39 40 38

GFSGBSN_sfc_temp_120.txt.gz
Temp
62 62 62 62 61 60 60 60 58 59 58 57 59 57 59 61 61 61 61 62 61 62 63 63 63 62 55 46 45 60 67 65 61 57 51 49 44 40 35 36 39 34 38 42 44 44 44
61 62 62 61 60 60 59 59 58 58 57 57 56 57 59 61 61 61 61 60 60 62 63 63 62 61 52 40 57 60 60 59 57 54 50 49 45 44 39 36 35 36 38 39 42 42 43
62 62 62 61 60 60 59 59 58 58 58 57 55 58 60 60 60 60 60 61 61 62 63 63 62 58 50 47 57 58 60 54 55 54 49 50 50 45 40 35 40 38 33 36 38 40 40
61 62 62 61 60 59 58 58 58 58 58 59 60 60 60 59 59 60 61 61 60 60 62 62 61 53 44 58 56 58 55 54 56 56 53 52 51 45 40 39 37 32 30 27 36 39 42
62 62 61 61 60 59 58 57 57 57 58 59 60 59 59 59 59 60 60 60 61 62 62 61 53 50 42 60 53 53 54 51 51 52 53 56 49 39 38 29 26 29 20 23 31 40 39
62 61 61 61 60 60 60 60 59 59 59 59 58 58 58 59 59 59 59 60 61 60 59 59 56 45 47 46 51 53 53 54 49 47 45 43 35 29 28 24 17 19 18 24 25 34 36
61 61 60 61 60 60 60 60 60 59 58 58 58 58 57 59 58 58 56 53 47 45 47 42 43 44 47 51 54 51 53 50 48 42 32 36 27 23 26 29 28 26 25 25 32 38 33
61 61 60 61 61 60 60 60 59 59 59 60 58 58 57 56 56 57 53 45 45 49 40 48 49 49 51 52 44 48 53 41 39 30 36 31 21 33 35 34 31 28 29 27 33 37 34
61 61 60 60 60 60 59 59 59 59 59 59 58 58 58 57 56 53 48 45 50 49 40 44 47 47 47 50 43 44 49 45 38 37 37 28 32 39 36 35 32 29 27 28 27 35 35
60 60 60 59 59 59 58 59 59 58 57 58 58 57 57 57 51 47 44 48 48 48 28 36 42 46 49 47 40 50 51 45 37 35 34 30 37 35 33 33 34 29 36 35 33 31 27
60 60 59 59 59 59 59 58 58 58 57 57 57 57 56 55 45 45 47 47 47 45 17 39 42 53 48 42 43 43 50 43 34 37 36 31 33 36 34 36 39 34 41 38 36 33 31
60 59 59 59 58 58 58 58 58 57 56 56 56 55 55 48 45 45 46 46 45 27 14 30 41 40 39 42 43 44 46 48 45 39 40 37 41 39 38 41 43 44 38 36 36 32 21
59 59 58 58 58 58 58 58 57 57 57 56 55 55 51 49 42 46 45 42 26 19 35 32 33 39 39 39 41 40 38 38 34 31 21 34 34 37 40 35 42 39 32 22 19 17 19
59 58 58 58 58 58 58 58 58 57 57 56 55 52 49 48 45 44 43 34 20 32 31 39 38 37 33 38 39 40 37 34 37 38 34 24 25 34 40 37 36 35 34 27 15 22 24
58 58 58 58 58 58 58 58 57 57 56 56 53 43 43 46 46 44 39 22 25 32 37 37 37 32 32 37 37 37 34 34 36 37 32 27 27 41 40 42 40 36 33 38 31 32 25
57 57 57 57 57 57 57 57 57 57 56 54 42 40 42 46 44 42 32 30 31 38 40 39 32 34 29 33 33 32 32 38 37 39 38 34 29 38 43 43 42 38 42 30 27 24 21
57 57 57 56 56 56 57 57 57 57 56 53 40 38 45 45 43 37 26 29 36 43 42 38 34 32 33 32 33 31 34 38 40 38 39 34 32 33 38 35 33 34 32 33 32 30 23
58 57 56 56 56 56 56 57 57 57 55 47 37 32 44 44 34 30 31 34 44 41 42 40 39 38 34 34 32 32 32 37 42 40 34 37 31 25 31 38 38 35 32 31 22 26 26
58 58 57 56 56 56 56 56 57 57 54 41 35 34 43 43 28 29 35 38 40 39 39 40 39 41 39 35 31 34 36 44 43 40 35 37 28 20 27 33 36 32 34 33 32 28 24
57 57 57 56 56 55 56 56 56 57 55 42 36 30 36 36 33 32 31 34 36 42 41 41 40 40 37 34 36 34 35 41 43 41 49 43 31 29 22 30 32 31 33 32 29 20 26
56 57 57 56 56 56 56 56 56 56 55 44 35 32 33 27 33 32 32 34 34 36 40 41 37 37 34 31 32 32 35 38 41 44 38 37 29 27 31 33 33 33 33 33 25 29 25
56 56 57 56 56 56 56 55 55 56 55 41 36 34 33 31 33 30 34 32 34 37 37 36 35 38 35 32 33 31 33 32 32 38 34 36 29 30 28 32 32 31 33 33 33 31 31
55 55 56 56 56 56 56 55 55 55 51 40 38 38 37 34 31 30 32 34 37 38 40 40 38 36 35 38 39 39 39 38 36 33 34 32 30 27 24 29 29 27 31 33 33 33 34
55 55 55 56 56 56 55 55 55 54 50 42 39 38 34 31 31 33 35 37 37 37 36 39 39 35 39 41 40 36 34 36 35 35 36 32 30 28 23 26 20 33 34 34 35 36 36
56 55 55 55 55 55 55 55 55 55 52 42 38 39 34 30 32 33 35 35 37 38 36 39 41 43 40 38 35 32 31 32 33 33 33 35 30 27 22 20 30 31 33 34 33 35 37
56 55 55 55 55 54 54 55 55 55 52 42 38 39 37 32 31 35 34 35 33 31 34 37 41 41 39 35 33 28 25 27 28 30 33 33 32 29 25 22 24 33 34 38 36 30 37
56 55 55 55 54 54 54 54 54 55 54 44 39 40 38 32 34 36 33 34 35 32 32 33 36 35 37 32 31 27 27 29 26 25 27 28 27 25 25 22 28 35 37 39 27 35 35
55 55 55 54 54 54 54 54 54 54 54 46 41 40 40 33 34 37 39 36 35 34 33 36 36 35 33 32 30 28 26 28 25 29 27 29 24 23 23 21 22 37 36 34 39 35 35
55 55 54 54 54 53 54 54 56 55 54 49 40 42 42 37 37 40 41 42 43 42 37 35 35 35 36 31 30 29 30 26 26 26 27 27 32 30 31 32 39 37 40 41 39 39 37